GFSSE_sfc_temp_000.txt.gz
Temp
73 75 80 81 82 82 82 82 82 82 82 82 83 83 83 83 83 83 83 83 83 83 83 83 83 83 83 83 83 83 82 82 82 82 81 82 82 82 82 82 81 82 81
75 77 80 82 82 82 82 82 82 82 82 83 83 83 83 83 83 83 83 84 83 83 83 83 83 83 83 83 83 83 83 83 83 83 83 82 82 81 82 82 81 82 81
74 77 79 82 82 82 82 82 82 83 83 83 83 83 83 83 83 83 84 84 83 84 84 83 83 83 83 83 83 83 83 82 83 84 82 79 80 82 82 82 81 81 81
76 75 77 81 82 83 82 82 83 83 83 83 83 83 83 84 84 84 84 84 83 83 84 84 84 84 83 83 82 82 83 83 83 83 79 79 81 82 82 82 81 81 80
75 76 77 81 82 83 83 83 83 83 83 83 83 83 84 84 84 84 84 84 84 84 84 84 84 84 82 83 83 82 81 82 81 80 78 78 77 82 82 82 81 81 80
76 77 81 83 83 83 83 83 83 83 83 83 83 83 84 84 85 84 84 84 84 84 84 84 84 83 83 83 83 82 83 82 81 78 77 78 78 81 82 82 81 81 81
76 78 80 82 83 83 83 83 83 84 84 83 83 84 84 84 85 84 84 84 84 84 84 84 84 84 84 83 83 83 83 83 79 77 77 77 78 81 81 82 82 82 81
76 77 79 83 83 83 84 83 83 83 84 83 83 84 84 84 84 84 84 84 84 84 84 84 84 84 83 83 83 82 82 83 80 78 78 77 77 81 81 82 82 81 81
77 77 77 79 82 84 84 83 83 83 83 83 83 83 84 84 84 84 84 84 85 85 85 85 85 83 83 83 82 82 82 83 80 77 79 77 78 81 82 82 82 81 81
76 77 77 77 78 77 80 83 84 83 83 83 84 84 84 84 85 85 83 83 84 85 85 84 84 83 83 82 82 83 82 83 78 77 78 77 77 81 83 82 81 82 82
76 75 76 76 76 77 78 80 83 83 84 84 83 84 82 78 79 82 80 83 83 84 83 84 84 83 82 81 81 82 81 77 77 77 77 77 79 82 83 82 82 81 81
73 74 76 76 76 77 79 78 77 78 78 78 78 79 77 77 77 78 81 82 83 84 84 83 83 82 79 78 78 78 78 77 77 77 77 77 80 81 83 82 82 82 81
74 75 75 76 76 76 77 76 76 76 76 76 77 77 76 75 75 76 75 75 76 79 78 78 77 77 77 77 76 76 77 77 78 78 78 78 81 81 82 83 83 82 81
73 75 76 76 76 76 75 76 75 75 75 75 75 76 74 73 73 74 73 75 74 76 76 75 75 75 75 75 75 75 75 77 78 78 77 78 79 82 83 82 83 82 81
73 74 75 75 75 76 75 75 74 74 75 75 75 75 75 73 71 72 74 74 74 74 74 74 73 73 73 74 74 74 75 74 76 78 77 79 80 81 83 82 83 82 82
75 75 76 75 76 75 74 75 74 74 75 75 75 75 75 72 72 72 73 73 73 73 74 73 73 72 72 73 73 74 74 75 74 76 78 77 79 81 81 82 82 82 82
75 76 76 76 76 75 75 73 74 74 74 75 75 76 75 74 72 72 71 72 72 73 73 72 72 72 72 72 72 72 73 73 74 74 77 76 77 79 80 82 82 82 81
76 75 76 80 77 75 75 74 74 74 74 74 75 75 75 75 74 72 71 70 72 72 72 72 70 70 70 70 70 71 71 72 73 74 76 77 76 78 78 80 81 81 82
76 76 76 77 76 75 73 74 74 75 74 74 74 74 75 75 75 73 71 71 72 71 70 70 70 69 69 69 70 72 72 72 72 75 74 74 76 77 79 79 79 80 83
77 77 77 76 75 73 74 73 73 73 74 74 74 73 75 74 75 73 71 71 72 70 70 69 68 69 69 68 70 71 70 71 72 73 74 76 75 76 77 77 77 78 79
77 75 75 74 74 74 73 72 72 72 72 73 73 74 74 74 74 73 72 72 71 70 71 70 69 68 68 68 67 68 69 70 71 72 74 75 75 76 76 76 76 76 77
75 75 74 75 74 75 73 73 73 72 73 74 74 74 75 75 74 73 72 71 71 70 70 70 68 67 68 68 66 63 62 68 70 72 72 73 71 73 74 74 74 75 75
74 74 74 74 75 75 74 72 72 73 73 72 72 73 74 74 74 73 72 72 71 70 69 69 69 68 67 68 68 65 61 61 63 69 70 70 69 68 69 71 73 73 74
75 76 75 75 75 74 73 72 72 71 70 71 71 72 72 73 73 73 72 71 70 69 69 69 70 68 67 66 67 67 67 66 61 61 68 68 69 70 68 69 70 71 72
77 75 75 74 74 73 73 74 73 71 71 69 68 70 70 70 71 72 71 70 70 69 68 68 69 68 67 66 66 65 65 64 64 61 59 64 67 67 68 68 69 70 72
78 76 75 72 73 73 73 73 73 72 69 67 67 67 68 68 68 69 70 70 69 68 68 69 69 68 68 67 67 66 64 62 62 62 60 61 61 66 66 68 68 69 71

GFSSE_sfc_temp_003.txt.gz
Temp
77 80 81 82 82 81 82 82 83 83 83 83 83 83 83 83 83 83 83 83 83 83 83 83 84 84 84 83 83 83 83 83 82 83 83 82 82 82 82 82 82 89 82
81 81 80 82 82 82 82 82 82 82 83 83 83 83 83 83 83 83 83 84 83 83 84 83 84 84 84 84 83 83 82 82 83 82 83 83 82 82 82 82 82 86 81
82 84 84 82 82 82 82 82 82 83 83 83 83 83 84 84 84 84 84 84 84 84 84 84 84 84 84 83 83 83 83 81 82 81 82 88 87 82 82 82 81 82 81
85 85 86 80 82 82 82 82 82 83 83 83 83 83 84 84 84 84 84 84 84 84 84 84 84 84 83 83 83 83 82 82 81 82 88 88 89 82 82 82 81 81 81
84 85 85 80 81 82 82 82 83 83 83 83 83 84 84 84 84 84 84 84 84 84 84 84 84 84 84 83 83 83 82 82 82 84 86 86 90 84 82 82 81 81 82
84 86 84 81 82 82 82 82 83 83 83 83 84 84 84 84 84 84 84 84 84 84 84 84 84 84 84 84 83 83 82 82 82 86 86 85 87 82 82 82 82 81 81
86 86 87 82 82 83 83 83 83 84 84 83 84 84 84 85 85 84 84 84 84 84 84 84 84 84 84 84 82 83 82 82 87 86 87 86 87 81 81 82 82 82 81
87 87 87 83 83 82 83 83 83 84 84 84 84 84 84 84 85 84 84 84 84 85 85 85 85 84 84 84 83 83 83 83 87 87 86 87 80 80 81 82 82 81 81
87 87 86 86 85 83 83 84 84 84 84 84 84 84 84 84 84 84 84 84 85 85 85 85 84 84 84 83 83 84 84 83 86 84 87 87 78 81 82 82 82 81 81
86 86 85 85 85 86 88 84 84 84 84 84 84 84 84 84 85 85 84 84 84 84 84 85 84 84 83 83 83 83 84 84 89 87 88 86 78 81 83 82 82 82 81
83 84 86 87 86 86 86 86 85 84 84 84 85 84 85 90 89 88 83 83 84 84 84 84 84 83 82 82 81 82 82 89 89 90 90 80 80 82 83 83 82 82 82
83 85 86 86 85 87 87 86 86 87 89 88 88 87 89 87 87 86 85 82 84 84 83 82 81 82 85 89 89 85 91 88 89 88 91 78 80 82 83 83 82 82 82
84 86 86 86 85 86 84 84 85 87 87 87 86 86 86 87 87 89 89 89 89 85 91 88 88 89 86 86 86 87 87 86 89 90 87 78 80 82 83 83 82 82 82
83 84 86 86 84 85 83 86 84 86 86 87 87 85 84 86 85 85 88 87 84 89 87 86 87 84 84 84 85 84 85 86 88 88 88 79 80 81 83 83 83 82 82
83 84 86 85 84 84 83 85 86 84 87 88 86 86 86 85 83 84 84 86 86 87 87 86 84 83 83 84 85 83 84 83 84 87 87 82 79 80 82 83 83 83 82
83 84 86 84 84 84 84 83 84 85 86 87 86 87 84 85 84 81 83 81 87 86 87 85 83 83 82 84 84 83 83 84 82 82 87 87 79 80 81 82 83 82 83
84 85 84 84 84 83 83 83 84 86 86 87 87 85 85 84 81 84 80 80 86 85 82 83 82 83 83 84 82 83 84 83 84 82 84 86 87 81 80 82 82 82 82
84 83 84 87 86 84 84 83 85 86 86 87 87 86 84 84 85 83 80 82 83 83 84 84 83 82 83 82 81 83 83 83 82 83 85 85 85 88 85 81 81 82 82
84 83 83 84 84 84 83 83 85 84 85 84 86 86 84 82 82 81 82 82 81 83 80 83 83 80 81 82 82 83 83 83 83 87 84 84 85 86 88 84 80 80 83
85 84 84 84 84 82 81 82 83 82 81 86 86 85 83 82 83 83 82 82 81 80 83 81 78 80 80 80 81 82 82 84 84 85 85 86 85 85 86 84 86 88 80
85 84 83 82 82 84 84 83 83 84 84 85 86 84 83 83 83 81 81 81 81 81 81 79 80 78 81 80 78 82 82 82 82 84 85 85 83 85 84 84 84 85 88
84 83 83 82 83 81 85 83 85 84 85 86 86 84 84 84 83 82 81 81 80 82 79 78 77 79 80 80 77 75 76 79 84 84 83 83 81 84 83 83 82 81 82
84 82 82 82 83 83 84 84 82 83 83 83 84 84 84 84 83 82 82 82 80 81 82 79 78 76 78 78 76 76 74 74 76 83 81 82 80 82 82 82 81 81 80
84 84 83 83 83 84 83 82 81 83 82 85 84 85 84 83 83 82 81 81 80 82 79 80 80 79 77 77 79 78 76 75 74 74 82 82 82 81 79 82 82 81 80
86 85 84 83 82 84 82 83 82 81 85 85 83 80 81 81 82 82 81 80 79 81 78 78 78 77 79 78 78 78 76 77 74 74 72 77 81 82 81 81 82 82 81
87 86 84 82 81 82 82 82 81 81 82 82 81 81 82 82 82 80 81 80 80 80 78 79 78 77 77 77 77 77 77 76 77 75 73 73 73 78 80 81 81 81 81

GFSSE_sfc_temp_006.txt.gz
Temp
78 86 80 80 82 82 82 83 83 83 83 83 83 83 83 83 83 83 83 83 83 84 84 84 84 84 84 84 83 83 83 83 83 83 83 83 82 82 82 82 82 92 82
85 87 80 83 82 82 82 83 83 83 83 83 83 83 83 84 84 83 84 84 84 84 84 84 84 84 84 84 84 84 84 83 82 82 83 83 83 82 82 82 83 87 82
90 90 88 81 81 83 83 82 83 83 83 83 83 84 84 84 84 84 84 84 84 84 84 84 84 84 84 84 83 83 83 83 83 83 83 95 92 83 83 82 82 82 82
95 95 92 81 82 83 83 83 83 84 84 83 84 84 84 84 84 84 84 84 84 84 84 84 84 84 84 84 83 83 83 83 83 83 92 95 96 83 83 82 82 82 82
93 94 90 82 83 83 83 83 83 83 83 83 84 84 84 84 84 84 84 84 84 84 84 84 84 84 84 84 84 83 83 83 83 86 92 92 95 86 83 82 82 82 83
93 92 85 83 83 83 83 83 83 83 83 83 84 84 84 84 85 85 85 85 84 84 84 84 84 84 84 84 84 83 84 83 83 90 92 89 92 83 83 83 83 82 80
95 95 92 82 83 83 83 83 84 84 84 84 84 84 84 85 85 85 85 85 85 84 84 85 85 85 84 84 83 84 84 84 91 90 89 93 91 82 83 82 82 82 81
96 93 93 83 83 83 83 84 84 84 84 84 84 84 85 85 85 84 85 84 85 85 85 85 85 85 84 84 84 84 84 84 92 91 91 90 82 82 83 83 82 82 81
96 94 93 93 87 84 83 83 84 84 84 84 84 84 85 85 85 85 85 85 85 85 85 85 85 84 84 84 84 84 84 84 92 93 96 91 80 82 82 82 82 82 82
95 95 92 91 91 91 91 84 84 84 85 85 85 85 85 85 85 85 85 84 84 85 85 85 85 84 83 83 83 83 83 85 96 97 91 91 81 82 83 83 83 82 82
93 94 95 94 90 91 91 89 85 85 85 85 86 85 86 97 95 93 85 84 84 85 85 84 84 83 83 83 82 83 83 98 96 96 97 81 80 82 83 83 83 82 82
90 93 94 94 90 92 95 90 91 92 94 94 94 92 94 95 94 91 89 83 84 84 84 83 83 84 86 97 96 89 97 94 96 96 97 80 81 83 83 83 83 82 82
92 94 92 93 91 93 92 93 94 94 95 94 91 91 93 93 95 98 97 96 95 86 97 94 94 97 91 93 94 93 93 93 96 97 90 80 80 83 83 82 82 82 82
92 93 94 93 90 92 88 93 94 95 94 94 94 90 90 92 92 92 96 95 91 97 93 93 95 90 90 90 92 92 92 92 95 95 92 81 80 82 83 83 82 82 82
91 92 93 93 89 90 89 93 94 93 94 95 94 92 93 93 89 91 91 90 90 95 96 92 91 91 89 91 91 90 92 91 90 92 94 82 80 81 82 83 83 83 82
91 92 94 92 90 90 89 88 90 92 94 94 95 94 90 92 87 91 91 91 91 93 95 92 89 88 89 91 90 90 90 92 90 89 93 93 81 80 81 83 83 83 83
92 92 92 92 92 89 89 89 90 94 94 95 94 92 91 89 87 87 91 90 91 91 87 89 89 90 91 92 89 91 91 91 91 89 91 94 93 82 82 82 82 82 82
92 90 91 94 93 91 90 90 92 94 94 94 95 94 89 89 88 89 91 90 92 89 90 91 89 89 91 90 89 90 90 91 89 90 92 92 94 95 85 83 82 82 82
92 91 89 91 91 90 89 91 91 91 87 88 92 91 91 89 89 89 90 90 88 89 83 85 89 88 87 89 89 91 90 91 91 95 90 92 91 93 94 82 82 81 83
93 91 90 91 89 89 86 86 89 90 91 93 94 90 89 88 89 87 89 88 88 84 88 89 84 88 86 87 88 89 90 92 92 92 92 94 90 91 92 89 92 91 82
93 90 89 88 88 85 87 89 89 90 91 92 93 90 89 89 89 88 90 87 87 86 87 85 86 84 86 89 84 89 88 88 89 92 92 91 89 91 90 90 90 90 91
92 90 89 88 87 86 90 89 92 91 94 92 94 90 90 90 88 88 87 88 87 90 85 83 83 84 87 88 83 83 82 84 88 91 90 89 87 91 90 88 87 85 88
91 90 89 87 87 86 88 89 88 89 89 90 91 89 89 89 88 87 87 88 86 86 89 84 84 81 84 86 82 82 80 81 83 87 85 88 86 87 88 88 86 85 84
92 92 90 88 87 88 87 89 86 88 89 92 92 94 92 90 89 88 87 86 84 88 85 85 87 83 81 83 86 85 82 80 79 81 86 86 89 89 84 88 89 87 85
94 93 92 89 87 88 87 87 89 86 92 93 93 89 87 88 88 89 87 85 84 86 84 84 83 81 85 83 84 85 83 84 82 79 78 83 87 88 89 89 88 90 87
95 94 92 88 86 87 88 87 86 87 87 91 89 89 90 91 90 87 87 85 85 85 83 84 82 81 81 82 84 83 83 82 83 81 79 79 80 84 88 87 87 88 89

GFSSE_sfc_temp_009.txt.gz
Temp
81 86 80 82 83 83 83 83 83 83 83 83 83 83 83 83 83 83 84 84 84 84 84 84 84 84 84 84 84 84 83 83 83 83 83 83 83 82 83 83 83 90 82
86 87 81 83 83 83 83 83 83 83 83 83 83 84 84 84 84 84 84 84 84 84 84 85 84 84 84 84 84 84 84 84 83 83 84 83 83 83 83 83 83 86 82
91 91 88 82 83 82 83 83 83 83 83 83 84 84 84 84 84 84 84 84 85 85 85 85 85 84 84 84 84 84 83 83 84 84 85 84 88 83 83 83 83 82 82
95 95 92 81 82 82 83 83 84 84 84 84 84 84 84 85 85 85 85 85 85 85 85 85 85 85 84 84 84 84 84 83 83 84 87 90 91 83 83 82 82 82 82
91 92 88 83 83 83 83 84 84 84 84 84 84 84 85 85 85 85 85 85 85 85 85 85 85 85 85 85 84 84 84 84 84 85 87 92 85 85 83 82 82 82 82
92 93 86 83 84 84 83 83 84 84 84 84 84 85 85 85 85 85 85 85 85 85 85 85 85 85 85 85 84 84 84 84 85 83 87 91 89 83 83 84 83 82 82
95 95 91 83 84 84 84 83 84 84 84 84 84 85 85 85 86 85 85 85 85 85 85 85 85 85 85 84 84 84 84 85 88 91 90 85 88 83 83 83 82 82 81
93 96 92 84 84 84 84 84 84 84 84 84 84 85 85 85 85 85 86 85 85 85 85 86 86 85 85 84 84 84 84 85 86 81 88 89 82 83 83 83 83 82 81
97 95 94 92 87 84 84 84 84 84 84 84 85 85 85 85 85 85 86 86 85 85 86 86 85 85 85 84 84 84 85 85 87 94 89 82 81 83 83 83 82 82 81
96 97 94 93 92 91 90 84 85 85 85 85 85 85 85 85 86 86 86 85 85 85 85 85 85 84 84 84 84 84 85 85 89 89 86 88 81 83 83 83 83 82 81
91 95 98 97 89 92 91 89 85 85 85 85 86 85 86 88 87 91 87 85 85 85 85 85 85 85 85 84 85 85 85 92 97 87 86 80 82 83 84 83 83 82 82
91 91 94 90 94 93 97 89 90 92 93 93 93 90 93 92 92 94 90 85 85 85 85 85 85 85 85 87 93 90 97 95 96 94 83 81 83 83 83 83 83 82 82
97 97 95 89 88 94 88 94 95 95 96 95 94 94 95 95 94 91 81 87 92 87 84 86 85 85 93 94 95 96 96 95 97 97 83 82 83 83 84 83 83 82 82
94 96 95 93 88 90 90 96 97 97 98 97 95 92 90 93 92 93 85 85 87 85 92 89 88 93 92 92 94 94 94 96 96 95 85 82 82 82 84 83 83 82 82
96 97 97 95 92 92 91 96 96 96 98 98 97 94 94 95 88 90 88 93 92 90 85 89 87 91 91 88 87 92 93 93 94 95 95 82 82 82 83 84 83 82 82
96 96 98 95 92 90 92 92 93 95 92 97 97 97 91 93 85 92 86 85 88 92 86 90 86 89 85 85 90 92 92 94 92 91 95 90 82 83 82 83 84 82 82
97 97 96 95 94 91 90 91 92 95 97 96 97 95 93 92 91 89 89 90 93 88 90 86 84 88 81 95 92 93 93 93 93 91 92 95 89 82 83 84 83 83 83
96 94 95 98 96 93 90 91 94 95 91 92 92 86 92 91 89 89 90 87 87 92 86 89 86 79 92 92 91 92 92 93 91 91 93 92 95 96 84 83 84 82 83
96 94 93 95 95 93 90 93 93 93 94 87 92 95 84 88 89 90 91 88 90 86 90 88 89 82 89 90 91 92 92 92 92 95 92 92 92 94 95 82 83 83 83
96 95 93 94 93 93 92 89 94 94 94 94 94 96 93 91 90 90 90 90 88 88 89 78 84 88 87 87 90 90 91 92 92 93 92 95 92 93 92 91 89 87 83
96 93 92 90 90 91 90 83 89 91 92 94 96 88 90 90 90 88 89 87 89 87 83 87 87 86 87 89 85 88 89 89 90 92 92 92 91 92 91 91 90 90 84
95 93 91 90 89 89 90 88 92 88 93 96 95 93 92 86 90 88 88 91 90 90 87 85 83 84 88 88 83 84 82 83 85 92 90 90 88 92 90 89 88 86 86
94 93 91 90 89 89 88 89 90 90 93 92 94 92 93 90 90 89 88 87 88 87 90 85 85 83 83 87 84 82 80 79 82 86 86 88 87 88 89 89 88 86 86
95 95 93 91 90 90 89 90 86 87 88 93 94 96 94 90 91 91 89 89 86 88 86 86 86 83 82 84 87 86 83 81 79 80 83 87 88 88 85 88 90 87 86
97 96 94 91 89 90 88 87 90 86 93 95 96 93 92 90 91 92 90 88 86 87 85 84 84 81 85 83 86 86 83 84 82 80 78 83 88 89 88 88 88 89 88
99 97 95 90 88 89 89 87 86 87 88 93 92 92 92 92 91 90 89 87 86 86 86 85 83 83 81 82 84 84 85 83 83 82 80 80 82 85 89 89 87 88 88

GFSSE_sfc_temp_012.txt.gz
Temp
74 78 80 82 82 81 83 83 83 82 83 83 83 83 83 83 83 83 83 83 84 84 84 84 84 84 84 84 84 84 83 83 83 83 83 83 83 82 83 83 83 84 82
82 83 81 83 83 82 83 82 83 82 83 83 83 83 83 83 83 83 84 84 84 84 84 84 84 84 84 84 84 84 84 83 83 84 83 84 84 83 83 84 84 82 82
86 85 84 82 83 83 82 83 83 83 83 83 84 84 84 84 84 84 84 84 84 84 84 84 84 84 84 84 84 84 83 83 84 84 83 82 83 83 83 83 83 82 82
89 88 86 82 83 83 83 83 83 84 84 84 84 84 84 84 84 84 84 84 84 84 84 84 84 84 84 84 84 84 84 84 84 84 81 82 86 83 82 82 82 82 82
89 88 84 82 83 83 83 83 84 84 84 84 84 84 84 84 85 85 85 85 85 85 85 85 85 85 84 84 84 84 84 84 84 85 84 81 81 83 82 82 82 82 83
91 89 84 83 83 83 83 83 84 84 84 84 84 85 85 85 85 85 85 85 85 85 85 85 85 85 85 84 84 84 84 84 85 84 83 84 81 83 83 84 83 82 82
91 88 86 83 83 83 83 84 84 84 84 84 84 85 85 85 85 85 85 85 85 85 85 85 86 85 84 84 84 84 84 85 84 80 83 81 81 82 83 82 82 82 82
92 90 86 84 83 83 84 84 84 84 84 84 84 85 85 86 86 86 86 86 86 86 86 86 85 85 84 84 84 84 84 85 82 77 79 78 81 82 83 83 82 82 82
94 90 87 86 84 84 84 84 84 84 84 84 85 85 85 85 86 86 86 86 86 86 86 85 85 85 84 84 84 85 84 85 81 75 80 78 81 83 83 82 82 82 82
94 91 88 87 86 85 85 84 84 84 84 85 85 85 85 85 86 86 86 85 85 85 85 85 85 85 84 84 84 85 85 85 78 74 77 81 81 83 83 82 82 82 82
91 91 92 90 87 85 86 86 84 84 85 85 85 85 85 86 87 87 86 85 86 86 85 85 86 85 85 84 84 84 86 87 77 74 77 79 81 83 83 83 82 82 81
88 91 90 89 89 88 91 84 85 87 87 86 87 85 85 76 84 89 87 86 86 85 80 84 84 85 83 87 85 86 86 88 84 79 76 78 82 84 84 83 82 82 82
91 92 91 90 88 90 85 86 87 88 88 88 87 84 87 82 88 76 77 76 77 79 74 82 84 81 84 87 87 87 88 88 87 84 81 80 82 83 84 83 83 82 82
90 91 91 91 86 86 86 88 89 90 90 90 89 88 87 87 84 78 74 77 75 77 75 81 81 86 86 83 83 84 87 87 87 85 81 81 82 84 84 83 83 82 82
92 92 90 89 85 86 86 88 86 89 90 88 87 88 88 87 82 76 84 86 81 78 86 84 83 84 84 84 84 85 86 84 86 85 80 81 82 83 83 84 83 82 82
93 92 91 89 87 84 86 88 88 87 88 89 87 87 88 88 84 86 86 84 82 82 86 83 83 83 83 84 84 87 86 86 86 86 84 81 82 82 83 82 83 83 82
95 94 91 90 89 87 88 88 89 86 92 88 88 85 87 86 87 86 84 83 82 82 85 81 82 81 79 84 84 86 86 86 85 85 84 85 82 82 82 82 82 82 82
94 91 91 96 90 87 87 87 88 88 85 84 90 84 88 88 87 86 83 76 80 80 81 79 81 81 78 81 81 83 83 85 85 84 85 85 84 86 82 82 82 82 82
94 90 90 92 90 87 86 87 87 86 84 83 86 87 83 82 86 83 85 79 83 83 83 82 81 78 79 80 82 83 83 83 84 88 86 84 85 84 83 81 81 81 83
94 91 89 91 90 86 86 84 87 88 84 84 88 83 81 83 85 82 85 85 85 84 79 80 77 79 79 78 85 82 81 82 82 83 83 87 84 85 82 82 79 80 80
93 90 88 87 87 88 86 84 85 84 84 87 86 87 84 87 87 86 84 83 82 81 78 80 81 78 79 79 77 76 77 81 81 82 81 81 81 84 83 80 80 76 77
92 89 87 86 86 86 86 84 85 85 86 85 87 84 86 86 85 84 82 81 81 81 80 79 79 76 77 79 75 73 70 74 80 82 80 80 80 81 81 83 79 78 77
91 88 87 85 85 85 86 84 82 80 85 83 86 85 86 86 84 80 83 83 82 82 79 79 79 79 74 77 79 74 69 67 72 77 78 77 79 77 78 79 80 79 78
92 91 88 86 85 86 85 84 82 83 82 85 83 86 86 86 86 86 84 83 81 80 79 79 80 77 77 73 75 79 77 75 69 69 75 77 78 79 77 77 79 79 79
95 92 89 86 85 85 84 84 83 83 85 86 87 87 82 82 85 85 84 83 80 80 80 80 78 77 77 75 74 75 75 74 74 70 68 71 75 77 77 76 77 78 78
96 93 90 85 84 85 84 83 83 81 82 85 85 84 85 85 85 86 84 81 80 80 79 79 79 80 77 76 75 75 75 73 71 72 69 70 71 74 77 78 77 77 77

GFSSE_sfc_temp_018.txt.gz
Temp
73 76 81 82 83 83 83 83 82 82 82 82 82 82 82 83 82 82 83 83 83 83 83 83 83 83 82 82 83 82 82 82 83 82 82 82 82 82 82 82 82 81 81
76 78 81 82 82 83 82 82 82 82 82 82 82 83 83 83 83 83 83 83 83 83 83 83 83 83 83 83 83 83 82 81 82 83 83 83 82 82 83 82 82 81 82
77 78 79 82 83 83 82 82 82 83 83 83 83 83 83 83 83 83 83 83 84 84 84 84 84 84 83 83 83 83 83 83 82 83 82 77 79 84 83 82 82 82 82
78 78 78 81 82 83 82 82 83 83 83 83 83 83 83 83 83 84 84 84 84 84 84 84 84 84 84 83 83 83 83 83 82 84 77 79 82 83 83 82 82 82 81
78 78 80 82 82 83 83 83 83 83 83 83 83 83 83 83 84 84 84 84 84 84 84 84 84 84 84 84 83 82 83 84 81 82 78 75 75 82 82 82 82 81 81
78 79 82 83 83 83 83 83 83 83 83 83 83 83 84 84 84 84 84 84 84 84 84 84 84 84 84 83 84 84 84 83 79 77 76 78 76 83 82 82 83 81 81
76 79 81 83 83 83 83 83 83 83 83 83 83 84 84 84 84 84 84 84 84 84 84 84 84 84 84 84 83 83 82 81 75 73 77 75 77 82 82 82 82 81 81
77 79 81 83 83 83 83 83 83 83 83 83 83 84 84 84 84 84 84 85 85 85 85 84 84 84 84 83 84 82 82 80 76 73 74 74 77 82 82 82 82 81 81
79 78 79 80 82 84 83 83 83 83 83 83 84 84 84 84 84 84 85 84 85 85 85 85 84 84 84 84 84 83 81 80 72 72 74 72 80 82 82 82 82 81 81
78 78 76 76 78 78 80 84 84 83 83 84 84 84 84 84 85 85 84 83 85 85 85 84 84 83 83 83 82 83 82 80 73 72 72 74 79 83 83 82 82 81 81
78 77 77 76 75 76 77 81 83 84 84 84 83 84 82 78 78 81 82 83 85 85 82 83 83 84 84 84 83 83 83 73 72 71 71 76 79 83 83 82 82 81 81
75 76 77 76 76 76 82 77 76 78 77 77 77 76 76 75 75 80 81 84 85 83 82 82 84 84 82 78 78 82 75 74 73 72 72 77 79 83 83 82 82 81 81
77 77 77 77 77 77 78 75 74 75 74 74 75 75 75 75 75 74 73 74 74 79 72 78 77 77 78 79 77 78 78 75 72 74 76 79 81 83 84 82 82 81 81
77 78 78 78 78 77 77 76 76 76 74 73 75 75 74 72 72 73 72 73 72 72 73 74 73 77 76 78 78 78 76 75 73 75 75 79 80 82 83 83 82 82 81
78 80 79 79 78 78 77 77 74 75 76 77 76 76 75 73 71 72 72 73 73 71 73 73 75 76 77 77 79 78 77 77 75 75 73 80 80 82 83 83 82 82 82
81 80 81 80 79 80 78 74 76 77 77 77 81 80 79 74 72 71 71 72 72 72 73 73 74 75 77 75 76 77 78 77 76 75 74 75 81 81 82 83 82 82 82
82 82 80 80 80 79 78 78 79 81 81 82 82 79 78 75 75 73 73 72 73 73 75 73 75 75 74 75 74 75 76 77 78 75 75 74 77 82 82 82 82 81 81
82 81 81 84 81 79 79 78 78 80 76 77 80 77 78 78 77 75 73 73 74 74 74 73 73 72 72 71 69 70 74 75 80 77 76 75 75 78 81 82 81 81 82
83 82 81 82 81 78 76 78 77 78 76 76 76 77 77 78 78 75 74 74 73 74 74 73 73 73 72 70 72 71 71 72 78 81 77 79 75 76 76 81 80 80 82
84 82 81 82 81 79 78 75 76 75 75 75 76 77 77 77 78 74 75 74 73 72 72 72 71 71 69 68 75 74 70 71 72 75 74 76 75 76 75 76 77 76 80
83 81 80 80 80 79 76 73 72 72 74 74 76 77 77 76 77 75 74 73 74 72 71 72 70 68 68 68 67 68 68 72 71 70 71 72 74 73 74 74 72 75 75
82 80 80 80 79 79 80 79 75 73 74 76 75 76 77 77 76 76 74 73 73 71 71 70 69 65 66 67 65 62 62 70 69 74 69 72 71 72 73 73 72 72 71
81 80 80 80 80 80 80 76 73 73 74 73 74 74 76 79 78 76 74 73 72 71 70 70 68 67 66 67 67 65 60 60 68 70 70 69 69 68 69 70 71 71 70
82 82 81 79 80 80 79 78 76 77 73 73 74 75 76 78 77 76 75 74 72 71 70 70 70 67 66 65 66 68 65 65 61 62 67 67 68 70 68 68 70 70 69
85 82 82 79 78 80 79 80 78 76 77 73 73 74 75 75 76 77 75 73 71 70 70 69 68 67 67 66 64 65 64 63 62 61 60 63 67 67 68 68 69 69 69
86 84 82 80 78 78 79 79 78 77 74 72 72 72 73 75 76 76 75 74 72 70 69 68 68 67 67 66 65 65 65 64 62 61 59 59 61 66 68 68 67 67 68

GFSSE_sfc_temp_021.txt.gz
Temp
72 76 81 82 83 83 83 83 82 82 82 82 82 82 83 83 83 82 83 83 83 83 83 83 83 83 83 83 83 82 82 82 82 82 82 82 81 81 82 81 81 80 81
75 77 81 82 83 83 83 82 82 82 82 82 82 83 83 83 83 83 83 83 83 83 83 83 83 83 83 82 82 83 82 82 82 83 83 82 81 81 82 82 81 80 81
76 77 80 81 83 83 82 82 83 83 83 82 83 83 83 83 83 83 83 83 83 83 83 83 83 83 83 83 83 83 83 82 82 82 82 76 78 83 82 82 81 81 81
77 75 77 81 82 82 82 83 83 83 83 83 83 83 83 83 83 83 83 83 83 83 83 83 83 83 83 83 82 83 82 82 83 82 76 77 81 82 82 82 81 81 81
76 76 78 82 82 83 83 83 83 83 83 83 83 83 83 83 83 83 83 83 83 83 83 83 83 83 82 83 83 83 83 82 83 80 77 74 75 82 82 82 81 81 81
76 76 81 83 83 83 83 83 83 83 83 83 83 83 83 83 83 83 83 83 83 83 84 84 83 83 83 83 84 84 82 82 80 76 76 78 76 82 82 82 81 81 81
74 77 80 82 83 83 83 83 83 83 83 83 83 83 83 84 84 84 84 84 84 84 84 84 84 83 83 84 83 83 82 81 75 75 75 74 76 81 82 82 81 81 81
76 77 79 82 83 83 83 83 83 83 83 83 83 83 83 83 84 84 84 84 84 84 84 84 84 83 84 84 82 82 82 81 76 72 74 74 77 81 82 81 82 81 81
78 76 78 79 82 83 83 83 83 83 83 83 83 83 83 83 84 84 84 84 84 84 85 84 84 84 84 84 83 82 81 80 72 72 74 73 80 82 83 82 81 81 81
76 76 75 76 78 77 79 83 83 83 83 83 83 83 83 84 84 84 83 83 84 84 84 83 83 84 83 83 83 83 82 81 72 72 72 72 79 82 83 82 81 81 81
75 74 74 74 74 75 76 80 83 83 83 83 83 83 82 76 77 80 82 83 84 84 83 84 83 84 83 82 84 84 83 73 72 70 71 76 79 83 83 82 82 81 81
72 73 75 74 75 75 80 76 76 78 77 76 76 76 76 74 74 78 80 83 84 83 83 82 83 83 81 76 77 81 76 74 72 71 70 77 80 83 83 82 82 81 81
74 75 75 74 75 75 77 73 73 73 73 74 74 74 74 74 72 74 74 73 73 78 72 77 76 76 77 76 75 74 74 73 71 72 75 78 80 82 83 82 82 81 81
73 75 75 75 74 74 73 74 73 73 72 71 72 73 72 72 72 72 71 72 72 72 71 72 72 77 76 76 75 74 73 72 71 72 73 79 80 82 82 83 82 81 81
74 75 75 76 75 75 72 73 72 72 72 72 72 74 73 72 71 71 71 71 71 71 72 72 72 74 74 75 76 75 74 74 73 73 71 80 80 81 82 82 82 82 82
76 76 76 76 76 75 74 72 73 72 72 73 75 76 76 72 71 71 71 71 71 72 72 72 72 74 76 74 77 75 75 74 74 73 73 73 80 81 82 82 82 81 82
78 78 76 76 77 75 75 74 73 74 76 74 77 80 76 74 73 71 71 71 72 72 72 72 72 72 74 73 76 73 73 74 76 73 73 73 75 82 82 82 81 81 81
79 78 78 81 78 76 76 74 76 76 75 77 81 75 76 76 74 72 71 71 72 72 71 71 71 71 71 73 73 69 71 74 76 75 73 73 74 76 79 81 81 81 81
80 79 78 79 78 77 76 76 76 76 76 77 75 74 75 76 75 73 73 72 72 71 72 72 71 70 71 68 71 69 69 70 77 78 74 75 73 75 75 80 80 80 82
81 80 79 79 78 78 77 76 75 73 74 74 74 74 75 76 76 73 73 72 72 71 70 70 70 69 68 67 73 70 69 70 70 71 72 75 72 74 73 74 74 75 80
81 79 78 78 78 77 74 72 71 74 71 72 73 75 76 76 76 73 72 72 72 71 71 70 69 68 65 66 66 65 67 68 69 68 69 70 72 72 72 72 71 73 76
80 79 78 79 78 78 78 78 75 72 72 73 74 74 76 76 75 74 72 72 72 71 69 69 67 65 64 65 63 60 61 68 67 70 67 73 69 71 71 71 71 71 71
80 78 78 79 79 78 79 77 71 72 72 71 71 72 74 76 76 76 73 72 71 70 69 68 68 65 64 65 65 64 59 59 62 65 67 71 67 67 67 69 70 70 69
81 80 80 79 79 78 78 77 78 76 74 71 72 73 75 75 78 75 74 72 71 70 69 69 69 65 65 65 64 66 63 63 61 60 64 65 65 67 66 67 69 70 69
82 80 80 79 79 79 78 79 78 76 77 72 71 73 72 73 75 76 74 72 70 69 69 69 67 66 65 64 64 63 62 61 60 60 58 62 64 65 65 66 67 68 69
83 81 79 77 78 79 78 78 77 77 74 70 70 71 71 72 72 73 74 72 71 69 69 68 67 66 65 65 64 64 63 63 61 60 58 58 60 64 65 65 65 67 67

GFSSE_sfc_temp_024.txt.gz
Temp
73 76 80 83 83 83 83 83 82 82 82 82 82 82 83 83 82 82 83 83 83 83 83 83 83 83 83 83 83 82 82 82 82 82 82 82 82 82 82 82 81 82 82
76 77 80 82 82 83 82 82 82 82 82 82 82 83 83 83 83 83 83 83 83 83 83 83 83 83 83 83 82 82 82 82 82 82 82 82 82 82 82 82 81 82 81
75 76 79 81 83 83 82 82 82 83 83 82 83 83 83 83 83 83 83 83 83 83 82 83 83 83 83 83 83 82 82 82 82 83 82 79 81 82 82 82 82 82 81
76 75 77 80 82 83 82 82 83 83 83 83 83 83 83 83 83 83 83 83 83 83 83 82 83 83 82 83 82 82 83 82 83 82 78 80 83 82 82 82 82 81 81
75 75 77 82 82 83 83 83 83 83 83 83 83 83 83 83 83 83 83 83 83 83 83 83 83 83 83 83 83 83 83 83 83 80 78 78 80 83 82 82 82 82 81
75 76 80 83 83 83 83 83 83 83 83 83 83 83 83 83 83 83 83 83 83 83 84 83 83 83 84 84 84 84 82 82 82 78 77 80 79 82 82 82 82 81 81
73 75 80 82 83 83 83 83 83 83 83 83 83 83 83 84 84 84 83 83 84 84 84 84 84 84 84 84 84 83 82 82 76 76 77 77 80 82 82 82 82 81 81
75 76 78 82 83 83 83 83 83 83 83 83 83 83 83 84 84 84 84 84 84 84 84 84 83 84 84 83 82 83 82 82 77 76 76 76 80 82 82 82 81 81 81
76 75 76 79 81 83 83 83 83 83 83 83 83 83 83 83 84 84 84 84 84 85 85 84 84 84 84 83 82 82 82 80 75 75 76 76 79 82 82 82 81 81 81
75 76 74 75 77 77 79 83 83 83 83 83 83 83 83 84 84 84 83 83 84 84 84 84 84 84 84 83 83 82 82 80 75 76 75 76 79 82 82 82 81 81 81
74 73 74 74 74 75 76 79 83 83 83 83 83 83 82 78 78 81 82 83 84 84 83 84 84 84 83 82 84 84 83 76 76 74 75 76 79 83 83 82 82 81 81
71 72 73 73 74 75 79 76 76 78 78 77 78 78 78 77 76 80 81 83 84 83 83 82 83 83 81 80 80 82 77 77 76 75 74 77 80 83 83 82 82 81 81
72 74 74 74 74 75 76 74 74 75 75 76 76 76 76 76 74 76 76 75 76 78 74 78 77 79 79 78 78 78 77 76 76 76 77 78 80 82 83 83 82 81 81
72 73 74 74 74 74 74 74 74 74 74 74 74 74 74 74 74 74 73 74 74 74 74 75 75 77 78 78 79 78 77 77 77 77 77 78 80 81 82 83 82 81 81
72 73 74 74 74 74 73 73 73 73 73 73 73 74 74 74 73 74 73 73 74 74 75 75 75 77 77 78 78 78 78 78 78 78 76 79 80 80 82 82 82 82 82
73 74 74 74 74 74 73 72 73 72 73 73 73 74 75 73 73 73 73 73 73 73 74 74 75 76 77 76 77 77 78 78 77 77 78 78 80 80 81 83 82 82 82
75 75 74 74 75 73 73 72 72 73 74 73 74 75 76 74 74 74 73 73 74 74 75 75 76 76 76 76 75 76 77 77 78 77 78 78 80 81 81 82 81 81 81
76 74 75 78 76 74 73 72 73 73 73 74 74 76 77 76 75 74 73 73 75 74 74 74 74 74 74 73 74 73 74 77 78 77 78 78 78 81 81 81 80 81 82
76 75 74 76 75 74 73 72 73 73 74 75 75 75 76 76 76 73 74 75 74 74 74 75 74 73 73 72 75 73 73 74 76 80 78 78 78 79 80 80 80 80 82
77 76 76 76 75 74 74 73 73 73 74 74 74 75 75 76 76 74 75 74 74 74 74 73 73 72 71 71 74 73 72 73 74 75 77 79 78 79 79 79 79 79 80
77 76 75 75 75 74 73 71 71 73 73 73 74 75 75 75 76 75 74 74 74 73 74 74 72 72 70 69 70 71 71 71 72 72 75 76 77 78 78 78 78 78 79
77 76 75 75 75 75 75 75 74 74 73 75 75 75 76 76 76 76 74 74 74 74 73 72 72 69 69 69 68 67 67 71 73 73 73 75 75 76 77 76 77 77 77
76 76 75 75 76 76 76 75 72 72 72 73 73 74 75 76 76 76 74 74 74 74 73 71 71 70 69 69 69 68 65 66 67 70 72 72 72 73 74 75 76 76 75
78 78 77 76 76 76 76 75 74 74 74 74 74 74 75 76 76 76 75 74 74 73 71 71 71 70 69 69 69 69 68 68 67 67 70 71 71 73 73 74 75 76 75
81 79 78 76 76 76 76 76 75 75 76 73 73 74 73 74 75 76 75 74 74 73 72 71 70 69 69 69 69 68 67 67 66 66 66 69 70 72 72 73 74 74 75
82 80 78 75 75 76 75 76 74 75 73 72 71 73 73 74 74 75 75 75 74 72 72 71 70 69 69 69 69 69 69 68 67 66 65 65 68 71 71 72 72 73 74

GFSSE_sfc_temp_027.txt.gz
Temp
74 75 79 82 81 82 83 83 82 83 83 83 83 83 83 83 83 83 83 83 83 82 83 83 83 83 83 83 83 83 82 82 82 82 82 82 83 82 82 82 83 89 82
81 78 80 82 83 83 82 82 82 83 83 83 83 83 83 83 83 83 83 83 83 83 83 83 83 83 83 83 83 83 83 83 82 83 83 83 83 82 82 82 83 85 82
82 79 81 81 82 83 82 83 83 83 83 83 83 83 83 83 83 83 83 83 83 83 83 83 83 83 83 83 83 83 83 83 83 83 83 88 86 82 82 82 82 82 81
83 84 86 81 82 82 82 83 83 83 83 83 83 83 83 83 83 83 83 83 83 83 83 83 83 83 83 83 83 83 83 83 83 82 87 88 88 82 82 82 82 82 81
84 86 85 82 82 83 83 83 83 83 83 83 83 83 83 83 83 83 83 83 83 84 84 84 84 84 84 83 83 82 83 83 82 84 86 87 89 84 82 82 82 82 83
85 87 83 83 83 83 83 83 83 83 83 83 83 83 83 83 84 84 84 83 83 84 84 84 84 84 84 84 82 83 83 83 83 86 86 85 88 83 82 82 82 81 81
87 86 87 83 83 83 83 83 83 83 83 83 83 83 84 84 84 84 84 84 83 84 84 84 84 84 84 83 84 83 82 82 86 85 86 86 86 82 82 82 82 81 81
86 88 88 83 83 83 84 83 83 83 83 83 83 84 84 84 84 84 84 84 85 85 84 84 84 84 84 83 83 83 82 83 86 85 85 86 82 81 82 82 82 82 81
87 87 87 88 85 83 83 83 83 83 83 83 83 83 83 84 84 84 84 84 85 85 85 85 84 84 84 83 83 82 82 80 84 86 86 87 80 81 83 82 81 81 81
86 87 86 87 88 86 87 83 83 83 83 83 83 84 83 84 84 84 83 83 84 85 85 84 84 84 84 84 83 82 82 80 86 86 87 88 79 82 83 82 82 81 81
83 85 87 87 86 85 86 86 84 83 83 83 84 83 85 91 89 88 83 83 84 84 84 84 84 85 84 83 84 84 83 90 89 88 89 78 79 83 83 82 82 81 81
81 84 86 86 85 85 87 85 86 87 89 88 88 86 89 87 86 86 85 83 84 83 82 82 82 83 86 93 93 87 93 89 88 88 90 78 79 83 83 83 81 81 81
83 84 84 84 83 84 85 86 86 87 87 87 85 86 86 87 86 89 90 89 89 83 90 90 90 92 89 92 92 92 90 89 92 91 84 78 79 82 83 82 82 81 81
81 82 84 84 83 84 85 86 86 86 86 87 87 84 84 86 86 86 88 87 86 89 86 88 91 88 89 88 91 91 91 91 91 91 86 79 80 81 82 83 82 82 81
81 82 83 83 81 82 82 85 85 85 86 87 86 85 86 86 84 86 86 87 86 88 89 87 84 89 83 84 83 89 91 89 90 92 91 79 80 81 82 81 82 82 82
82 82 84 82 82 82 82 81 83 84 86 85 86 86 84 85 84 87 86 86 87 88 88 86 85 86 80 83 84 88 89 91 88 88 92 89 81 81 81 82 81 82 82
83 83 82 82 83 81 81 82 83 85 86 86 86 84 84 84 84 83 86 86 87 86 83 83 84 86 88 86 82 88 90 86 90 88 90 92 90 82 82 82 82 81 82
83 81 82 85 84 82 82 82 83 85 85 86 86 86 84 84 84 83 85 86 88 86 85 87 83 83 87 81 81 85 89 88 84 89 90 90 91 94 84 82 81 81 82
83 81 81 82 83 82 81 83 83 83 84 86 86 86 85 84 85 84 86 87 85 87 87 84 87 85 85 85 85 87 87 86 81 91 88 88 89 91 92 82 81 80 82
84 82 82 82 81 81 82 81 83 84 84 86 86 86 85 85 85 84 87 85 85 86 85 86 83 84 85 85 87 85 86 86 88 88 89 91 89 88 91 88 88 88 81
84 82 81 80 80 81 81 80 81 81 83 84 86 84 84 85 84 83 86 85 84 84 84 83 83 81 84 83 83 83 84 85 85 86 89 90 88 89 88 88 90 90 88
83 82 81 80 80 80 82 82 83 83 85 86 87 85 85 85 84 84 84 85 84 85 81 81 81 83 83 83 82 82 79 82 86 87 87 88 85 90 88 87 86 85 86
83 82 81 81 81 81 82 82 82 83 83 83 84 85 85 85 85 84 84 85 83 84 85 82 81 80 82 81 79 82 78 78 81 85 83 87 84 88 87 86 86 85 84
84 84 83 82 81 81 82 82 80 81 82 85 86 87 87 85 86 85 84 84 83 85 83 82 82 81 80 80 81 81 79 80 80 77 83 84 85 85 85 88 88 86 86
86 84 84 82 81 82 81 82 82 81 85 87 86 84 84 85 85 86 84 84 83 84 83 81 79 79 81 83 83 81 79 81 79 80 78 80 82 85 86 85 88 88 85
87 86 84 81 80 81 81 81 81 81 82 84 83 84 86 87 87 84 85 84 83 84 83 82 80 79 80 81 83 82 83 81 80 80 79 78 80 82 85 85 84 86 86

GFSSE_sfc_temp_030.txt.gz
Temp
71 77 81 81 82 83 83 83 83 83 83 83 83 83 83 83 83 83 83 83 83 83 84 83 84 84 84 83 83 83 83 83 83 83 83 83 82 82 82 83 84 92 82
76 78 80 82 83 83 83 83 83 83 83 83 83 83 83 83 83 83 83 83 83 83 84 84 84 84 83 83 83 83 83 83 83 83 83 83 82 82 82 83 86 87 82
76 83 86 81 82 83 83 83 83 83 83 83 83 83 83 84 83 84 84 84 84 84 84 84 84 84 84 84 83 83 83 83 83 83 84 94 91 83 83 82 83 82 82
88 85 90 81 82 83 83 83 83 84 83 83 83 83 83 84 84 84 84 84 84 84 84 84 84 84 84 84 84 83 83 83 83 83 86 93 92 83 83 82 82 82 82
81 89 88 81 82 83 83 83 83 83 83 83 83 83 84 84 84 84 84 84 84 84 84 84 84 84 84 84 84 83 83 83 83 86 89 87 94 84 83 81 82 82 83
91 92 85 83 83 83 83 83 83 84 83 84 84 84 84 84 84 84 84 84 85 84 84 84 84 85 85 85 85 84 84 83 83 92 91 89 91 83 82 83 83 82 82
93 94 91 83 83 83 83 83 84 84 84 83 84 84 84 84 84 84 84 85 85 85 85 85 85 85 85 85 85 84 84 84 90 91 93 88 89 82 82 82 82 81 81
94 95 92 84 83 83 84 84 83 84 83 83 84 84 84 84 84 84 85 85 85 85 85 85 85 85 84 84 84 83 84 85 91 90 91 92 82 82 83 83 82 82 81
95 96 93 92 88 84 84 84 84 84 84 84 84 84 84 84 85 85 85 85 85 86 85 85 85 85 85 84 83 83 82 82 92 91 92 91 80 82 82 82 82 82 81
94 96 93 93 92 91 90 84 84 84 84 84 84 84 84 85 85 85 84 84 85 85 85 85 85 85 85 85 84 83 82 82 94 92 94 90 81 81 83 82 82 81 81
91 94 95 95 92 91 91 89 85 84 84 84 85 84 85 94 94 93 85 84 85 85 85 85 85 85 85 85 85 84 83 97 97 95 93 79 81 82 83 82 82 81 81
86 93 95 94 93 92 95 90 90 92 95 94 94 91 96 93 93 93 88 84 85 84 83 83 84 85 87 100 97 86 93 95 97 96 92 79 80 83 84 82 82 81 81
90 93 94 93 91 92 92 93 93 94 95 94 90 91 93 94 94 99 95 94 94 86 96 92 92 93 95 98 98 98 97 97 98 97 85 80 81 82 84 83 82 82 81
90 92 94 92 89 91 93 93 95 94 95 95 94 90 91 93 94 94 96 95 93 98 94 95 92 93 95 94 92 96 97 100 99 98 86 80 81 82 83 83 83 82 81
90 91 92 91 88 88 88 93 94 93 94 96 94 92 94 95 92 94 93 96 94 97 96 92 93 92 90 84 92 95 96 94 96 100 94 81 81 82 82 83 83 82 82
90 90 92 90 88 88 88 88 90 92 94 94 95 94 90 93 92 95 94 96 96 97 97 90 91 89 93 92 88 93 95 96 93 95 97 90 82 82 83 83 82 82 82
91 91 91 90 90 87 87 88 89 93 95 94 95 92 90 90 90 89 90 92 96 93 90 90 92 94 91 95 90 94 97 92 94 93 98 97 88 82 83 83 83 81 82
92 89 90 93 91 89 88 89 91 93 94 94 95 94 90 89 89 89 89 93 95 90 93 92 92 92 94 92 91 95 96 93 92 93 95 97 97 93 84 83 82 82 82
91 89 88 90 90 89 88 90 90 90 91 94 95 95 91 90 90 90 93 94 92 95 92 93 92 92 91 92 91 96 96 93 90 97 93 94 93 97 96 82 82 82 83
92 90 88 89 88 87 89 88 91 92 92 94 94 94 92 91 90 90 93 91 91 95 93 92 88 92 92 91 93 92 95 92 95 95 94 96 94 94 96 91 90 85 82
92 89 87 86 86 87 88 87 88 89 90 92 93 92 90 90 90 89 92 90 91 90 86 88 89 86 90 91 89 89 90 91 92 95 97 96 93 96 94 94 94 96 87
90 89 86 86 85 86 88 88 90 90 93 93 94 92 91 91 90 90 88 90 89 93 86 86 85 90 91 91 88 89 83 87 91 96 95 94 92 95 93 92 91 90 91
90 88 87 86 86 86 88 89 88 90 90 90 92 92 92 91 91 89 89 90 88 89 90 86 86 85 89 88 86 87 83 84 86 90 89 94 90 93 92 91 91 89 90
91 91 89 87 86 86 86 88 85 87 87 91 92 94 94 91 91 91 89 89 88 92 89 85 89 88 85 86 87 89 86 85 85 82 89 90 91 91 90 93 92 91 89
93 92 90 87 86 87 86 87 87 86 91 93 94 91 89 90 91 93 90 89 88 90 89 87 86 84 88 89 88 87 85 88 86 85 84 85 89 91 91 91 94 94 90
95 93 91 87 85 86 86 85 86 86 88 91 90 91 92 93 93 90 91 89 89 89 88 88 86 85 85 86 90 88 88 86 86 85 84 85 86 89 91 92 91 92 93

GFSSE_sfc_temp_033.txt.gz
Temp
75 79 81 82 83 84 84 83 83 83 83 83 83 83 83 83 83 83 83 83 83 84 83 84 84 84 84 83 83 83 83 83 83 83 83 83 82 82 83 83 84 90 83
77 79 81 82 83 83 83 83 83 83 83 83 83 83 83 83 83 83 83 84 83 84 84 84 84 84 84 84 83 83 83 83 83 83 84 83 83 82 83 84 85 86 83
77 80 87 82 83 83 83 83 83 83 83 83 83 84 84 84 84 84 84 84 84 84 84 84 84 84 84 84 84 84 83 83 83 82 83 88 89 83 83 82 83 83 83
79 90 92 81 83 83 83 83 83 83 83 83 83 83 84 84 84 84 84 84 84 84 84 84 84 84 84 84 84 83 83 83 83 83 83 90 93 83 83 82 82 82 82
82 89 90 82 83 83 83 83 83 83 83 83 84 84 84 84 84 85 85 85 84 84 84 85 85 85 85 85 84 83 83 83 83 86 89 88 90 85 82 82 82 82 83
89 92 84 83 83 83 83 83 84 84 84 84 84 84 84 84 84 85 85 85 85 85 85 85 85 85 85 85 85 84 83 83 83 86 90 88 88 83 82 82 82 82 82
94 93 90 82 83 83 84 84 84 84 84 84 84 84 84 84 85 85 85 85 85 85 85 85 85 85 85 85 84 84 84 84 91 86 88 90 87 82 83 82 83 81 82
90 96 90 84 83 83 84 84 84 84 84 84 84 84 84 84 85 85 85 85 86 85 85 85 85 85 85 84 83 84 84 85 91 93 87 89 81 82 83 82 82 82 81
96 96 92 92 87 84 84 84 84 84 84 84 84 84 85 85 85 85 85 86 86 86 86 85 85 85 85 84 84 83 83 85 86 91 93 87 81 82 83 82 82 81 82
96 96 93 92 93 90 90 84 84 84 84 84 84 85 85 85 85 85 85 85 86 86 85 86 86 85 85 84 84 83 83 84 85 94 93 87 81 82 83 82 82 82 81
94 96 96 96 93 91 91 88 85 84 84 84 85 85 84 85 90 90 85 85 86 85 85 85 86 86 86 85 84 84 84 83 88 87 90 80 82 83 83 83 82 82 81
92 97 98 96 95 94 96 89 90 92 93 93 89 90 79 90 90 93 89 85 85 85 85 86 86 85 85 93 94 85 80 93 95 92 89 80 82 83 83 83 82 81 82
96 98 98 96 93 94 94 93 94 95 96 96 92 91 83 92 91 76 91 92 89 87 82 82 86 93 96 98 99 95 94 95 97 92 85 81 82 83 84 83 82 81 82
94 96 98 96 93 94 96 96 97 97 98 97 96 91 91 89 94 78 83 91 93 90 90 84 88 92 83 87 92 97 99 92 94 94 85 81 82 83 84 83 82 82 82
94 96 97 95 91 92 92 95 98 97 97 99 96 93 95 85 90 86 89 86 89 87 86 89 91 90 91 88 92 92 95 96 97 89 90 81 82 83 83 83 83 82 82
95 95 97 94 91 91 91 91 93 96 98 98 98 96 92 94 92 86 88 84 86 84 80 92 91 83 84 90 90 93 95 96 93 93 90 87 82 82 83 83 83 83 82
96 96 95 93 92 89 89 90 92 96 98 97 98 94 93 92 91 89 89 86 84 84 91 88 90 85 89 92 91 95 90 90 94 92 89 89 87 82 83 83 83 82 82
96 93 94 96 93 90 90 90 93 96 97 97 98 96 92 92 91 91 92 92 85 90 95 85 92 94 89 94 92 94 94 94 94 94 95 87 87 89 84 83 83 82 81
95 92 91 92 93 90 90 91 92 93 95 97 98 97 92 92 91 91 77 80 92 89 89 94 83 90 91 92 91 94 94 93 90 96 94 92 93 84 86 82 82 82 83
95 93 91 92 92 90 91 90 93 94 94 96 97 97 92 92 92 91 89 91 93 90 83 81 88 92 91 91 95 93 93 95 95 95 94 95 94 94 87 88 85 83 83
95 92 90 89 89 90 90 89 90 91 92 94 96 95 93 93 91 90 92 91 92 87 90 89 89 87 89 90 90 90 91 93 93 95 98 95 94 88 92 94 85 84 82
94 92 89 89 88 89 90 90 92 92 95 94 95 94 93 92 91 91 90 84 91 79 88 87 87 82 91 91 87 89 83 87 92 95 95 94 93 95 93 93 92 87 81
93 91 89 88 88 88 89 91 91 92 92 93 93 94 93 92 92 91 90 91 91 90 83 87 88 87 89 89 87 86 83 74 87 91 90 92 91 93 92 91 91 90 88
95 93 91 89 88 88 88 89 86 88 88 92 92 95 94 93 92 93 91 91 89 92 84 88 90 89 86 86 89 91 87 84 74 74 89 91 91 91 90 92 91 90 90
96 94 93 89 87 88 87 87 89 87 92 94 95 91 90 89 92 94 92 90 89 90 90 86 87 86 89 89 89 89 87 90 88 83 72 79 89 92 91 91 95 89 91
98 96 94 89 86 87 88 86 87 86 88 91 91 93 94 94 93 91 93 90 88 90 91 89 88 87 86 89 90 90 89 87 87 86 85 84 83 82 93 93 92 93 93

GFSSE_sfc_temp_039.txt.gz
Temp
73 76 82 83 83 83 83 83 83 83 83 83 83 83 83 83 83 83 83 83 83 83 83 83 83 83 83 83 83 83 83 83 83 83 83 83 83 83 83 83 83 83 82
77 77 82 83 83 83 83 83 83 83 83 83 83 83 83 83 83 83 83 83 83 83 84 84 84 83 83 83 83 83 83 83 83 83 83 83 83 83 84 83 83 82 82
76 77 82 83 83 83 83 83 83 83 83 83 83 83 83 83 83 83 84 84 84 84 84 84 84 84 83 83 83 83 83 83 82 84 83 79 81 83 83 83 83 82 82
78 78 80 81 82 83 83 83 83 83 83 83 83 83 83 84 84 84 84 84 84 84 84 84 84 84 84 83 83 83 82 83 82 83 79 81 83 83 83 82 82 82 82
79 80 81 82 82 83 83 83 83 83 83 83 83 83 84 84 84 84 84 84 84 84 84 84 84 84 84 84 83 83 83 83 84 83 80 76 76 83 83 82 82 82 82
81 80 82 83 83 83 83 83 83 83 83 83 83 84 84 84 84 85 84 84 84 84 84 84 84 85 84 84 83 83 83 83 84 78 79 80 77 83 83 83 82 82 81
78 79 81 83 83 83 83 83 83 83 83 83 83 84 84 84 84 85 85 85 85 85 84 84 84 84 84 84 84 84 84 84 80 79 77 77 79 82 83 83 82 82 81
79 80 81 83 83 83 83 83 83 83 83 83 84 84 84 84 84 84 85 85 85 85 85 84 84 84 84 84 84 84 84 85 84 79 78 77 80 82 82 82 82 82 82
83 80 79 81 83 84 83 83 83 83 84 84 84 84 84 84 84 85 84 85 85 85 85 85 84 84 84 83 84 84 84 84 79 79 80 77 81 82 83 82 82 81 81
82 81 79 79 78 77 79 84 84 84 84 84 84 84 84 84 85 85 84 84 85 85 85 85 85 84 84 83 83 84 84 85 81 80 78 79 81 83 83 82 82 81 81
81 81 80 79 77 77 78 82 83 84 84 84 83 81 75 74 77 82 83 85 85 85 85 85 84 84 84 84 84 84 85 78 78 78 77 79 81 83 82 82 81 81 81
79 80 81 80 79 79 84 77 77 80 79 78 75 72 72 71 73 81 83 84 85 85 85 83 83 84 82 80 79 81 76 79 79 78 77 80 82 83 83 82 81 81 81
82 83 82 82 81 80 80 76 76 77 77 75 75 71 72 72 72 74 77 77 77 81 77 76 76 79 80 78 79 78 81 79 76 78 79 80 82 83 83 81 82 81 81
82 83 84 83 82 79 79 78 79 79 78 76 73 72 71 71 72 73 75 77 76 75 75 75 73 76 77 80 80 82 82 84 80 78 77 80 82 83 83 82 81 82 81
83 84 84 84 81 80 79 79 78 79 81 80 74 71 73 71 74 75 77 73 75 75 75 76 75 77 78 80 82 82 83 81 81 79 74 81 81 82 83 82 82 82 81
85 85 85 84 81 83 82 77 79 81 82 84 80 77 74 73 76 74 76 76 78 74 73 74 75 76 76 77 79 83 82 81 79 80 76 76 81 81 82 82 82 82 82
84 86 84 84 81 81 80 80 83 80 85 81 84 80 79 79 76 78 74 76 79 75 77 76 76 78 76 78 79 83 80 80 80 80 80 76 77 81 82 82 82 81 82
83 83 84 88 82 79 79 79 79 79 81 84 83 80 81 81 80 74 74 76 76 77 77 77 79 79 74 77 77 80 78 78 79 81 80 78 76 80 81 81 81 80 81
84 83 83 84 81 78 78 78 79 79 79 81 84 80 80 81 82 76 76 76 76 77 77 77 76 76 77 76 81 79 80 77 80 82 79 78 77 78 77 80 80 80 82
85 84 84 82 81 80 78 77 77 77 78 79 80 79 79 79 81 78 75 76 76 76 76 76 75 76 77 77 84 83 75 80 77 79 79 82 78 78 77 76 75 76 80
85 83 83 79 79 80 78 77 74 77 76 77 79 80 79 79 80 77 76 76 76 75 76 77 75 76 74 74 72 72 73 77 80 80 78 77 77 77 76 74 74 76 77
84 83 82 79 79 80 80 80 76 76 76 78 79 78 81 80 79 79 76 75 76 75 76 76 75 72 73 72 70 71 70 73 75 76 75 78 74 76 76 77 75 75 74
82 81 81 80 79 80 80 79 76 76 76 76 77 77 79 80 80 79 78 76 76 74 73 75 75 74 70 72 75 71 66 66 67 76 74 74 74 73 75 76 76 75 74
83 83 82 80 79 80 79 80 79 80 76 74 77 76 78 80 80 80 79 78 77 75 75 74 77 75 73 70 72 76 73 71 66 67 71 74 74 76 73 74 75 76 74
85 83 81 81 80 81 81 81 79 76 75 76 76 77 75 77 79 81 79 78 77 76 75 75 76 75 73 72 70 71 71 71 70 67 64 71 72 72 73 74 74 76 74
86 84 81 80 80 81 80 78 79 76 75 74 74 76 74 79 79 79 80 78 78 76 76 75 76 75 74 74 72 71 71 70 70 68 66 69 68 71 73 73 74 75 75

GFSSE_sfc_temp_042.txt.gz
Temp
71 75 82 83 83 83 83 82 82 82 82 82 82 83 83 83 83 82 83 83 83 83 83 83 83 83 83 83 83 83 83 83 82 83 83 83 82 83 83 83 82 82 82
74 76 82 82 83 83 82 82 82 82 82 82 83 83 83 83 83 83 83 83 83 83 83 83 83 83 83 83 83 83 83 83 83 83 83 83 83 83 83 83 82 82 82
74 78 81 82 83 83 82 82 83 83 83 83 83 83 83 83 83 83 83 83 83 83 83 83 83 83 83 83 83 82 82 83 83 83 82 78 80 83 82 83 82 82 82
76 78 80 81 82 83 82 83 83 83 83 83 83 83 83 83 83 84 84 84 83 84 84 84 84 84 83 83 83 83 83 83 83 83 77 79 83 82 82 83 82 82 81
76 77 80 82 82 83 83 83 83 83 83 83 83 83 83 84 84 84 84 84 84 84 84 84 84 84 84 83 83 82 82 83 84 81 76 74 77 82 83 82 82 82 82
77 79 82 83 83 83 83 83 83 83 83 83 83 83 84 84 84 84 84 84 84 84 84 84 84 84 84 83 83 82 83 82 82 76 76 78 76 83 82 82 82 82 81
76 78 81 82 83 83 83 83 83 83 83 83 83 83 84 84 84 84 84 84 84 84 84 84 84 84 84 84 83 82 84 84 77 75 75 75 78 82 82 82 82 81 81
77 79 80 82 83 83 83 83 83 83 83 83 83 83 84 84 84 84 84 85 85 85 84 84 84 83 83 83 83 83 83 84 80 76 76 76 80 82 83 82 82 82 81
79 78 79 80 82 83 83 83 83 83 83 83 83 83 83 84 84 84 84 85 85 85 85 84 84 82 82 83 83 83 84 82 76 76 78 76 80 82 82 82 81 81 81
78 77 76 76 76 77 79 83 83 83 83 83 83 83 84 84 84 84 83 83 85 85 85 85 84 84 83 82 82 84 83 83 76 77 76 78 81 83 82 82 81 81 81
77 76 76 76 74 75 76 81 83 83 83 83 82 81 77 73 75 80 82 84 85 85 85 84 84 84 83 83 84 84 81 73 75 75 75 79 81 83 82 82 81 81 81
73 75 76 75 74 74 82 76 76 79 78 76 74 73 71 72 74 78 81 84 85 85 85 83 83 84 83 78 77 82 75 75 74 75 75 79 82 82 82 82 81 81 81
76 77 76 76 75 75 77 74 73 75 75 74 73 72 71 73 73 73 74 76 76 81 76 76 75 77 78 77 77 80 77 78 74 76 78 80 82 83 82 81 81 81 81
76 77 77 77 77 74 75 75 74 75 75 73 71 71 70 70 72 72 72 75 75 74 74 74 73 75 75 77 78 77 78 79 75 75 76 80 81 82 82 82 81 81 81
77 78 78 78 77 76 74 73 74 74 75 75 72 71 71 71 72 73 75 73 74 74 74 73 74 76 75 76 77 79 79 76 76 75 73 81 81 82 82 82 82 81 81
79 79 80 79 78 78 76 73 74 76 76 76 73 73 73 71 72 73 73 73 74 73 73 72 74 74 73 74 76 82 78 76 76 74 74 76 81 81 82 82 82 81 81
81 81 80 79 79 78 77 75 75 77 80 79 76 74 73 73 74 74 73 73 75 73 73 74 74 73 74 75 77 77 76 75 76 77 78 74 77 81 82 82 81 81 81
82 81 81 84 80 79 76 77 77 77 77 77 79 76 76 76 75 73 73 73 74 74 73 73 73 74 73 74 73 74 74 74 76 76 76 74 74 79 80 81 80 80 81
81 82 81 82 80 78 76 77 77 77 76 77 77 78 77 78 77 74 74 74 74 74 74 74 76 73 73 77 75 73 73 73 76 79 75 75 74 75 74 79 79 80 81
81 82 82 82 79 78 75 75 75 75 75 76 77 76 77 77 78 75 73 75 74 74 73 74 73 75 76 73 80 76 73 73 75 74 76 78 74 75 74 75 74 75 79
80 81 81 80 78 77 74 72 72 73 73 74 76 78 76 77 78 75 74 76 74 73 74 74 73 74 72 70 70 71 70 77 74 74 73 74 74 74 73 73 73 73 75
79 80 81 80 78 78 79 78 73 73 73 75 75 76 77 77 77 76 74 74 74 74 74 73 73 70 70 70 69 66 65 69 70 72 71 74 72 74 74 74 73 73 73
79 80 79 80 78 79 78 75 72 73 73 73 73 73 76 77 78 76 76 74 74 73 72 73 73 72 68 70 71 69 63 63 65 70 70 71 71 71 71 73 74 73 72
82 81 80 79 79 79 77 77 77 78 75 74 74 73 75 77 77 77 77 76 74 73 73 73 74 72 69 69 70 73 70 68 65 64 68 69 70 72 70 71 73 73 72
86 81 81 78 78 78 77 78 78 77 76 72 73 74 73 76 77 79 76 76 75 73 73 73 73 72 71 69 68 69 68 68 66 64 63 67 69 69 69 72 73 71 71
84 82 81 77 77 78 78 78 78 76 73 73 71 74 72 75 76 76 77 76 75 74 73 73 74 73 72 70 69 69 70 69 67 66 64 64 67 69 69 70 70 72 70

GFSSE_sfc_temp_045.txt.gz
Temp
71 74 82 82 83 83 83 83 82 82 82 82 82 82 82 82 82 82 82 83 83 83 83 83 83 83 83 83 83 83 83 82 82 83 83 82 82 82 83 82 82 81 82
73 76 82 82 83 83 82 82 82 82 82 82 82 82 82 82 82 83 83 83 83 83 83 83 83 83 83 83 83 83 83 83 83 83 83 83 82 83 83 82 82 81 82
74 77 80 82 83 83 82 82 82 83 83 83 83 83 82 83 83 83 83 83 83 83 83 83 83 83 83 83 83 83 83 83 82 83 82 77 79 83 83 83 82 82 82
76 77 79 81 82 82 82 82 83 83 83 82 83 83 83 83 83 83 84 83 83 83 83 83 84 84 83 82 82 82 82 83 83 81 76 78 82 83 83 82 82 82 81
75 76 80 82 82 83 83 83 83 83 83 83 82 83 83 83 84 84 84 84 83 83 82 83 82 84 84 83 83 83 82 83 83 79 75 74 77 82 82 82 82 82 81
76 77 82 82 83 83 83 83 83 83 83 83 83 83 84 84 84 84 84 84 84 84 84 84 83 83 82 83 83 83 83 83 80 75 75 77 76 83 82 82 82 82 81
74 77 80 82 83 83 83 83 83 83 83 83 83 84 84 84 84 84 84 84 84 84 84 83 83 83 82 83 83 84 83 82 75 74 74 74 77 81 83 82 82 81 81
75 77 80 82 83 83 83 83 83 83 83 83 83 84 84 84 84 84 84 84 84 84 83 83 83 83 82 83 83 84 83 82 78 75 75 75 79 82 82 82 81 81 81
77 76 77 78 81 83 83 83 83 83 83 83 83 83 84 84 84 84 84 84 85 85 84 84 84 84 83 82 83 83 83 81 73 74 77 74 80 83 82 82 81 81 81
76 76 74 75 76 76 78 83 83 83 83 83 83 83 84 84 84 83 83 84 85 85 85 84 84 84 84 83 84 83 83 81 74 75 74 75 80 82 83 82 81 81 81
75 73 73 73 74 74 76 80 82 83 83 83 82 82 78 73 75 78 82 84 85 85 85 84 83 84 84 84 84 84 82 73 74 74 73 78 81 83 82 82 81 81 80
74 73 72 73 73 74 80 76 75 78 77 75 74 73 72 72 73 78 80 84 85 84 84 83 83 84 82 77 77 80 73 74 73 74 73 79 81 83 82 82 81 81 81
74 74 73 72 72 73 75 73 73 74 74 73 72 71 71 72 72 73 74 75 75 80 75 75 74 75 77 76 79 75 73 74 72 74 76 80 81 82 82 82 81 81 80
72 74 73 73 72 72 72 72 72 73 73 72 71 71 69 70 71 72 71 73 73 73 73 73 72 75 75 76 75 75 76 75 73 73 75 80 81 82 82 81 81 81 81
72 74 74 73 72 72 71 71 72 73 73 73 70 70 69 70 71 73 73 73 73 73 72 72 71 74 74 74 75 76 75 74 74 73 73 81 81 82 82 82 81 81 81
75 74 75 74 74 72 71 70 71 72 73 73 72 72 71 71 72 72 72 72 72 72 72 71 71 72 73 73 74 76 74 75 73 73 73 75 80 81 81 81 81 81 81
76 76 74 75 75 72 72 71 72 73 75 73 74 73 73 72 73 73 72 72 72 72 73 71 72 71 72 74 75 74 74 73 73 73 73 72 76 80 80 81 81 81 81
77 76 76 80 77 74 72 72 73 74 74 75 74 74 74 74 74 73 72 72 72 73 72 72 71 71 70 71 72 72 72 73 73 74 74 73 73 77 80 80 80 80 81
78 77 76 77 76 74 73 73 74 75 73 74 74 74 74 75 75 73 73 73 73 72 71 74 73 71 75 72 72 71 70 71 72 76 73 73 73 73 73 78 79 79 81
79 78 78 78 76 75 74 72 72 73 73 73 73 74 75 75 76 73 72 73 73 72 71 72 73 71 71 72 76 73 70 72 73 72 73 75 72 73 72 73 73 74 79
79 78 78 77 76 75 71 71 70 71 71 72 73 76 75 75 76 74 72 73 73 71 73 73 71 71 69 68 69 69 69 70 71 71 71 72 72 72 71 72 71 71 73
78 79 78 78 77 76 78 77 72 71 71 73 74 75 75 76 75 75 73 73 73 72 72 72 71 69 68 68 67 64 64 68 68 70 69 73 71 72 72 73 72 71 71
77 78 78 78 78 78 78 72 70 71 71 71 71 72 74 76 76 75 74 73 73 72 71 71 71 70 68 68 68 68 62 62 63 68 69 69 71 69 70 71 72 72 71
78 78 79 79 79 78 76 76 73 75 74 71 70 72 73 75 76 76 75 74 73 71 70 71 72 70 68 68 68 71 67 66 64 63 67 68 69 70 69 69 71 72 71
82 78 78 78 78 79 76 79 76 73 72 69 70 72 72 73 75 76 75 74 73 72 72 72 71 71 68 68 68 67 67 66 64 63 62 65 67 68 68 69 70 70 71
83 80 78 77 77 78 76 77 76 75 69 69 69 69 70 71 74 74 75 73 73 73 72 72 72 71 69 68 67 68 68 67 65 64 62 62 64 68 68 68 69 70 70

GFSSE_sfc_temp_048.txt.gz
Temp
71 73 81 83 83 83 83 83 83 82 82 82 82 83 83 83 82 82 82 82 83 83 84 83 83 83 83 83 83 83 83 83 83 83 83 82 83 82 82 83 83 83 82
73 75 82 82 83 83 83 82 82 82 82 82 82 82 82 83 82 83 83 83 83 83 84 83 83 83 83 84 83 83 83 83 83 83 83 83 83 83 83 83 82 83 82
73 76 80 82 83 82 82 82 82 83 82 82 82 83 83 83 82 83 83 83 83 83 83 83 83 83 84 83 83 83 83 82 83 82 82 81 82 83 83 83 83 82 82
75 75 79 81 82 83 82 83 83 83 83 83 82 82 83 82 83 84 83 83 83 83 84 84 83 84 83 83 83 83 83 83 82 81 79 81 84 83 83 82 82 82 82
74 75 79 82 82 83 82 83 83 82 83 83 83 83 83 83 83 84 84 83 82 83 83 83 84 83 83 83 82 82 83 82 82 79 78 79 80 83 82 82 82 82 81
75 76 81 82 83 83 82 82 83 83 82 82 83 83 83 84 84 84 84 83 84 84 84 83 83 83 83 82 82 83 83 83 80 77 78 80 81 83 82 82 82 82 81
73 76 80 82 83 83 82 83 83 83 82 83 82 84 84 84 84 84 84 84 84 84 83 84 83 83 83 83 82 83 82 82 77 76 77 78 81 82 82 82 81 81 81
75 76 78 82 83 83 83 83 83 83 83 83 83 84 84 84 84 84 84 84 84 84 84 84 84 83 83 83 83 82 82 81 79 77 78 79 80 82 82 82 81 81 81
76 76 76 77 81 83 83 83 83 83 83 83 83 84 84 84 84 84 84 84 84 84 84 85 84 84 83 83 83 83 82 80 76 77 79 79 80 82 82 82 82 81 81
74 75 74 75 76 77 78 83 84 83 83 83 83 84 84 84 84 84 81 83 84 84 85 85 84 84 83 83 83 82 82 80 78 78 78 80 81 83 82 82 81 81 81
73 73 73 73 74 75 76 80 83 84 83 83 83 81 78 75 77 80 82 84 84 84 85 84 84 84 84 84 83 82 80 76 77 78 78 79 81 83 82 82 81 81 81
73 73 72 73 73 74 79 76 76 79 77 76 75 74 73 74 76 79 81 84 84 83 84 84 84 84 82 78 79 81 76 77 76 78 79 80 81 82 82 81 81 81 81
76 76 72 72 73 73 75 74 74 75 75 74 74 73 73 73 74 75 76 76 76 79 77 76 76 79 79 79 79 78 76 77 77 78 79 80 82 83 83 81 81 81 81
75 76 72 73 72 73 73 73 74 74 74 74 72 72 71 72 73 74 74 75 75 75 75 75 75 77 77 78 79 78 76 78 77 78 79 80 81 82 82 81 81 81 80
73 73 72 72 72 72 72 73 73 73 74 74 72 72 72 72 73 75 74 73 75 75 73 74 75 77 76 77 78 78 78 75 77 78 78 81 80 81 82 81 81 81 81
72 72 73 73 72 71 71 72 72 73 74 74 73 73 72 72 73 74 73 74 73 75 75 74 75 75 75 76 76 78 77 77 77 77 78 79 80 81 81 82 81 81 81
73 73 72 72 72 71 71 71 72 73 75 74 75 74 74 73 73 75 74 74 74 75 75 75 75 75 75 76 76 76 76 76 77 77 77 76 80 81 81 81 81 81 81
74 72 73 78 74 71 70 71 72 73 74 74 75 74 74 75 73 75 75 75 75 75 74 74 74 75 74 75 75 75 75 76 76 77 77 78 77 79 80 80 79 80 81
75 73 72 74 72 71 71 71 72 73 73 74 75 75 75 75 76 75 75 75 76 75 74 74 74 75 75 75 75 74 74 75 76 79 77 77 78 79 78 78 79 79 81
75 74 73 73 72 71 71 71 72 73 73 73 74 75 75 75 76 75 74 75 75 75 75 75 74 73 74 73 78 74 74 75 76 76 76 78 77 78 78 78 78 79 79
76 74 73 73 71 71 69 70 70 71 72 73 74 75 75 76 76 74 74 74 75 74 76 76 74 73 72 72 72 72 72 73 75 76 77 77 77 78 77 78 78 78 79
75 74 73 73 71 73 74 72 72 71 72 74 74 75 76 76 76 75 74 74 75 74 73 75 75 73 71 72 70 70 68 72 73 75 76 77 76 77 78 77 77 76 77
75 74 73 73 73 74 73 71 71 72 72 73 73 74 75 76 77 76 75 75 74 73 72 74 74 74 71 72 72 70 67 68 68 72 74 75 75 76 76 76 77 77 76
76 76 75 74 73 75 74 73 72 72 72 71 72 73 74 76 76 76 76 75 75 73 73 74 75 74 71 71 72 73 71 70 69 70 73 73 74 75 76 76 77 78 77
78 77 76 74 74 75 74 74 74 73 72 71 72 73 73 74 76 77 76 75 75 75 74 74 74 73 72 71 72 72 71 70 69 69 69 72 73 74 75 75 77 77 77
81 77 76 73 73 74 74 74 73 73 70 70 70 71 72 73 74 76 76 75 75 75 75 74 75 74 72 71 71 72 72 72 71 70 69 69 71 74 74 74 75 76 77

GFSSE_sfc_temp_051.txt.gz
Temp
79 83 82 83 83 83 83 83 83 83 83 83 83 83 83 83 83 83 83 83 83 83 83 83 83 83 83 83 83 84 83 82 83 83 83 83 83 83 83 83 84 89 82
84 85 81 83 83 83 83 83 83 83 83 83 83 83 83 83 83 83 83 83 83 83 83 83 83 83 84 83 83 83 83 83 83 83 83 83 83 83 83 83 85 86 83
84 87 85 82 83 83 83 83 83 83 83 83 83 83 83 83 83 83 83 83 83 84 83 83 83 84 83 83 83 83 83 83 83 83 84 89 88 83 83 83 83 83 82
87 89 87 81 82 83 83 83 83 83 83 83 83 83 83 83 83 83 83 84 83 83 84 84 84 84 84 84 84 83 83 83 82 82 89 89 90 83 83 83 82 82 82
86 88 86 82 82 83 83 83 83 83 83 83 83 83 83 83 83 83 83 84 84 83 84 84 83 83 83 83 83 83 83 82 82 86 88 86 88 84 83 82 82 82 83
86 89 84 83 83 83 83 83 83 83 83 83 83 83 83 83 84 84 83 84 84 84 83 84 84 83 83 83 83 83 83 81 83 87 88 86 88 83 83 83 82 82 82
87 88 88 83 83 82 83 83 83 83 83 83 83 83 84 84 85 84 84 84 84 84 84 84 84 83 83 84 84 83 82 82 86 86 87 86 87 81 83 82 82 81 82
87 89 88 83 83 82 83 83 83 83 83 83 83 84 84 84 84 84 84 84 84 84 84 84 84 84 84 83 83 82 82 83 87 86 87 88 82 82 83 82 82 82 81
88 87 87 88 85 83 83 83 83 83 83 83 83 83 84 84 84 84 84 84 84 84 85 85 84 84 83 84 83 83 81 81 87 87 88 89 81 82 83 82 82 81 81
87 87 85 85 88 87 87 83 83 83 83 83 84 84 84 84 84 84 83 83 85 85 85 85 84 84 84 83 83 82 81 82 88 87 88 88 81 82 82 82 81 81 81
84 85 87 87 86 85 86 85 84 84 84 84 84 82 83 88 88 88 84 84 84 84 85 85 84 84 84 84 83 83 83 89 89 89 90 80 82 84 82 82 81 81 81
82 84 86 85 85 85 88 86 86 88 89 88 87 84 86 86 86 87 85 85 84 84 84 84 85 84 87 91 89 83 90 88 89 89 90 80 82 83 82 81 81 81 81
83 83 84 84 83 85 85 86 87 87 86 85 83 83 83 85 86 88 89 88 88 84 90 88 88 92 89 91 90 90 88 87 90 90 85 81 82 83 83 82 81 81 81
81 82 83 84 82 84 85 86 86 86 86 86 85 82 83 86 86 85 88 87 86 89 86 87 90 87 87 88 90 88 87 90 90 90 86 81 82 83 83 82 81 81 81
81 81 83 83 81 82 82 84 85 85 86 87 85 83 85 85 85 87 86 87 87 88 88 87 87 88 86 87 89 88 87 87 88 91 90 81 81 82 82 81 81 81 81
81 81 83 82 82 82 82 81 83 85 86 86 86 86 82 85 84 86 85 86 86 88 88 88 87 87 88 89 86 87 87 87 86 87 90 88 81 81 82 82 81 81 81
82 82 82 82 83 81 81 82 83 85 87 86 87 83 83 84 83 84 86 86 87 85 85 86 85 86 88 89 86 87 88 87 88 86 88 88 88 80 81 81 81 81 81
82 80 82 85 83 82 82 82 84 85 86 87 87 87 84 84 83 84 85 87 86 86 87 87 88 87 88 86 86 87 87 88 86 86 89 89 89 91 82 80 80 80 81
82 81 81 82 82 82 81 83 84 84 85 86 87 87 85 84 84 85 84 85 85 87 86 88 87 88 87 88 87 86 87 87 87 90 87 87 88 88 91 82 80 80 81
83 82 81 82 81 80 81 81 84 85 85 86 86 87 85 85 85 85 83 85 86 85 85 87 84 79 87 87 89 86 87 88 89 89 89 90 89 88 90 86 88 89 79
83 81 80 80 80 80 80 81 82 83 84 85 86 85 84 85 85 84 87 86 86 83 84 85 84 82 83 84 85 84 77 80 87 88 90 91 88 89 89 89 89 90 89
82 81 79 79 79 79 82 82 84 84 85 87 86 85 86 85 85 85 83 85 83 84 83 84 83 84 84 84 85 84 81 83 87 88 88 88 88 91 91 88 88 86 87
82 80 80 79 80 80 81 82 81 82 83 84 84 85 86 85 86 85 84 85 83 83 86 84 84 83 84 84 82 85 80 81 84 85 84 88 86 88 89 88 87 87 86
83 82 81 80 80 81 80 81 80 83 82 85 86 87 86 85 86 86 85 84 83 85 82 85 85 85 83 84 84 85 83 83 83 81 85 86 86 87 88 89 90 88 86
84 83 82 80 79 81 80 81 82 81 85 85 86 83 84 84 85 86 85 84 83 85 81 82 82 82 85 86 85 84 82 85 82 84 83 85 86 88 89 88 90 90 88
85 84 83 79 79 80 80 80 80 81 82 82 83 84 86 87 87 85 85 84 84 85 83 84 83 83 82 83 85 85 86 85 85 84 83 83 83 88 89 89 88 89 90

GFSSE_sfc_temp_054.txt.gz
Temp
83 88 82 83 83 83 83 83 83 83 83 83 83 83 83 83 83 83 83 83 83 83 83 83 84 83 84 84 84 83 83 83 83 83 83 83 83 83 83 84 84 91 82
92 90 82 83 84 83 83 83 83 83 83 83 83 83 83 83 83 83 83 83 84 83 83 83 84 84 84 84 84 84 83 83 82 84 84 84 83 83 84 84 85 87 83
93 92 88 82 83 83 83 83 83 83 83 83 83 83 83 83 83 84 84 83 84 84 83 84 84 83 83 84 84 84 83 83 83 83 85 92 90 83 83 83 83 83 83
96 96 93 81 82 83 83 83 83 83 83 83 83 83 83 84 84 84 84 83 84 84 84 84 84 84 84 84 83 84 83 82 83 83 86 88 92 83 83 83 82 83 82
96 97 90 82 83 83 83 83 83 83 83 83 83 83 83 84 84 84 84 84 84 84 84 84 84 84 83 84 84 83 83 82 83 88 91 87 88 85 83 83 83 83 83
97 97 85 83 83 83 83 83 83 84 83 83 83 83 84 84 84 84 84 84 84 84 84 84 84 84 84 84 83 83 82 83 86 88 91 88 90 83 83 83 83 82 82
97 95 92 83 83 83 83 83 84 84 83 83 84 84 84 84 84 84 84 84 84 84 84 84 84 84 85 84 84 83 83 84 91 88 91 90 88 82 83 83 82 82 82
97 96 92 83 83 83 84 83 83 84 84 83 84 84 84 84 84 84 85 85 85 85 84 84 84 84 84 83 83 83 83 86 93 93 86 90 82 83 83 83 82 82 82
98 96 94 92 86 84 84 83 84 84 84 84 84 83 84 85 84 85 85 85 85 85 85 85 84 84 84 83 83 82 83 84 93 93 95 93 81 83 83 82 82 82 82
97 96 94 93 93 92 91 83 84 83 84 84 84 85 85 85 85 85 84 85 86 85 85 85 84 84 84 83 83 82 83 83 95 94 95 90 81 83 82 82 82 82 82
94 95 96 96 93 91 91 87 85 83 84 84 85 84 85 95 93 92 85 85 85 86 85 85 85 84 84 84 83 83 83 97 97 97 94 81 82 83 82 82 82 81 82
91 94 96 94 93 92 95 88 90 91 94 94 94 90 94 93 93 93 88 85 85 85 85 85 85 85 86 96 92 85 98 94 96 97 92 82 83 83 82 82 81 81 81
92 94 94 92 91 92 92 93 93 95 94 93 90 90 91 93 92 96 93 94 93 87 95 91 90 94 95 95 97 97 95 96 97 98 86 82 82 83 82 82 82 81 81
90 92 93 92 90 92 93 94 95 94 94 93 92 89 89 93 92 92 96 93 93 96 92 94 96 93 94 95 96 95 95 98 98 97 87 82 83 83 83 82 81 81 81
90 91 92 90 88 89 89 93 94 93 95 95 92 90 94 95 92 93 92 96 95 96 95 94 94 94 92 94 96 94 94 93 94 98 93 81 82 82 82 82 82 81 81
90 90 92 90 88 89 89 88 90 93 94 94 94 92 89 94 91 93 91 94 95 97 96 96 94 94 95 95 92 94 94 94 92 94 96 88 81 82 82 82 82 81 81
91 91 90 90 90 88 88 88 90 93 95 94 94 90 89 90 89 91 92 89 94 92 91 92 92 94 95 96 92 93 94 92 93 92 96 89 86 81 82 82 82 81 81
91 88 90 93 91 88 88 89 92 93 94 95 94 93 90 89 89 88 91 94 93 93 95 94 95 94 94 95 93 94 93 94 92 92 94 92 93 91 83 81 81 81 81
90 88 88 90 90 88 88 89 91 91 93 95 95 95 90 90 88 90 93 91 90 94 95 95 95 94 92 94 93 93 94 94 94 96 92 93 92 94 93 82 81 81 81
90 89 88 90 88 87 88 88 91 92 93 94 94 95 90 92 89 90 92 88 91 94 93 95 91 94 94 95 96 93 94 95 96 95 94 96 93 94 97 92 92 84 81
90 88 87 86 86 87 87 87 89 90 91 92 94 92 91 91 90 89 91 89 91 92 92 90 90 86 92 92 91 91 91 92 93 96 99 99 93 96 95 96 94 96 89
89 88 86 86 85 85 88 88 91 91 93 94 94 92 92 92 90 91 89 89 89 91 88 88 88 91 92 92 88 91 85 89 94 97 97 97 95 99 97 94 94 92 92
88 87 86 85 85 85 88 89 88 90 91 90 91 92 92 92 91 90 89 88 89 91 90 88 88 88 89 90 89 89 85 85 90 93 91 95 93 95 97 94 94 93 92
89 89 87 86 85 86 86 87 85 88 88 92 93 95 94 92 92 92 90 89 88 93 88 89 91 91 89 88 90 92 89 87 83 84 92 94 94 93 93 95 96 94 92
91 90 89 86 85 86 85 86 87 86 92 94 94 91 90 90 91 92 90 90 88 88 88 88 87 87 91 92 91 91 89 92 90 88 87 89 93 95 96 95 97 97 94
92 91 90 86 83 85 85 84 85 86 89 91 90 91 92 94 93 90 91 90 89 90 88 88 88 87 88 89 92 92 92 90 91 90 89 88 89 94 97 97 96 96 97

GFSSE_sfc_temp_057.txt.gz
Temp
84 89 82 82 83 83 84 83 83 83 83 83 83 82 83 83 83 83 83 83 83 83 84 84 84 84 84 84 84 84 83 83 84 84 84 84 83 83 84 85 86 89 83
91 91 82 83 84 84 83 83 83 83 83 83 83 84 84 83 83 84 83 84 83 84 84 84 84 84 84 84 84 84 83 82 84 84 84 84 84 84 83 84 85 86 83
95 92 88 82 84 84 83 83 83 83 83 83 84 84 84 83 84 84 83 84 84 83 84 84 83 84 84 84 84 83 84 83 83 84 85 89 88 83 84 84 83 83 82
97 97 93 82 83 83 83 83 83 84 83 83 84 84 84 84 84 84 84 83 84 84 84 84 84 84 84 83 84 83 83 83 83 85 88 87 91 83 83 83 82 83 82
98 97 88 82 83 83 83 83 83 84 84 83 84 84 84 84 84 84 84 84 84 84 84 84 84 84 84 84 83 83 83 83 84 86 90 86 89 85 83 82 82 83 83
100 97 85 83 84 83 83 84 83 83 84 84 84 84 84 84 84 84 84 84 84 84 84 84 84 84 84 84 83 83 83 84 87 88 90 87 88 83 83 83 83 82 82
100 95 91 83 83 84 84 84 84 84 84 83 84 84 84 84 84 84 85 85 84 84 84 84 84 85 84 84 83 83 83 86 87 85 85 89 87 82 83 83 82 82 82
99 97 91 84 83 83 84 84 84 84 84 84 84 84 84 84 84 85 85 85 85 85 84 84 84 84 83 83 83 83 83 86 87 85 89 88 82 82 83 82 82 82 82
101 96 93 91 87 84 83 84 84 84 84 84 84 84 84 84 85 85 85 85 85 85 85 85 84 84 84 83 83 83 83 85 88 89 92 90 81 82 82 83 82 82 81
99 98 95 93 93 91 90 84 84 84 84 84 84 84 85 85 85 85 84 85 86 85 85 84 84 84 84 83 83 83 84 86 97 95 92 87 81 82 83 82 82 82 82
96 98 99 98 94 91 90 86 85 84 84 84 85 85 85 94 91 91 85 86 86 86 85 85 84 84 84 83 83 84 84 97 100 96 91 81 82 83 83 82 82 82 82
95 98 99 97 96 95 96 89 90 91 93 94 93 90 82 88 90 93 88 85 85 86 85 85 85 85 85 93 92 86 92 97 98 94 89 82 83 83 83 82 82 82 82
97 99 99 96 94 96 91 95 95 89 86 95 92 91 93 94 93 93 92 91 91 86 93 90 89 88 83 91 94 96 97 97 99 94 85 82 83 83 83 82 82 82 82
95 97 98 96 93 95 95 91 89 82 94 96 94 93 91 87 87 86 81 91 84 90 93 82 76 86 89 78 95 93 96 98 99 93 85 82 83 83 83 82 82 82 82
95 95 96 94 91 93 88 85 93 96 98 98 93 93 94 84 84 86 92 79 82 85 97 83 92 91 94 94 88 89 95 95 97 95 89 82 82 83 82 82 82 82 82
94 94 95 93 92 93 88 90 90 95 93 97 97 94 93 86 86 84 94 83 88 85 87 88 89 90 91 93 93 89 87 92 93 88 91 87 82 82 83 83 82 82 82
95 95 93 92 93 91 90 92 90 85 97 88 97 92 93 91 92 84 92 82 84 91 93 93 94 96 96 93 87 90 93 90 94 92 85 90 87 82 82 82 82 82 82
95 92 92 96 93 91 91 90 92 87 93 86 96 94 92 91 91 90 88 85 95 93 88 79 92 89 95 91 83 87 87 92 93 93 85 85 85 92 83 82 82 82 82
94 91 91 93 91 90 90 92 93 93 88 88 87 88 91 92 91 92 92 90 89 93 84 93 89 89 93 91 85 91 90 92 88 95 93 92 91 84 85 81 81 81 82
94 92 91 93 91 89 90 90 94 93 90 87 86 85 91 88 91 91 85 92 92 89 94 85 92 86 88 84 95 92 90 94 96 94 94 97 94 94 87 86 84 83 81
94 91 90 89 89 89 89 89 91 91 91 88 93 93 92 92 91 90 83 90 91 87 75 91 92 89 93 92 92 91 92 94 93 96 98 97 94 96 96 95 93 91 87
92 90 88 88 88 88 90 90 93 93 95 96 97 93 93 93 91 91 83 91 90 91 90 90 90 80 91 90 80 88 83 88 95 97 97 97 95 98 96 94 93 91 92
91 90 88 87 87 87 89 90 91 93 94 93 91 93 93 93 93 93 90 86 90 88 91 88 89 88 82 92 90 85 83 72 88 94 92 96 93 94 96 94 94 93 91
92 92 90 88 87 87 88 88 86 89 89 93 94 95 94 93 93 93 91 90 89 84 87 89 89 85 84 89 92 93 88 88 78 76 93 94 94 94 94 95 95 94 93
94 93 91 88 86 87 86 87 89 87 92 95 96 91 93 91 93 94 91 90 89 90 89 84 88 88 92 85 92 91 90 92 90 80 84 89 94 96 97 94 97 98 94
95 94 92 87 85 86 86 85 87 85 88 93 92 92 93 94 93 92 93 88 90 90 89 90 89 88 86 91 91 93 91 88 84 90 89 87 89 93 97 98 96 97 98

GFSSE_sfc_temp_060.txt.gz
Temp
82 84 82 83 83 82 83 83 83 83 83 83 83 83 83 83 83 83 83 83 83 83 83 83 84 84 84 84 84 83 83 83 83 83 83 83 83 83 84 84 85 84 83
87 86 82 83 83 83 83 83 83 83 82 83 83 83 83 83 83 82 83 83 83 83 84 84 83 84 84 84 84 83 83 83 83 84 84 84 84 83 83 84 84 83 83
89 86 85 82 82 83 83 83 83 83 83 83 83 83 83 84 83 83 84 83 83 84 84 83 84 84 84 84 84 83 83 83 83 85 86 83 83 84 83 83 83 83 82
91 89 86 82 83 83 83 83 83 83 83 83 83 83 84 84 84 84 83 84 83 84 84 84 84 84 84 84 83 83 83 84 84 85 84 86 86 83 83 83 83 82 82
92 91 85 82 83 83 83 83 83 83 83 83 83 84 83 84 84 84 84 84 84 84 84 84 84 84 84 83 83 83 83 83 85 87 85 80 82 83 83 82 83 83 82
93 89 83 83 83 83 83 83 83 83 83 83 83 84 84 84 84 84 84 84 84 84 84 84 84 84 84 83 83 83 84 85 85 84 84 83 79 83 83 83 83 82 81
91 88 86 83 83 83 83 83 83 83 83 83 84 84 84 84 84 84 84 84 84 84 84 84 84 84 84 83 83 83 84 87 84 82 83 82 81 82 83 82 82 82 82
91 90 86 83 83 83 83 83 83 84 83 83 84 84 84 84 84 84 84 85 85 84 85 84 84 84 84 83 83 83 84 86 87 83 82 81 80 82 83 82 82 82 82
94 90 87 86 84 84 83 84 84 84 84 84 84 84 84 84 85 85 85 85 85 84 85 85 84 83 83 83 83 83 84 85 85 82 85 81 81 82 83 82 82 82 82
93 92 89 87 87 85 86 84 84 84 84 84 84 84 84 85 85 85 84 85 85 85 85 85 84 83 83 83 83 83 84 84 86 85 82 81 81 83 83 82 82 82 82
92 93 92 91 87 85 85 85 84 84 84 84 84 85 83 86 86 87 85 85 85 85 85 85 85 84 83 84 84 84 85 83 89 84 82 80 82 83 83 82 82 82 82
91 94 95 91 89 88 91 84 84 86 86 87 87 81 84 84 87 88 85 85 85 85 85 85 85 84 83 82 83 84 83 89 86 83 81 81 82 83 83 82 82 82 82
94 94 94 90 88 91 85 87 87 87 87 87 85 81 82 86 84 77 84 85 83 85 85 85 84 81 79 80 83 88 87 88 86 84 81 81 82 83 83 82 82 82 82
93 91 94 92 89 87 89 88 79 82 87 89 87 83 87 84 79 73 78 82 76 83 80 78 78 79 74 76 88 87 88 89 85 82 81 81 82 83 83 82 82 82 82
93 92 92 90 84 82 83 85 84 82 86 89 88 89 78 82 76 76 76 76 78 82 80 78 80 82 77 84 82 85 88 88 86 84 80 82 82 82 82 82 82 82 82
92 92 91 90 87 84 83 82 79 88 87 90 89 86 76 79 78 81 79 78 73 78 82 83 82 83 82 84 82 84 84 86 85 83 82 80 82 82 82 82 82 82 82
93 92 89 89 90 88 85 88 87 91 93 91 88 87 90 81 81 81 77 83 84 79 84 83 86 85 82 85 82 82 86 86 84 83 83 82 81 82 82 82 82 82 82
92 88 88 94 91 88 83 89 83 89 87 87 89 87 89 89 84 77 76 74 82 84 82 80 82 83 82 81 80 78 80 86 83 84 84 84 82 84 82 82 81 81 82
91 87 87 89 88 87 84 87 80 85 86 85 88 88 88 88 89 76 74 75 84 78 83 82 83 83 81 82 81 79 82 83 84 88 84 84 84 81 81 81 80 81 82
91 88 87 89 86 85 86 86 83 86 84 87 86 84 88 88 89 84 82 86 86 79 81 85 81 84 81 80 89 85 82 84 83 84 86 87 84 83 84 80 78 80 80
90 87 86 86 83 84 84 84 80 85 79 84 83 80 86 87 88 85 83 85 82 76 80 82 84 82 81 83 79 80 81 86 86 84 85 85 87 86 84 82 80 82 80
89 86 85 85 83 83 85 83 86 81 80 76 85 83 88 86 87 87 85 86 80 77 81 81 74 77 82 82 78 76 74 77 82 86 85 87 87 87 87 87 83 83 81
87 85 84 84 82 83 85 84 85 86 84 82 85 86 88 89 86 86 85 86 84 82 82 82 78 80 78 79 83 78 73 70 75 81 84 83 84 83 84 85 85 83 83
88 87 84 84 83 83 84 83 83 83 82 85 82 84 87 88 88 87 87 87 85 77 83 83 84 81 77 78 81 85 81 80 73 72 80 82 84 87 85 83 85 84 83
90 88 86 83 83 83 82 83 84 83 86 85 87 83 84 85 88 89 86 86 83 82 82 83 83 83 80 78 79 80 81 80 79 76 73 77 81 83 83 83 85 83 83
92 89 87 82 81 82 82 82 82 81 83 85 84 85 85 86 87 87 86 85 85 83 83 83 84 84 82 81 80 80 80 78 79 77 76 78 78 81 83 83 84 84 83

GFSSE_sfc_temp_063.txt.gz
Temp
75 78 82 82 82 83 83 83 83 83 82 82 83 83 83 83 83 82 83 83 83 83 83 84 84 84 84 84 84 83 83 83 83 83 84 83 83 83 83 83 83 83 82
79 80 81 82 83 83 82 82 82 82 82 83 83 83 83 83 83 83 83 83 83 84 84 84 83 84 84 84 83 84 83 83 83 84 84 84 84 83 83 83 83 82 82
80 80 82 82 82 82 82 82 82 83 83 83 83 83 83 83 83 83 83 83 84 84 84 84 84 84 84 84 84 83 83 83 83 84 84 81 82 84 83 83 83 82 82
80 80 81 81 82 83 82 83 83 83 83 83 83 83 83 83 83 84 84 83 84 84 84 84 84 84 84 84 83 83 84 84 84 85 81 81 84 83 83 83 82 82 81
82 81 81 82 82 83 83 83 83 83 83 83 83 83 83 84 84 84 84 84 84 84 84 84 84 84 84 83 84 84 84 84 85 83 80 76 78 83 82 83 82 82 82
80 80 82 83 83 83 83 83 83 83 83 83 83 83 84 84 84 84 84 84 84 84 84 84 84 84 84 83 84 83 84 84 85 81 79 79 77 83 83 83 82 82 81
78 80 81 83 83 83 83 83 83 83 83 83 83 84 84 84 83 84 84 84 84 84 84 84 84 84 84 84 83 83 84 85 81 78 78 77 79 82 83 82 82 82 81
80 80 81 83 83 83 83 83 83 83 83 83 84 84 84 84 84 84 84 84 84 85 84 84 84 84 84 83 83 83 84 86 82 78 78 77 80 82 82 82 82 82 82
82 80 79 80 82 83 83 83 83 83 83 83 84 84 84 84 84 84 84 84 84 85 84 84 84 83 83 83 84 83 84 84 79 78 80 77 80 83 82 82 82 82 81
81 80 79 78 78 78 80 84 84 84 84 84 84 84 84 85 85 85 83 84 85 85 85 84 83 83 83 83 83 84 85 84 80 79 78 78 80 83 82 82 82 81 81
82 81 80 80 78 77 78 82 83 84 84 84 83 84 81 78 79 82 83 84 85 84 84 84 84 83 83 83 84 84 85 80 80 78 77 79 81 83 83 82 81 81 81
80 80 82 80 80 80 84 78 77 80 78 77 78 78 76 77 77 81 82 85 85 85 84 84 84 82 81 76 77 80 79 82 80 77 77 80 82 83 82 82 81 81 81
83 84 82 82 81 80 80 77 77 77 77 77 77 78 76 78 75 75 76 78 77 82 80 82 79 74 75 74 76 79 80 81 78 78 79 80 82 83 82 82 81 81 81
84 84 84 82 83 80 80 79 76 77 77 77 77 76 74 74 73 71 73 76 74 76 75 73 75 75 77 74 75 81 83 81 77 76 78 80 81 82 82 82 82 81 81
86 85 83 81 79 81 78 77 77 76 78 79 77 76 73 73 71 73 74 73 74 75 75 74 74 75 72 76 80 84 83 80 78 77 73 81 81 82 82 82 82 81 81
86 84 80 79 78 78 76 77 77 78 79 81 77 78 76 73 72 73 74 75 72 73 76 73 75 77 76 78 81 82 81 81 79 76 75 76 81 81 81 82 82 81 81
85 85 80 78 82 77 79 78 76 82 85 77 79 76 75 75 74 75 74 73 73 75 79 76 80 77 77 79 77 79 80 80 80 80 77 75 77 81 81 82 81 81 82
84 82 84 87 81 79 79 78 77 79 79 82 80 79 80 78 76 74 73 74 76 76 79 78 79 78 78 76 76 77 79 79 80 80 77 78 76 79 80 81 81 81 81
83 82 80 81 79 79 78 78 77 80 78 77 79 79 80 81 77 73 72 73 76 73 75 80 76 80 74 74 78 77 76 79 81 82 79 78 76 77 75 79 80 80 81
83 82 78 82 78 78 77 78 78 81 78 78 78 79 80 80 79 75 73 73 75 75 78 77 76 77 77 78 84 80 75 76 77 77 78 82 78 77 76 76 75 76 80
82 81 77 78 78 77 75 75 75 74 75 76 78 79 80 80 80 76 76 77 75 75 73 76 75 75 77 78 74 76 76 78 80 77 78 78 78 79 77 75 74 74 76
81 81 77 79 78 77 76 76 76 76 76 75 77 77 80 81 80 79 76 76 78 74 75 75 74 72 74 76 73 71 71 73 77 78 77 80 78 80 79 78 76 76 75
80 79 78 79 78 78 77 76 75 76 75 74 75 77 78 80 80 79 78 76 75 75 74 75 78 75 71 73 75 77 70 68 70 75 75 77 77 76 77 79 79 78 76
81 82 79 79 78 77 78 75 75 77 74 76 78 78 79 80 80 81 80 78 75 73 75 76 77 75 73 71 73 78 75 73 73 68 73 76 77 79 77 76 78 79 78
83 82 80 78 79 80 78 77 75 75 79 76 81 81 77 77 80 81 80 79 77 75 75 76 76 77 74 73 72 72 74 72 76 70 67 71 74 75 77 77 77 77 79
83 82 81 77 78 78 77 75 75 75 75 80 80 76 80 76 78 79 80 78 77 76 76 76 77 77 75 75 74 73 72 71 72 72 68 69 71 75 76 77 77 78 78

GFSSE_sfc_temp_066.txt.gz
Temp
73 77 81 82 83 83 83 83 83 82 82 82 82 83 82 82 82 82 83 83 83 83 83 83 83 84 84 84 83 83 83 83 83 83 84 83 82 82 83 83 82 82 82
76 79 82 82 83 83 83 82 82 82 82 82 82 83 83 83 82 83 82 83 83 83 83 83 83 83 84 84 84 83 83 83 83 84 84 84 83 83 83 83 82 82 82
77 79 81 82 83 82 82 82 82 83 83 82 83 83 83 83 83 83 83 83 83 84 84 84 84 84 84 84 84 84 84 83 83 84 83 79 81 84 83 83 82 82 82
78 79 80 81 82 82 82 82 83 83 83 83 83 83 83 83 84 83 83 84 83 83 83 84 84 84 84 84 84 84 84 84 84 83 78 79 83 83 83 82 82 82 81
78 79 80 82 82 83 82 83 83 83 83 83 83 83 83 83 84 84 84 84 83 83 84 84 84 84 83 83 83 84 83 83 83 80 77 75 77 82 82 82 82 82 81
78 78 82 83 83 83 83 83 83 83 83 83 83 83 83 84 84 84 84 84 84 84 84 84 84 83 84 84 84 84 84 83 81 78 77 78 76 83 83 82 82 82 81
76 79 81 82 83 83 83 83 83 83 83 83 83 84 84 84 84 84 84 84 84 84 84 84 84 84 84 82 82 84 84 83 77 75 75 76 78 82 83 82 82 81 81
77 78 80 82 83 83 83 83 83 83 83 83 83 84 83 83 84 84 84 84 84 84 84 84 84 84 83 83 84 84 83 83 79 76 75 76 80 82 82 82 82 81 81
79 78 77 80 82 83 83 83 83 83 83 83 83 83 84 84 84 84 84 84 84 84 84 84 83 83 83 83 84 84 83 81 75 75 79 76 81 82 82 82 81 81 81
77 77 75 76 76 76 80 83 84 83 83 83 84 84 84 84 84 84 83 84 84 84 84 84 83 83 83 83 83 84 84 82 76 76 75 76 80 82 82 82 81 81 81
77 75 75 75 74 75 77 82 83 84 84 83 83 84 81 76 78 80 82 84 84 84 84 84 83 83 82 84 84 84 82 76 76 75 75 79 81 83 82 82 81 81 81
73 75 76 75 74 76 83 76 75 79 76 75 76 76 74 74 75 79 82 84 84 84 84 84 83 82 79 75 77 79 77 77 75 75 74 80 82 83 82 81 81 81 80
76 77 77 76 76 76 77 74 74 75 75 75 75 74 74 75 74 74 75 76 75 81 78 79 78 75 75 74 75 75 76 78 75 75 77 80 82 82 82 81 81 81 81
76 78 78 78 76 75 76 75 74 74 74 74 74 74 73 72 71 72 72 73 73 74 74 73 73 75 75 75 76 76 78 78 73 74 76 80 81 82 82 81 81 81 80
78 78 78 78 77 75 75 74 74 73 75 75 74 74 74 71 70 72 72 72 73 74 73 73 72 74 73 76 77 79 80 76 75 74 73 81 80 81 82 82 81 81 81
80 79 79 78 77 75 73 73 73 75 76 76 73 75 73 72 71 72 72 73 72 72 72 72 73 74 73 74 76 75 75 76 75 74 73 75 80 81 81 81 81 81 81
81 78 78 77 77 76 73 75 75 76 78 75 75 75 74 73 73 73 71 71 72 72 74 72 74 74 73 76 75 75 76 75 76 75 74 73 76 81 81 81 81 81 81
80 77 80 84 78 76 76 75 78 78 77 75 75 75 75 74 73 73 72 72 73 74 73 73 75 73 73 74 76 74 74 75 75 75 74 74 74 76 79 81 80 80 81
80 78 77 78 77 76 76 75 78 77 76 77 75 76 76 75 75 71 71 71 74 72 73 76 74 76 72 72 74 73 73 74 75 79 75 75 73 75 73 78 79 79 81
81 80 79 78 76 76 75 74 74 74 75 76 76 76 77 76 76 73 71 73 73 73 74 74 73 74 73 73 80 77 73 74 74 74 75 78 74 75 74 74 74 75 79
81 78 78 76 74 75 73 72 71 73 73 74 75 77 76 77 76 74 74 74 73 72 72 75 73 75 75 74 72 72 72 75 74 74 75 74 75 76 74 74 72 73 74
79 77 77 78 74 75 74 73 74 73 73 74 76 76 78 78 77 76 74 74 75 72 73 73 72 71 72 73 71 68 66 71 72 75 73 75 74 76 76 76 74 73 72
79 76 77 77 76 75 75 74 73 73 73 73 73 74 76 78 78 76 76 74 73 72 72 73 73 72 70 71 71 75 65 65 66 71 72 73 75 72 75 75 76 75 73
80 78 78 77 76 75 75 73 73 72 70 72 73 75 75 78 78 78 77 75 73 72 73 73 76 72 71 69 71 75 71 70 66 66 71 72 73 74 73 73 75 75 75
81 79 77 77 76 77 76 76 75 72 73 73 74 75 74 75 77 78 77 76 73 73 73 74 74 73 72 71 69 70 70 69 69 67 66 70 72 72 73 74 74 74 75
81 80 77 76 76 77 75 73 74 73 73 72 73 73 73 74 75 76 77 76 74 73 74 74 74 74 72 72 71 71 73 72 70 68 65 66 68 73 73 74 73 74 75

GFSSE_sfc_temp_069.txt.gz
Temp
71 75 81 82 83 83 83 82 82 82 82 82 82 82 82 82 82 82 82 82 83 83 83 83 83 84 84 84 83 83 83 83 83 83 83 83 82 82 82 82 82 80 82
75 77 81 82 83 83 83 82 82 82 82 82 82 82 82 82 82 82 82 83 83 83 83 83 83 83 84 84 84 83 83 83 83 83 83 83 83 83 82 82 82 81 81
76 78 80 82 83 83 82 82 82 82 82 82 82 82 83 82 83 83 83 83 83 83 83 83 84 83 84 84 83 83 83 83 83 83 83 78 80 83 83 83 82 82 82
77 76 79 81 82 83 82 82 83 83 82 83 83 82 83 83 83 83 83 83 83 83 83 83 84 84 83 84 83 83 83 83 83 82 77 79 83 83 82 82 81 81 81
76 76 79 82 82 82 83 83 83 83 83 83 83 83 83 83 83 83 83 83 83 83 83 83 83 83 83 83 84 82 82 83 82 80 76 75 76 82 82 82 82 81 81
76 77 82 82 83 82 83 83 83 83 83 83 83 83 83 83 83 83 83 83 83 84 83 83 83 83 84 83 84 84 83 82 80 76 76 78 76 83 83 82 82 81 81
74 77 80 82 83 83 83 83 83 83 82 82 83 83 83 83 83 84 84 84 84 83 83 83 83 83 84 84 84 83 83 82 75 74 74 75 77 82 82 82 82 81 81
76 76 78 82 83 83 83 83 83 83 83 82 83 83 83 84 83 83 84 84 84 84 84 83 83 82 83 84 84 83 82 82 77 74 74 74 79 82 82 82 81 81 81
77 76 76 78 81 83 83 83 83 83 83 83 83 82 82 83 83 84 84 84 84 84 84 83 83 83 83 83 83 83 82 80 73 74 77 75 80 82 82 82 81 81 81
75 75 74 75 76 76 78 83 83 83 83 83 83 83 83 84 84 84 83 84 84 84 84 83 83 83 83 83 83 83 82 80 74 74 74 75 80 83 82 81 81 81 81
74 73 73 74 74 75 76 80 83 83 83 83 83 83 80 73 77 79 82 84 84 84 84 83 83 83 83 84 84 83 80 74 74 74 73 79 81 82 82 81 81 81 80
72 72 73 73 73 74 81 76 75 78 75 75 75 74 73 73 74 78 81 84 84 84 84 83 84 83 80 74 76 80 75 75 73 73 73 79 81 82 81 81 81 80 80
72 74 72 73 73 74 74 73 73 74 74 74 74 73 73 73 73 74 74 74 74 80 74 78 77 73 74 73 74 73 74 74 72 74 76 80 81 82 82 81 80 80 80
72 74 74 73 73 73 73 73 72 73 73 73 73 73 71 71 71 71 71 72 73 73 73 72 71 73 74 74 74 73 75 74 71 72 75 80 81 82 82 81 80 80 80
72 74 74 74 72 72 73 72 72 72 73 74 72 73 72 70 70 71 71 72 72 73 72 75 71 73 72 75 75 75 75 73 73 72 72 80 80 81 81 81 81 80 80
75 74 74 74 73 72 72 72 72 72 73 74 73 73 73 70 70 71 71 71 71 71 72 72 71 73 72 73 74 74 74 73 73 73 72 74 80 81 81 81 81 81 80
76 76 74 73 74 73 73 73 73 73 75 73 73 73 73 72 72 72 71 70 71 71 73 72 72 73 73 74 72 73 73 73 73 73 73 72 75 80 81 81 81 80 81
77 75 75 80 75 74 72 73 73 73 74 73 73 73 74 73 73 72 70 70 72 72 72 71 71 71 71 72 71 71 72 73 73 73 72 72 72 75 78 81 80 80 81
77 75 75 76 74 74 73 73 76 74 74 74 73 72 73 74 74 72 71 71 72 71 71 72 71 71 70 71 72 71 71 71 72 76 73 73 72 73 72 76 79 79 81
77 77 77 77 75 74 72 72 74 75 72 73 74 72 74 74 75 71 71 72 72 71 72 72 71 71 71 71 77 74 71 72 72 72 73 76 73 73 73 72 72 73 79
78 77 77 76 73 74 71 70 70 71 71 72 73 74 73 74 74 72 71 72 71 70 71 73 71 72 71 71 70 69 70 72 71 72 72 72 74 74 73 73 71 71 72
77 77 76 76 73 74 73 71 72 71 71 72 74 73 73 76 75 74 73 72 72 71 71 71 71 69 69 70 69 66 65 69 70 72 71 73 72 74 74 74 73 72 71
77 75 76 76 74 73 73 72 70 71 72 71 72 73 75 75 75 76 74 73 72 70 70 71 71 71 69 69 70 69 63 63 64 69 71 70 72 71 72 73 74 74 72
77 77 77 76 74 73 73 72 71 71 69 71 72 71 74 76 76 74 75 74 72 71 71 72 73 70 70 69 69 72 69 68 65 66 68 70 71 72 71 71 73 74 73
79 77 77 75 74 75 74 75 72 70 71 72 72 72 72 74 75 77 75 74 73 71 71 72 72 71 70 69 68 68 68 67 66 65 65 68 70 71 71 72 72 72 73
80 78 77 75 74 74 74 72 72 72 71 71 70 71 71 72 73 74 76 74 73 72 72 72 72 72 71 71 69 69 69 69 68 66 64 64 66 71 71 72 71 72 73

GFSSE_sfc_temp_072.txt.gz
Temp
70 75 81 82 83 83 83 82 82 82 82 82 82 82 82 82 82 82 82 83 83 83 83 84 84 84 84 84 84 84 83 83 82 83 83 83 82 82 82 81 81 83 82
74 76 81 82 83 83 82 82 82 82 82 82 82 82 82 82 82 82 82 82 83 83 83 84 84 84 84 85 83 83 83 83 83 84 84 83 83 83 82 82 81 82 82
75 76 80 82 83 83 82 82 82 82 83 82 82 83 83 82 82 83 83 83 83 83 83 83 83 84 84 84 83 83 82 82 83 83 83 80 82 83 83 83 82 82 81
76 76 78 81 82 83 82 82 83 82 83 82 82 83 83 83 83 83 83 83 83 83 84 84 84 84 84 83 83 83 83 83 83 81 80 80 83 82 82 81 81 81 81
75 76 78 82 82 83 83 83 83 83 83 82 83 83 83 83 83 83 83 83 83 83 83 83 83 84 84 83 83 82 83 83 82 80 78 77 80 82 82 82 82 81 81
75 76 81 82 83 83 83 83 83 83 83 82 83 83 83 83 83 84 83 83 83 82 83 83 84 82 83 84 84 83 83 82 80 78 79 80 79 83 82 82 82 81 81
73 76 80 82 83 83 83 83 83 83 83 82 83 83 83 83 84 83 84 83 82 83 84 83 83 83 84 84 83 83 82 81 77 77 78 78 81 82 82 82 82 81 81
75 76 78 82 83 83 83 83 82 82 82 82 82 83 83 83 83 83 84 84 84 84 84 83 83 83 84 84 83 82 82 81 78 77 77 78 80 81 82 81 82 81 81
76 76 76 78 81 83 83 82 83 83 82 82 83 82 82 83 83 84 83 84 84 84 84 83 83 83 83 83 83 82 81 80 77 77 79 79 80 82 82 82 81 81 81
74 75 75 76 76 77 78 83 83 83 83 82 82 83 83 83 83 83 82 84 84 84 84 83 83 83 83 83 82 82 81 80 78 78 78 80 80 82 82 81 81 81 81
74 73 74 74 74 75 77 80 82 83 83 83 82 83 76 75 78 79 83 84 84 84 83 83 83 83 84 84 83 83 80 77 78 78 79 79 81 82 82 81 81 80 80
73 72 73 73 74 75 80 76 76 79 76 76 76 75 74 75 76 79 82 84 84 84 84 84 84 83 79 78 77 81 78 77 77 77 79 79 81 82 81 81 81 80 80
75 75 72 73 74 75 74 74 74 75 75 75 74 74 74 75 75 76 76 76 76 79 77 79 77 76 77 76 77 77 77 77 77 78 79 79 81 82 81 81 80 80 80
74 74 72 73 73 73 74 74 74 74 74 74 74 74 73 73 73 73 74 74 74 75 75 75 74 76 76 76 77 77 77 77 77 78 78 80 81 81 81 81 80 80 80
73 72 72 73 72 73 73 72 73 74 74 75 74 74 73 72 72 73 74 74 74 75 75 74 74 76 75 77 77 77 77 77 77 77 77 80 80 81 81 81 81 80 80
71 71 72 72 72 72 72 72 72 74 75 75 73 74 74 72 72 73 74 74 74 74 74 75 74 75 75 76 76 77 77 77 77 76 78 78 80 80 81 81 81 81 80
72 72 72 72 72 72 72 72 73 74 76 75 74 74 74 73 73 73 73 73 74 74 75 75 74 76 76 77 75 76 77 77 77 77 77 78 79 80 80 81 81 80 81
73 72 72 78 73 72 72 73 73 74 74 74 74 74 75 74 74 74 73 73 74 75 75 75 74 75 75 76 75 75 76 76 77 77 77 77 77 79 78 80 80 80 81
74 73 72 74 72 72 72 73 73 74 74 74 74 73 74 75 75 73 72 74 75 74 74 75 74 74 74 75 76 75 76 76 76 79 77 77 77 78 78 77 78 79 81
75 74 74 75 72 72 72 72 73 73 73 73 74 73 74 75 75 73 73 74 75 74 74 75 74 74 75 75 79 77 75 76 76 76 77 79 77 78 78 77 77 78 78
74 73 73 73 71 72 71 70 71 71 72 73 74 75 75 75 75 73 73 74 74 74 74 75 75 75 74 74 74 74 75 76 76 76 77 77 78 79 79 78 77 78 78
74 74 72 73 71 73 74 72 73 72 73 73 73 75 75 75 74 74 73 74 74 74 74 74 74 73 73 74 72 70 70 73 75 77 76 77 77 79 79 79 78 77 77
74 74 73 73 72 73 72 72 71 72 72 73 73 74 75 76 76 75 75 74 73 73 73 74 74 74 73 72 74 73 70 69 69 74 76 76 76 76 77 78 79 79 78
75 76 75 74 72 73 72 72 72 71 71 72 73 73 76 76 76 76 75 74 74 73 74 74 76 74 74 73 73 75 73 73 71 71 74 75 76 77 77 77 79 79 79
77 76 76 74 72 73 73 73 73 71 72 72 73 73 74 75 77 76 76 75 74 74 74 75 75 74 74 73 74 73 72 72 71 71 70 73 76 77 77 77 79 79 79
78 77 76 73 72 73 73 72 72 72 71 71 72 73 73 74 75 76 77 76 75 74 74 75 76 76 75 74 74 74 74 74 73 72 70 71 71 76 77 78 77 78 79

GFSSE_sfc_temp_075.txt.gz
Temp
80 83 82 83 83 83 83 83 83 82 82 82 82 82 82 82 82 83 83 83 83 83 84 84 85 84 85 84 83 84 82 83 83 83 82 82 83 82 82 83 84 88 82
85 85 82 83 83 83 83 82 82 82 83 83 82 82 82 82 82 82 83 83 83 83 84 84 84 85 84 84 83 83 83 83 84 83 84 84 83 82 82 82 84 85 82
85 87 85 82 83 83 82 82 82 83 83 83 83 83 83 82 83 83 83 83 83 83 84 84 84 84 84 84 82 83 83 83 83 83 84 89 87 83 83 83 83 82 82
87 88 87 81 82 83 83 83 83 83 83 83 83 83 83 83 83 83 83 83 83 84 84 83 84 84 83 83 83 84 83 83 83 83 88 88 88 82 82 82 82 82 81
86 88 86 82 82 83 83 83 83 83 83 83 82 82 83 82 82 84 83 83 83 84 84 84 84 84 83 83 84 83 83 83 83 85 86 86 87 84 82 82 83 82 82
86 89 84 83 83 83 83 83 83 83 83 83 83 82 83 83 84 83 83 83 83 83 83 84 84 83 84 83 83 83 82 82 84 87 86 84 86 83 83 82 82 82 81
87 88 88 83 83 83 83 83 83 83 83 82 82 83 83 83 83 84 83 83 83 83 83 84 84 84 84 83 83 83 82 82 87 86 85 86 84 82 82 82 82 81 81
87 88 88 83 83 83 83 83 83 83 82 82 83 83 82 83 82 84 84 84 84 84 84 84 84 84 84 83 83 82 82 83 87 86 86 85 81 82 82 82 81 81 81
88 87 87 88 85 83 83 83 83 83 82 83 82 83 83 83 83 83 84 85 84 84 84 83 84 83 83 83 83 82 81 81 86 87 88 88 81 82 82 82 81 81 81
86 87 86 86 87 87 86 83 83 83 83 82 83 83 83 83 83 83 82 84 84 84 84 84 83 84 83 83 82 82 81 82 88 88 88 87 81 82 82 81 81 81 81
83 86 87 87 85 84 85 85 84 83 83 83 84 81 83 87 87 88 84 84 84 84 84 83 84 84 84 83 83 82 82 89 89 89 90 80 81 83 82 81 81 81 81
79 84 86 85 85 86 88 86 85 87 86 85 85 84 86 86 86 88 86 84 84 84 84 84 83 82 86 91 86 83 90 88 89 89 89 80 82 82 82 81 81 81 81
80 83 85 84 84 86 85 86 87 87 86 85 83 84 84 85 86 88 87 88 87 84 89 89 88 89 86 88 89 90 88 88 90 90 85 80 82 82 81 81 81 81 80
78 81 84 84 83 84 85 86 86 85 86 86 85 83 83 85 84 84 86 86 85 88 85 86 88 86 86 85 88 88 88 90 91 90 86 80 81 81 81 81 81 80 80
77 81 83 83 82 82 82 84 85 85 87 86 85 84 85 85 83 85 84 86 86 87 88 86 86 87 85 87 88 87 88 87 88 91 91 80 80 81 81 81 81 81 80
80 81 83 82 82 83 83 81 83 85 86 87 86 86 82 85 83 85 85 85 87 88 87 87 85 87 87 88 85 86 87 88 87 87 91 89 80 80 81 81 81 81 81
81 82 81 82 83 82 81 83 84 85 87 87 88 84 84 83 83 83 86 86 87 86 85 86 86 87 88 88 85 87 89 87 89 87 90 90 90 80 81 81 81 81 81
83 80 82 85 83 83 82 83 84 86 87 87 87 87 84 84 83 83 86 87 87 87 88 88 88 88 87 88 87 88 88 89 87 88 89 88 89 90 85 80 80 80 81
83 81 81 82 82 82 82 84 84 84 86 87 88 87 83 84 83 83 86 87 85 88 88 89 87 87 87 88 90 90 89 89 89 92 88 87 88 88 90 83 79 79 80
83 82 82 83 81 81 83 82 84 85 85 86 86 87 83 86 83 84 86 85 86 88 88 88 85 86 87 87 90 90 89 90 89 89 90 90 89 88 89 87 88 89 79
83 81 81 80 80 81 81 82 83 83 84 85 86 84 84 84 83 82 84 85 85 86 85 84 85 84 87 87 87 89 88 88 88 89 91 91 90 90 90 89 88 90 90
82 81 80 80 80 80 83 83 84 84 85 86 85 84 84 84 83 83 82 84 84 86 84 83 84 86 87 87 86 85 83 88 92 92 91 90 89 91 91 90 89 88 88
82 81 80 80 80 81 82 82 81 82 83 83 84 85 85 85 84 83 83 84 84 85 86 83 84 83 85 85 82 84 82 81 84 90 89 92 88 90 91 90 90 90 88
83 83 82 81 80 81 81 81 80 83 83 86 85 86 86 85 85 84 84 84 83 86 83 85 86 86 84 85 85 87 83 83 82 83 91 91 91 92 92 92 93 92 90
85 84 83 81 80 81 80 81 82 82 86 87 86 83 84 83 85 86 83 83 83 85 84 84 83 83 87 87 87 87 84 86 83 83 83 87 92 94 94 93 93 93 92
86 85 83 80 79 80 80 81 80 81 83 84 84 84 85 86 87 85 85 84 83 84 83 85 84 83 84 85 87 87 87 85 86 85 84 85 85 91 93 94 92 93 94

GFSSE_sfc_temp_081.txt.gz
Temp
86 88 82 83 83 83 83 83 83 83 83 83 83 83 83 83 84 84 84 84 84 84 84 84 84 84 84 84 84 83 83 83 83 83 82 83 83 83 84 84 85 89 82
93 91 83 83 83 84 83 83 83 83 83 83 83 83 83 83 84 84 84 84 84 84 85 85 84 84 84 84 84 83 84 83 83 84 84 83 83 82 82 83 84 85 82
93 92 89 83 83 83 83 83 82 83 83 83 83 83 84 83 84 84 84 84 84 84 85 84 84 84 84 83 84 84 84 83 84 85 87 91 88 83 83 83 83 82 82
98 97 92 82 83 83 83 83 84 84 83 83 83 83 84 84 84 84 84 84 84 84 84 84 84 84 83 83 84 83 84 84 85 86 93 91 90 83 82 82 83 82 81
97 96 89 83 83 83 83 83 83 84 83 83 83 84 84 84 84 84 84 84 84 84 84 84 84 84 84 84 84 84 84 85 86 91 91 90 90 84 82 82 83 82 81
98 97 85 83 83 84 83 84 83 84 84 83 83 84 84 84 84 84 84 84 84 84 85 84 83 84 84 84 84 84 84 85 89 91 89 88 88 82 83 83 82 82 82
94 95 92 83 84 84 83 84 83 84 84 84 83 84 84 84 84 84 84 84 84 84 85 85 84 84 84 83 83 83 84 88 89 90 90 88 86 82 82 82 82 82 82
99 94 92 83 83 84 83 84 83 83 83 83 83 84 84 84 84 84 84 85 85 84 85 85 84 84 83 83 83 83 84 87 93 91 89 88 82 82 82 82 82 82 81
96 98 95 93 86 84 83 83 83 83 83 83 84 84 84 84 85 85 84 84 84 85 85 85 84 84 83 83 83 83 83 85 83 92 93 88 81 82 82 82 82 82 82
98 99 93 94 93 91 90 83 84 83 84 84 84 84 84 84 85 85 83 84 85 85 85 85 84 84 83 83 83 83 84 86 95 94 91 86 82 83 82 82 82 81 82
97 99 98 89 86 86 89 87 84 84 84 84 84 84 83 87 91 88 84 84 85 84 85 85 84 84 83 83 83 83 84 95 88 94 90 81 82 83 82 82 82 81 81
96 99 96 91 92 87 95 90 90 90 80 88 89 87 86 87 91 92 87 84 85 85 85 85 85 85 83 92 93 86 98 98 98 93 88 81 82 83 82 82 82 81 81
98 95 89 88 87 94 92 89 85 94 89 85 85 94 93 90 92 94 90 91 91 86 92 87 85 84 95 97 99 99 97 98 99 94 84 82 83 83 82 82 82 81 81
96 97 89 91 93 91 96 91 96 95 94 94 93 92 92 95 94 89 93 94 84 89 93 84 95 94 94 96 98 97 98 99 99 94 85 81 82 83 82 82 82 82 82
95 96 96 94 92 92 90 97 96 95 97 94 94 93 87 90 84 86 85 82 92 91 95 90 88 90 87 96 97 96 96 95 97 97 91 82 82 82 82 82 82 82 82
94 95 95 93 91 92 89 92 91 94 96 97 95 93 93 92 84 88 85 85 85 88 86 88 82 88 86 91 91 95 96 95 93 95 93 88 82 82 82 82 82 82 82
95 95 93 93 93 90 91 92 94 92 91 97 94 92 92 92 91 91 91 79 86 93 92 93 92 93 91 96 91 95 95 95 95 94 97 94 88 82 83 82 82 82 82
95 92 93 97 94 92 91 88 91 85 82 86 94 94 92 91 92 89 86 84 94 90 85 89 90 87 94 88 93 91 95 96 95 94 96 97 97 96 84 83 82 82 82
94 92 91 94 93 92 90 93 87 90 84 87 86 86 92 92 91 87 85 90 92 93 90 84 89 91 89 88 93 96 97 97 95 99 95 96 95 97 97 82 82 82 82
94 92 91 93 91 91 91 92 93 95 87 89 87 86 92 88 92 90 91 92 82 88 86 87 86 83 82 91 90 95 97 99 99 98 97 99 97 96 98 95 93 89 81
93 91 90 90 88 90 90 91 93 93 93 85 85 92 92 93 92 90 90 92 90 83 81 92 90 90 90 95 84 95 95 96 97 99 102 102 97 99 99 98 96 97 88
92 90 89 89 87 88 91 91 94 92 96 89 84 92 93 93 91 92 91 88 90 81 90 90 83 88 94 90 85 79 83 92 97 100 100 100 97 102 100 98 97 95 95
91 90 88 88 86 88 91 91 91 91 93 93 88 93 93 93 92 91 90 86 91 86 89 90 91 81 81 93 88 86 79 79 84 97 95 98 96 99 100 98 99 97 96
92 92 90 88 87 88 89 90 85 88 90 93 91 85 88 93 93 91 91 91 90 86 84 91 94 90 88 83 93 88 91 89 80 85 96 96 97 98 97 100 100 99 98
95 93 91 88 87 88 88 86 90 83 84 93 82 89 82 90 92 92 92 91 89 88 91 90 90 89 84 89 89 91 91 95 93 85 88 92 97 100 100 100 102 102 100
96 95 93 88 86 87 87 87 87 88 87 84 88 90 86 89 93 91 91 90 90 90 90 91 90 90 88 89 90 91 83 79 84 89 89 90 93 96 100 101 100 102 102

GFSSE_sfc_temp_084.txt.gz
Temp
82 84 83 83 83 83 83 83 83 83 83 83 83 83 83 83 83 83 83 84 84 84 84 84 84 84 84 84 83 83 83 83 83 83 83 83 83 83 83 85 85 83 83
87 86 82 83 83 83 83 83 83 83 83 83 83 83 84 84 84 84 84 84 84 84 84 84 84 84 84 84 84 84 83 83 83 84 84 84 83 83 83 83 83 82 82
88 86 85 83 83 83 83 83 83 83 83 83 83 83 83 84 84 84 84 84 83 84 84 84 84 84 84 84 84 84 84 83 83 85 86 83 82 83 83 83 82 82 82
91 90 86 82 82 83 83 82 83 83 83 83 83 84 84 83 83 84 84 84 84 84 84 84 84 84 84 84 83 84 84 84 84 85 87 86 85 82 83 82 82 82 82
92 90 84 82 83 83 83 83 83 83 83 83 83 83 84 84 84 84 84 84 84 84 84 84 84 84 84 84 84 84 84 85 86 87 84 82 81 83 83 83 83 82 82
90 89 84 83 83 83 83 83 83 83 83 83 83 84 84 84 84 84 84 84 84 84 84 84 84 84 84 84 84 84 84 84 87 84 82 81 80 83 82 83 82 82 81
90 88 86 83 83 83 84 83 83 84 83 83 83 84 84 84 84 84 84 84 85 84 84 84 84 84 84 83 83 83 84 84 86 83 82 81 80 81 82 82 82 81 81
91 90 87 83 83 83 83 83 83 83 83 83 83 84 84 84 84 84 84 84 85 85 84 84 84 83 83 83 83 83 84 86 88 84 82 81 80 82 82 82 82 81 82
94 90 88 87 84 84 83 83 83 84 84 84 84 84 84 84 84 84 84 85 85 86 85 84 84 83 83 83 83 84 84 86 84 83 85 81 81 82 82 82 81 82 82
95 93 90 87 87 85 86 84 84 83 84 84 84 84 84 85 85 84 84 84 85 86 85 84 84 83 83 83 83 84 84 85 89 84 82 81 81 82 82 82 81 82 81
93 91 91 89 80 84 85 84 84 84 83 84 84 83 82 85 86 86 84 84 85 86 85 84 84 83 83 84 84 84 85 83 87 84 82 81 81 82 82 82 81 81 81
87 84 77 88 87 88 91 84 84 83 85 85 84 82 78 85 86 87 85 84 85 85 85 84 85 79 84 86 84 84 84 84 87 83 81 81 82 83 82 82 81 81 81
86 89 91 86 86 90 87 86 78 81 84 87 86 82 84 85 84 86 84 84 84 84 85 84 84 84 83 82 86 90 89 89 86 84 81 81 82 82 82 82 82 81 81
85 90 92 85 78 86 89 88 83 82 88 87 88 81 80 85 81 82 80 79 78 80 74 75 85 87 88 88 91 89 91 91 87 83 80 81 82 82 82 82 82 82 82
88 89 91 84 78 87 84 83 86 85 90 89 84 85 84 82 83 82 74 79 76 84 75 77 75 83 81 87 88 88 89 89 88 85 81 81 81 82 83 82 82 82 82
89 87 92 89 89 88 89 86 86 84 90 90 88 83 84 85 81 74 76 77 79 86 81 77 79 84 82 86 87 89 88 88 88 85 83 81 81 82 82 82 82 82 82
93 90 90 89 90 88 89 85 88 83 85 89 88 90 86 85 80 76 73 76 80 86 87 76 83 84 84 87 86 86 88 88 89 88 86 84 82 82 82 82 83 82 82
93 88 90 94 90 89 88 87 80 74 78 88 89 88 89 89 89 83 78 79 84 78 81 73 84 83 83 84 82 82 86 87 88 88 87 87 83 85 82 82 82 82 82
90 88 88 88 89 85 85 88 79 80 78 84 87 84 86 88 90 86 82 82 83 76 82 82 82 82 82 81 84 86 86 85 86 92 87 88 88 85 84 81 81 81 82
91 89 88 89 87 85 86 83 85 81 78 83 83 84 88 86 89 84 84 84 75 84 83 80 82 81 82 81 87 89 85 87 88 85 87 91 87 88 87 83 80 81 81
90 88 88 84 85 85 86 84 82 84 82 81 86 88 81 82 88 86 83 84 79 81 80 85 83 82 84 84 82 80 83 87 88 87 89 89 88 91 89 86 85 83 81
88 87 86 84 83 85 85 84 86 82 86 84 82 87 86 84 88 87 81 81 78 78 84 83 78 81 83 83 79 78 73 79 85 90 87 90 88 90 90 90 87 86 84
87 86 85 83 83 84 86 86 88 86 83 83 81 86 89 87 88 82 86 82 81 82 80 83 85 82 79 82 84 79 74 72 77 83 85 85 86 85 86 88 89 87 86
88 88 85 85 83 84 85 85 86 84 83 85 83 83 86 88 88 89 88 84 79 77 77 81 85 81 82 80 82 85 84 80 76 74 82 84 86 89 88 86 88 88 87
90 89 86 84 82 84 85 85 84 83 76 78 81 80 82 87 89 89 87 88 82 80 77 81 86 84 80 80 79 81 82 82 82 77 75 78 82 85 86 86 89 87 89
91 90 87 83 82 84 84 84 83 84 76 72 77 78 79 84 86 86 88 86 84 78 78 84 86 86 83 83 81 81 80 76 78 77 77 80 80 84 87 86 87 88 89

GFSSE_sfc_temp_087.txt.gz
Temp
74 80 82 83 83 83 83 83 83 82 82 83 83 83 83 83 83 83 83 83 83 83 83 84 84 84 84 84 84 83 83 83 83 83 83 83 83 83 83 83 83 82 82
80 81 82 82 83 83 82 82 82 82 83 83 83 83 83 83 83 83 83 84 83 83 84 84 84 84 84 84 84 83 83 83 83 84 84 84 84 83 82 83 82 82 82
80 81 82 82 83 83 82 82 83 83 83 83 83 83 83 84 83 84 84 83 84 84 84 84 84 84 84 84 83 84 83 83 85 84 83 79 81 83 83 83 83 82 82
81 80 80 82 82 82 82 82 83 83 83 83 83 83 83 83 84 84 84 83 84 84 84 84 84 84 84 84 84 84 83 84 84 85 81 81 83 83 82 82 82 82 82
81 79 80 82 82 83 83 83 83 83 83 83 83 83 84 84 84 84 84 84 84 84 84 84 84 84 84 84 84 84 85 85 84 83 79 77 77 82 83 82 82 82 82
79 78 82 82 83 83 83 83 83 83 83 83 83 84 84 84 84 84 84 84 84 84 84 84 84 84 84 84 84 84 84 85 84 80 78 79 76 83 83 82 82 82 81
79 80 81 82 83 83 83 83 83 83 83 83 83 84 84 84 84 84 84 84 84 84 84 84 84 84 84 83 84 83 84 85 80 78 77 77 78 82 82 82 82 82 81
80 80 81 82 83 83 83 83 83 83 83 83 83 84 84 84 84 84 84 85 85 84 84 84 84 83 83 83 83 84 84 85 83 79 78 77 80 82 82 82 81 81 81
82 80 80 80 82 83 83 83 83 83 83 83 84 84 84 84 84 84 84 85 85 85 84 84 83 83 83 83 84 83 85 84 78 79 81 77 80 82 82 81 81 81 81
81 81 80 79 79 78 79 83 83 83 83 83 84 84 84 84 84 84 83 84 85 85 84 84 83 83 83 83 84 84 84 85 80 79 78 77 80 82 82 81 81 81 81
83 82 79 80 76 76 77 82 82 84 83 83 83 84 82 77 79 81 83 85 85 85 85 84 83 83 83 84 84 83 82 79 79 78 77 79 81 82 82 81 81 81 80
79 81 79 81 79 79 84 77 76 79 77 76 76 77 75 76 77 81 82 84 85 85 84 84 84 84 84 79 79 83 79 79 79 77 77 80 81 82 82 81 81 80 80
80 82 81 80 80 80 80 76 73 74 77 78 77 76 76 77 77 77 76 78 77 78 74 78 80 79 76 77 79 80 79 80 78 78 79 80 81 82 82 81 81 81 81
78 79 82 79 76 79 80 78 75 75 77 76 77 77 75 75 76 75 75 74 72 73 72 73 75 78 79 82 83 86 85 83 77 76 77 80 81 82 82 82 81 81 81
81 80 80 79 76 79 81 77 76 77 78 81 79 79 78 74 73 71 73 75 73 72 72 72 73 76 74 83 82 83 83 79 78 77 74 81 81 81 82 82 82 81 81
83 80 78 78 78 80 80 80 82 78 79 79 78 78 80 75 74 73 73 74 72 74 73 70 72 75 78 79 83 82 82 82 82 78 76 76 80 81 82 82 82 82 82
83 82 80 79 82 80 80 79 78 82 80 78 79 80 77 75 73 73 70 71 72 74 74 74 73 79 79 83 81 81 82 82 82 81 78 76 77 81 82 82 82 81 81
84 81 82 88 82 80 78 78 77 75 75 78 79 79 81 78 76 73 73 74 75 72 76 72 74 75 77 77 77 78 79 81 83 80 80 79 77 80 80 81 81 81 82
85 81 79 80 80 79 80 79 78 78 75 78 79 79 80 82 78 76 74 74 77 73 76 76 75 78 76 78 78 78 78 79 81 85 81 80 78 78 77 79 80 80 82
81 80 83 81 78 79 78 76 75 75 75 81 80 79 79 79 82 77 76 74 75 76 78 76 76 76 79 77 82 82 78 79 79 79 81 84 80 80 79 77 76 78 80
81 80 82 79 77 76 76 75 73 73 75 76 80 80 80 77 81 78 76 76 75 75 74 77 75 76 76 77 74 75 75 79 78 78 80 81 81 82 80 78 76 76 78
79 78 78 78 77 77 76 76 77 77 76 78 80 79 80 80 79 79 77 75 78 75 75 76 75 74 74 75 73 70 70 75 78 80 78 82 80 82 82 83 80 79 78
80 78 77 76 77 77 77 79 78 80 76 75 77 78 79 81 80 80 77 76 74 74 74 75 77 75 72 75 76 74 69 67 69 75 78 79 81 79 80 82 83 82 81
81 81 78 76 76 77 77 77 76 75 73 75 73 77 79 82 82 81 79 77 77 73 72 74 79 75 74 72 75 79 76 75 70 70 75 76 79 82 79 79 81 83 83
83 81 79 77 76 76 77 76 76 76 72 72 74 74 77 78 82 82 80 77 76 76 75 75 76 76 75 73 73 73 75 74 77 71 68 73 76 78 79 80 80 81 83
83 82 79 77 75 75 76 77 76 74 73 72 72 74 74 75 77 80 80 77 75 75 75 74 76 77 76 75 75 73 73 73 72 73 70 72 72 77 79 79 82 81 82

GFSSE_sfc_temp_090.txt.gz
Temp
73 78 82 83 83 83 83 82 82 82 82 83 83 83 83 83 83 83 83 83 83 83 83 83 84 84 84 84 83 83 83 83 83 83 83 83 82 82 82 82 82 82 82
77 80 82 83 83 82 82 82 82 82 82 83 83 83 83 83 83 83 83 83 83 83 84 84 84 84 84 84 83 83 83 82 83 83 84 84 83 83 82 82 82 81 82
78 80 81 82 82 82 82 82 82 82 82 82 83 83 83 83 83 83 83 84 84 84 84 84 84 84 84 84 83 84 84 83 83 83 82 78 80 83 83 82 82 82 81
79 78 79 81 82 82 82 82 82 83 83 83 83 83 83 83 83 83 84 84 84 84 84 84 84 84 84 84 84 84 84 83 83 82 78 79 82 82 82 82 82 81 81
77 76 79 82 82 82 82 83 83 83 83 83 83 83 83 83 84 84 84 84 84 84 84 84 84 84 84 84 84 84 84 84 82 80 76 75 76 82 82 82 82 81 81
75 75 81 82 83 83 83 83 83 83 83 83 83 83 84 84 84 84 84 84 84 84 84 84 84 84 83 85 85 84 83 82 81 77 74 77 76 82 82 82 82 81 81
74 77 80 82 83 83 83 83 83 83 83 83 83 84 84 84 84 84 84 84 84 84 84 84 84 84 83 84 84 84 84 82 76 75 75 75 77 81 82 82 81 81 81
76 78 80 83 83 83 83 83 83 83 83 83 83 84 84 84 84 84 84 84 84 84 84 84 84 83 83 84 84 84 84 83 79 76 76 75 79 82 82 82 81 81 81
78 77 77 79 81 83 83 83 83 83 83 83 83 84 84 84 84 84 84 84 84 85 84 84 83 83 83 84 84 84 83 81 75 76 79 75 80 82 82 81 81 81 80
77 77 75 75 76 76 78 83 83 83 83 84 83 84 84 84 84 84 83 84 85 84 84 84 83 83 83 83 84 84 84 82 76 77 75 76 80 82 81 81 81 80 80
77 75 74 75 74 74 76 81 82 83 83 83 83 84 80 76 77 79 83 85 85 84 84 84 83 83 83 83 83 84 83 76 76 75 74 79 80 82 82 81 80 80 80
73 74 75 74 73 74 82 76 75 78 76 75 75 75 73 74 75 79 82 85 85 83 83 84 84 83 82 77 78 81 77 77 76 75 74 79 81 82 81 81 80 80 80
76 75 76 75 74 74 76 73 72 74 74 74 75 74 74 75 75 75 75 75 75 79 74 77 77 76 77 75 75 77 79 77 74 75 77 80 81 82 81 81 80 80 80
75 76 77 76 74 75 74 73 73 73 74 74 73 74 73 73 72 73 73 73 72 72 72 72 73 75 76 77 77 78 78 77 74 74 74 80 80 82 82 81 81 80 80
76 77 77 76 75 77 75 73 73 73 74 74 75 75 75 71 72 72 71 72 71 70 71 70 71 74 73 78 79 81 78 77 75 75 73 81 80 81 82 82 81 81 81
77 77 76 77 76 79 75 74 74 74 75 75 75 75 76 73 72 71 71 73 72 72 71 70 71 73 74 77 78 80 79 76 77 75 74 75 80 80 81 82 82 81 81
78 78 76 76 81 79 78 77 76 76 77 76 76 76 75 73 72 72 71 71 72 73 73 72 73 75 76 77 78 78 77 77 76 76 75 74 76 81 81 81 81 81 81
79 77 77 84 79 76 76 76 74 74 75 76 76 76 76 74 74 72 71 71 73 72 73 71 74 73 74 75 74 75 76 77 77 77 76 75 75 77 79 81 81 80 81
79 77 77 78 77 76 75 75 75 75 75 75 75 73 75 77 76 73 72 73 73 72 73 74 73 73 74 74 76 76 77 75 77 81 77 76 75 76 75 78 80 80 82
80 78 77 77 76 76 74 75 72 75 74 76 75 77 76 76 78 75 74 74 73 74 74 72 74 76 75 74 80 80 75 76 76 76 77 80 76 77 75 75 75 77 80
79 78 76 75 74 74 73 71 71 73 76 76 77 78 78 77 77 75 74 73 74 73 72 75 74 75 73 73 72 73 73 75 75 76 77 77 77 78 76 76 74 74 76
78 78 75 75 73 74 74 73 73 73 74 74 76 77 77 77 77 77 74 73 74 73 73 74 73 72 72 73 70 67 68 72 74 76 76 78 77 78 79 79 77 76 76
77 76 76 75 75 74 75 76 74 74 74 73 74 76 77 80 78 78 76 74 73 72 72 73 73 73 71 73 73 71 66 66 67 72 74 74 76 75 77 79 80 79 78
79 79 77 75 75 75 75 78 76 74 70 71 72 73 75 80 78 78 78 75 74 71 71 72 77 73 71 71 72 76 72 71 68 69 72 73 74 77 77 76 79 80 80
80 78 78 76 74 74 75 75 74 72 71 72 73 74 73 74 79 79 77 75 73 73 72 73 74 74 72 72 71 72 71 71 71 68 67 71 74 75 76 76 77 78 80
81 79 78 75 73 73 74 74 73 72 71 71 71 71 71 72 73 76 77 75 74 73 73 73 74 75 73 73 72 72 71 71 71 69 68 68 69 75 75 74 74 77 78

GFSSE_sfc_temp_093.txt.gz
Temp
72 76 81 82 82 82 82 83 83 83 82 82 83 83 82 83 82 82 83 83 82 83 83 83 84 83 84 84 84 83 83 82 83 83 83 82 82 82 82 82 82 80 81
75 77 81 82 82 82 82 82 82 82 82 82 83 83 83 83 82 83 83 83 83 83 84 84 84 84 83 83 82 82 82 82 83 83 84 83 83 82 82 82 81 80 81
77 78 80 81 82 82 82 82 82 82 83 83 83 83 83 83 83 83 83 83 84 84 84 84 84 84 84 84 84 83 83 82 82 83 82 77 79 83 82 82 82 82 81
77 76 78 81 82 82 82 82 82 82 82 83 83 83 83 83 83 84 84 83 84 84 84 84 84 84 84 84 83 83 83 83 83 81 76 77 81 82 82 81 82 81 81
75 75 77 82 82 82 82 82 83 83 82 83 83 83 83 83 83 84 84 84 84 84 84 84 84 84 84 84 84 83 83 82 82 79 75 74 75 82 82 82 81 81 81
73 75 80 82 82 82 83 83 82 83 83 83 83 83 83 83 84 84 84 84 84 84 84 84 84 84 85 85 84 84 83 82 80 75 74 77 75 82 82 82 81 81 81
73 75 79 82 82 83 83 83 83 83 83 83 83 83 84 84 84 84 84 84 84 84 84 84 84 84 85 84 83 83 82 81 74 74 74 74 75 82 82 81 81 81 81
74 76 78 82 83 83 83 83 83 83 83 83 83 84 83 84 84 84 84 84 84 84 84 83 84 84 84 84 84 83 82 81 78 75 75 74 79 82 82 81 81 81 81
76 75 76 77 81 83 82 83 83 83 83 83 83 83 83 84 84 84 84 84 85 84 84 84 83 83 83 84 84 83 83 80 73 74 77 74 80 82 81 81 81 80 80
74 75 74 75 76 76 77 83 83 83 83 83 83 84 84 84 84 84 83 84 84 84 84 84 82 82 83 83 83 83 82 81 74 74 74 74 80 82 81 81 80 80 80
74 72 73 73 73 73 76 80 82 83 83 83 82 83 78 74 76 79 82 84 84 84 84 83 83 83 83 83 83 84 82 74 74 73 73 78 80 82 81 81 80 80 79
70 72 73 72 72 73 80 74 73 77 74 74 74 73 72 73 75 79 81 84 84 84 83 84 84 84 80 77 78 80 75 75 73 73 73 79 80 82 81 80 80 80 79
71 73 72 72 72 73 74 72 72 72 72 73 73 73 73 74 73 73 72 73 73 78 73 76 76 74 76 74 75 75 76 75 73 73 76 79 81 82 81 80 80 80 80
72 73 73 73 72 72 72 72 71 72 72 72 73 73 72 71 72 72 72 72 71 71 71 71 72 73 74 76 75 75 76 75 73 73 73 79 80 81 81 81 80 80 80
73 73 73 73 72 73 72 72 71 71 72 73 73 73 72 71 71 71 71 71 70 70 71 70 70 72 72 75 75 76 75 75 74 73 72 80 80 81 81 82 81 81 81
74 74 74 74 74 74 72 71 72 72 73 73 73 73 74 72 71 70 71 71 71 71 71 70 70 72 73 74 75 76 75 75 75 73 73 73 80 80 81 81 81 81 81
75 76 74 74 75 74 73 73 73 73 75 73 72 74 74 73 71 70 71 71 71 72 72 71 71 73 73 76 75 76 75 75 75 74 73 72 73 80 81 81 81 81 81
75 74 75 81 77 75 74 74 73 73 73 73 74 74 75 74 73 71 70 71 73 72 72 70 71 73 72 73 73 73 74 75 75 75 74 74 73 75 77 80 81 80 81
76 74 74 76 74 74 73 73 72 73 73 74 73 72 74 74 74 71 71 72 71 71 71 72 72 72 73 73 74 74 74 74 75 79 75 75 74 74 73 77 79 80 81
76 75 74 74 73 73 72 71 71 72 73 73 73 73 74 73 75 74 73 72 71 72 72 71 73 73 72 72 77 77 73 74 74 74 75 78 75 75 74 74 73 74 79
76 74 74 72 72 73 71 70 70 71 72 73 74 75 75 74 76 74 73 71 72 71 71 73 73 71 72 71 71 71 71 72 73 74 75 75 75 76 75 75 73 74 75
76 74 72 73 71 73 73 71 73 71 74 73 74 75 75 76 76 75 73 72 72 72 71 73 72 70 70 71 69 65 66 71 73 73 73 75 75 75 77 77 76 76 75
75 74 73 72 72 73 74 73 72 72 72 72 73 73 74 77 77 76 75 73 72 71 71 71 72 71 70 71 71 70 65 64 65 71 72 72 74 73 74 76 78 78 77
77 77 75 73 72 73 73 74 73 71 70 70 71 72 73 76 76 75 75 74 72 70 71 71 75 71 70 70 71 73 70 70 66 68 71 72 73 75 75 74 76 78 78
79 77 76 72 71 72 72 73 73 70 70 70 71 73 72 73 76 76 75 73 72 71 71 73 73 72 71 70 70 70 70 69 68 66 66 70 72 73 74 74 75 75 77
79 78 76 72 70 71 72 72 72 71 70 70 71 71 71 71 72 75 75 73 73 72 72 72 73 73 72 71 71 70 70 69 69 68 66 66 66 72 74 73 73 73 75

GFSSE_sfc_temp_096.txt.gz
Temp
71 75 81 82 82 83 82 83 83 82 82 83 83 82 83 82 82 83 83 83 83 83 83 83 84 84 84 83 83 83 83 83 83 83 83 82 82 82 82 82 81 83 82
74 77 81 82 82 81 82 82 82 82 83 83 83 83 83 83 83 83 82 82 83 83 84 83 83 83 83 83 83 83 83 83 83 83 83 83 83 82 82 82 81 83 82
75 77 79 82 82 82 82 82 82 83 83 83 83 83 83 82 83 83 83 84 84 84 84 84 84 84 84 84 83 83 82 82 83 82 82 81 82 83 83 83 82 82 81
76 76 78 81 82 82 82 82 82 83 83 83 83 83 83 83 83 82 83 84 84 84 84 84 84 84 84 84 83 83 83 83 82 80 79 80 83 83 82 82 81 81 81
74 75 78 82 82 82 82 82 83 82 83 83 81 83 83 83 83 83 84 84 84 83 84 83 84 84 83 84 83 83 83 82 81 79 78 78 79 83 82 81 81 81 81
73 74 80 82 82 83 82 83 83 83 82 83 83 83 83 83 84 84 84 83 84 84 84 84 84 85 85 84 83 83 83 81 79 78 77 79 79 82 82 82 82 81 81
72 75 79 82 82 82 82 83 83 83 83 83 83 82 83 84 84 83 84 84 84 84 84 84 84 85 84 84 83 83 82 81 76 76 77 78 80 81 82 81 81 81 81
73 75 78 81 83 83 83 82 82 82 83 82 83 83 84 83 83 84 84 84 84 84 84 84 84 84 84 84 83 83 82 81 78 77 77 78 80 81 82 81 81 81 81
75 75 76 77 80 83 82 82 83 83 83 83 83 83 83 83 84 84 84 84 84 84 84 84 84 83 83 84 83 83 82 80 76 77 79 78 80 81 81 81 81 80 80
74 75 74 75 76 75 77 82 83 83 83 82 83 83 83 84 84 84 83 84 84 84 83 83 83 83 83 83 83 82 82 81 77 77 77 78 80 81 81 81 80 80 80
74 72 73 73 74 74 77 79 81 83 82 82 81 81 77 75 77 79 83 84 84 84 84 83 83 83 83 84 84 83 81 77 77 77 77 78 80 81 81 81 80 80 79
70 71 72 72 73 74 79 74 74 76 75 74 74 74 73 74 77 79 82 84 84 83 84 84 84 84 81 79 79 82 78 77 77 77 77 78 80 81 81 80 80 79 79
70 72 72 72 72 74 73 72 72 73 73 74 74 74 74 75 75 74 74 75 75 79 75 76 77 76 77 77 77 79 78 77 77 77 78 79 80 81 81 81 80 80 80
70 72 72 72 72 72 73 73 72 73 73 74 74 74 74 74 74 74 73 73 74 73 72 73 74 75 76 77 78 78 79 78 77 77 76 79 80 81 82 81 81 81 81
70 72 72 72 72 72 72 72 72 73 74 74 74 75 74 73 73 74 73 74 73 73 73 73 73 75 75 77 78 78 78 78 77 77 76 79 80 80 81 82 82 81 81
72 72 73 72 73 72 72 72 72 73 74 74 74 74 74 73 73 73 73 74 73 74 74 73 73 75 76 77 77 78 78 78 78 77 78 77 79 80 80 81 81 81 82
73 73 72 73 74 72 73 73 72 74 75 74 74 75 75 75 74 74 73 73 73 74 74 73 74 76 76 78 78 79 79 79 79 78 78 78 78 78 80 81 81 81 81
73 72 73 79 75 73 73 72 73 74 73 74 73 74 76 75 75 74 73 73 74 74 75 74 75 75 75 76 77 78 78 78 78 78 78 78 78 80 79 79 80 81 81
73 72 72 75 74 74 74 73 73 74 74 74 74 73 75 75 75 74 74 75 75 74 74 75 75 75 76 76 77 77 77 78 78 82 79 79 79 79 79 78 78 79 81
74 73 73 74 74 73 72 72 72 73 73 74 74 74 76 75 77 75 75 75 74 75 75 75 75 76 75 75 79 79 77 77 78 78 79 81 80 80 80 79 79 80 78
74 72 73 72 71 71 71 70 71 72 73 74 74 76 76 76 77 76 74 74 74 73 74 76 75 75 75 74 75 75 75 77 78 78 79 80 80 81 81 81 80 80 81
73 73 72 72 71 72 72 71 73 72 73 74 73 75 76 76 77 76 74 74 75 75 75 75 74 74 74 74 73 70 70 75 77 79 78 79 80 80 81 81 81 80 80
73 72 72 71 71 72 72 73 72 73 73 73 74 75 76 76 77 75 74 74 74 74 74 74 75 74 74 74 74 73 71 70 70 76 77 78 77 79 80 80 81 81 81
75 75 72 71 71 73 72 73 73 72 70 72 72 74 75 77 78 78 77 75 74 74 74 75 77 74 75 73 75 76 74 74 72 72 76 77 77 80 80 79 80 82 81
77 75 73 71 71 72 73 73 73 71 72 72 72 73 74 74 76 77 77 75 75 75 75 76 76 75 75 75 74 74 75 74 73 72 72 74 77 78 79 79 81 81 81
79 75 73 71 70 72 72 72 72 72 71 71 72 72 73 74 75 77 77 75 75 75 75 75 76 76 76 75 75 75 75 74 74 73 72 73 73 77 79 78 79 80 81

GFSSE_sfc_temp_099.txt.gz
Temp
80 83 82 82 82 83 83 82 83 83 82 82 83 83 83 83 83 83 82 83 83 83 83 84 84 84 83 83 83 83 83 83 83 83 83 82 82 82 82 83 85 89 82
85 85 81 82 82 83 83 82 82 83 83 82 83 83 83 83 83 83 83 83 83 83 84 84 83 83 83 83 83 83 83 82 82 83 84 84 83 82 82 83 83 85 82
86 86 85 82 82 82 82 82 82 82 81 83 83 83 83 83 83 84 84 84 84 84 84 84 84 84 84 83 83 83 83 82 82 83 84 90 88 83 83 83 82 82 82
87 88 87 81 82 82 82 82 82 83 83 83 83 83 83 83 83 83 84 84 84 84 84 84 84 84 84 83 83 83 82 82 81 83 88 89 88 82 82 82 82 82 82
86 87 86 82 82 82 82 82 82 82 83 82 83 83 83 83 83 84 84 84 84 83 83 84 83 83 83 83 83 83 82 82 81 85 87 86 88 84 82 82 83 82 82
86 88 84 82 82 82 82 83 82 82 83 82 83 83 83 83 84 84 84 84 84 84 84 84 85 85 84 84 83 83 82 81 82 86 86 85 85 82 82 82 82 81 81
86 88 88 82 82 83 82 82 83 83 83 83 82 83 83 84 83 84 84 84 84 84 84 84 85 84 84 84 83 82 81 81 84 84 85 86 85 81 82 82 81 81 81
86 88 87 83 83 83 82 81 83 82 83 83 83 83 82 83 84 84 85 84 84 84 84 84 84 84 84 83 82 82 82 82 84 84 84 87 81 82 82 81 81 81 81
87 87 87 87 85 83 83 82 82 83 83 83 83 82 84 83 84 84 84 85 85 85 84 84 84 84 84 83 83 82 81 80 84 85 87 88 80 82 82 81 81 81 81
86 87 85 86 87 85 86 83 83 83 83 83 83 84 83 84 84 83 83 84 84 84 84 84 83 83 83 83 83 82 82 81 87 86 88 87 80 82 81 81 81 80 80
82 83 84 86 84 83 84 84 84 83 83 82 82 81 83 86 88 89 84 84 84 84 84 83 84 84 82 83 83 83 81 89 89 88 89 79 80 82 81 81 80 80 80
80 82 84 85 85 86 86 83 83 85 86 85 84 84 86 86 86 87 85 84 83 83 84 83 84 83 85 90 90 85 90 87 89 89 89 79 80 82 81 81 80 80 80
82 82 84 82 83 85 82 84 85 86 86 85 83 85 85 86 86 87 86 88 87 83 88 88 89 90 87 89 90 91 89 88 90 90 85 79 80 81 82 81 81 81 81
81 82 83 83 81 83 82 85 85 85 86 86 85 84 84 86 85 84 86 86 85 87 84 86 89 86 86 86 88 89 89 90 91 91 86 79 80 81 82 82 82 81 81
81 82 83 82 81 81 82 84 84 84 86 86 86 85 86 86 84 85 84 86 85 87 87 86 86 87 86 89 90 89 89 89 89 91 91 79 80 80 81 82 82 82 82
82 82 83 82 81 82 82 81 83 85 86 86 86 86 84 86 84 86 85 86 85 88 87 86 86 87 89 90 88 88 90 90 88 88 92 90 79 80 80 81 82 82 82
83 83 82 82 83 82 82 83 84 86 87 87 86 84 84 85 83 82 85 85 86 86 85 87 88 89 91 92 89 91 92 90 92 89 91 92 92 80 80 81 81 81 82
84 81 82 86 84 83 83 83 85 86 87 86 86 86 85 84 84 84 86 86 86 87 88 88 89 89 90 90 90 91 91 91 90 90 91 91 92 94 86 80 80 81 81
84 82 82 84 83 83 82 84 85 83 86 87 87 87 84 84 84 86 87 86 85 87 88 89 88 87 89 90 92 92 91 91 91 95 91 90 92 92 93 85 79 79 81
84 83 83 84 82 82 83 82 84 86 86 86 86 87 84 85 85 85 86 85 86 89 88 88 85 88 88 87 92 92 92 92 92 93 94 95 94 92 94 90 91 93 81
84 82 82 82 81 82 82 82 83 84 84 85 86 84 84 85 85 84 87 86 87 86 85 85 88 85 89 87 89 92 91 92 93 94 95 96 93 95 93 94 93 94 93
83 82 81 82 81 81 84 82 85 83 85 87 85 85 85 85 84 86 84 86 85 87 84 84 84 88 87 86 85 86 85 90 94 95 94 95 93 95 95 93 92 90 91
83 82 81 81 81 81 82 82 82 83 84 84 85 85 83 85 86 84 84 86 85 86 87 85 85 84 86 86 84 85 84 82 86 92 91 94 91 95 95 94 94 93 92
84 84 83 82 81 81 81 83 80 83 80 85 84 83 83 86 86 87 85 84 84 87 84 86 88 85 86 85 87 87 84 83 84 86 93 93 93 95 93 95 97 96 93
85 84 84 82 81 81 81 83 82 82 85 84 84 81 83 82 85 86 84 84 84 87 84 84 85 83 87 86 86 87 85 87 84 85 85 88 94 94 94 94 95 96 95
86 84 83 80 79 81 81 81 82 82 82 82 83 84 85 86 87 85 85 84 83 84 84 86 84 84 85 85 87 87 87 86 85 86 86 86 86 91 93 93 93 95 96

GFSSE_sfc_temp_102.txt.gz
Temp
88 90 82 83 82 82 82 83 83 83 83 83 83 83 83 83 83 83 83 83 83 83 84 84 83 83 83 84 83 83 83 83 83 83 83 83 83 83 83 84 86 91 82
93 91 82 83 82 83 83 83 83 83 83 83 83 83 83 83 83 83 83 84 84 84 84 83 83 83 83 83 83 83 83 83 83 84 83 83 83 83 83 83 84 86 82
94 93 88 82 82 82 83 83 83 83 83 83 83 83 83 83 83 84 84 84 84 84 84 84 83 83 83 84 83 83 83 83 83 85 87 94 89 83 82 82 82 83 82
97 95 93 81 82 83 83 83 83 83 83 83 83 83 83 83 84 84 85 85 84 84 83 84 84 84 84 84 83 83 82 82 83 86 92 95 92 83 82 82 82 82 82
95 92 89 82 83 83 83 83 83 83 83 83 83 83 83 83 84 84 84 84 84 83 84 84 83 84 83 84 83 83 82 82 85 91 93 90 91 85 83 83 84 82 81
95 96 85 83 83 83 83 83 83 83 83 83 83 83 84 83 84 85 84 84 84 84 85 85 85 84 84 84 83 82 82 83 88 92 92 88 87 83 83 82 82 82 81
97 96 92 83 83 83 83 83 83 83 83 83 83 84 84 84 84 84 83 84 85 85 85 85 85 84 84 83 83 82 82 84 91 92 92 90 87 82 82 82 82 81 81
97 97 92 84 83 83 83 83 83 83 83 83 83 84 84 84 84 85 85 85 85 85 85 84 84 84 84 83 83 82 82 84 91 91 92 90 82 82 82 82 81 81 81
98 96 95 92 86 83 83 83 83 83 83 83 83 83 83 84 85 85 85 85 85 85 85 84 84 84 84 83 83 82 81 81 92 92 95 92 81 82 82 81 81 81 81
96 96 94 92 93 92 92 83 83 83 83 84 84 84 84 85 84 85 84 84 85 85 85 84 84 84 84 83 83 82 82 83 94 94 94 88 81 82 82 81 81 81 81
93 92 92 95 90 90 91 87 85 84 84 83 84 83 85 94 94 92 85 84 85 85 84 84 84 84 84 83 83 83 83 95 97 96 95 79 81 82 82 81 81 81 81
90 93 94 93 92 93 94 90 90 92 94 93 91 91 94 94 92 92 87 84 84 84 84 84 83 84 86 98 94 86 97 94 95 94 91 79 81 82 82 81 81 81 81
92 92 94 91 91 93 90 93 93 94 93 91 90 92 92 93 93 95 93 94 94 86 97 94 94 97 93 96 96 96 95 95 96 96 86 79 81 82 82 82 82 81 81
89 91 93 91 90 91 92 94 93 93 93 94 92 90 90 92 92 92 94 93 94 96 93 94 96 93 93 94 96 95 95 97 97 97 87 80 80 81 82 82 82 82 82
90 90 91 89 88 86 89 92 93 91 95 94 93 92 94 93 90 92 91 94 94 97 96 94 94 94 94 95 96 95 96 95 96 98 96 81 80 81 81 82 82 82 83
90 90 90 89 87 89 88 88 90 93 93 94 94 92 90 94 91 92 92 94 94 97 96 95 93 95 96 97 94 95 96 97 94 96 98 91 81 80 81 82 82 82 82
91 90 88 89 90 88 87 89 92 93 95 94 94 90 91 92 89 91 92 94 94 93 92 94 95 96 97 99 94 96 98 96 97 95 99 99 91 81 82 82 82 82 82
91 88 89 93 91 90 89 90 93 94 95 94 94 93 91 90 90 91 94 94 94 95 97 96 98 96 97 98 96 98 98 99 95 95 98 99 99 102 84 83 82 81 82
90 88 88 90 90 89 88 91 92 90 94 94 94 95 90 90 90 94 95 93 93 96 96 99 97 96 96 98 99 99 99 99 97 101 96 97 97 101 102 83 82 81 82
90 89 89 90 88 88 89 89 93 92 93 94 94 94 90 92 90 92 93 92 94 96 96 95 91 95 96 96 100 98 99 99 99 99 99 101 99 99 103 98 99 96 83
91 89 88 88 86 88 89 90 90 91 91 92 94 90 90 91 90 90 95 92 94 94 90 93 95 91 95 96 95 96 97 99 99 100 102 103 99 103 102 101 101 99 100
90 89 87 86 85 87 90 89 93 92 93 93 93 91 91 91 90 91 91 93 92 92 90 90 89 95 95 94 93 94 91 94 99 102 103 102 101 104 102 101 101 98 98
90 88 87 87 86 87 89 88 88 89 90 90 90 91 92 91 91 90 90 92 90 93 93 92 91 89 92 93 91 92 89 89 94 99 97 101 99 103 103 102 102 100 98
92 91 89 87 86 87 87 88 85 87 86 92 91 92 92 90 91 91 90 90 90 94 90 92 94 92 91 91 95 94 91 89 91 90 98 99 100 102 99 103 105 102 101
93 92 90 88 86 88 86 88 85 88 91 92 93 88 88 88 90 92 90 89 88 92 90 90 90 89 94 93 93 95 91 95 92 93 91 95 99 103 104 104 103 104 102
94 93 91 87 85 86 86 86 86 86 88 90 90 89 89 91 91 90 91 89 88 91 89 91 90 89 88 90 94 94 93 92 92 93 94 92 93 97 102 103 102 102 103

GFSSE_sfc_temp_105.txt.gz
Temp
89 88 83 83 83 82 82 83 82 83 83 83 83 83 83 83 83 83 83 83 84 84 83 83 83 84 84 83 83 83 83 83 83 83 83 83 82 83 83 84 86 89 82
97 92 83 83 83 83 83 83 83 83 83 83 83 83 83 83 83 83 83 84 84 83 83 83 83 82 83 83 83 83 83 83 83 83 83 84 84 83 83 83 84 85 82
96 92 89 83 83 83 83 83 83 83 83 83 83 83 83 83 84 84 83 83 84 84 83 83 83 84 84 84 83 83 83 83 84 85 84 91 87 83 83 83 83 83 82
97 97 92 82 83 83 83 83 84 84 84 83 83 83 84 84 84 85 85 83 83 84 84 84 84 84 84 83 83 83 83 83 85 88 94 93 90 83 83 82 82 82 82
94 96 88 83 83 83 83 83 83 83 84 84 83 84 84 84 84 84 84 84 83 84 84 84 83 83 84 84 83 83 83 84 86 90 91 89 88 84 82 83 84 82 82
94 91 85 83 83 83 83 83 84 83 83 83 83 84 84 84 84 84 84 84 84 85 84 85 84 84 84 84 83 83 83 85 88 93 88 87 86 83 82 82 82 82 81
95 96 92 83 83 83 83 83 83 84 83 84 84 83 84 84 84 84 84 85 85 85 85 85 84 84 84 83 83 83 83 86 86 90 90 88 85 82 82 82 82 82 81
99 97 92 84 83 83 84 83 83 84 84 83 84 84 84 85 85 84 85 85 85 84 84 85 84 84 84 83 83 82 82 84 94 90 89 87 82 82 82 82 81 81 81
92 96 94 93 86 84 83 83 84 84 84 84 84 84 84 84 85 85 85 85 85 85 85 85 84 84 83 83 83 82 83 85 93 86 93 88 81 82 82 82 81 81 81
93 90 92 92 92 91 91 84 84 84 84 84 84 84 85 85 85 85 84 85 85 85 85 85 84 84 83 83 83 83 83 85 96 95 91 86 82 82 82 82 81 81 81
89 94 90 92 86 87 90 87 85 84 83 84 85 85 85 93 93 90 84 85 85 85 85 85 84 84 84 83 83 84 83 96 98 96 91 80 82 82 82 82 81 81 81
84 89 92 95 93 89 92 88 91 90 88 90 89 91 88 93 93 93 88 85 85 85 85 85 85 85 85 90 92 85 96 96 97 95 90 80 82 83 82 82 81 81 81
91 94 90 87 85 91 91 96 96 90 93 91 92 94 93 94 93 95 91 92 93 87 87 90 90 90 96 96 99 99 98 97 97 95 85 81 81 82 83 82 82 82 82
92 93 96 95 88 93 95 96 96 88 87 95 94 93 92 89 86 89 95 95 89 96 95 94 96 94 94 96 98 98 98 99 99 96 86 82 81 82 82 83 83 83 83
94 94 94 93 85 89 92 95 94 94 85 95 92 87 87 87 91 85 88 87 94 93 97 96 96 96 94 97 97 97 97 97 99 99 94 82 82 82 82 82 83 83 83
94 94 93 86 87 89 91 92 93 85 92 94 93 95 93 87 86 94 90 93 88 94 97 96 94 97 97 97 96 97 98 97 96 98 97 90 83 83 82 82 83 83 83
95 93 91 90 91 91 90 92 86 96 90 88 91 93 93 92 92 91 94 84 88 94 93 95 96 98 99 99 96 98 97 98 97 96 100 97 89 82 83 83 83 83 83
94 91 92 95 94 92 91 92 92 94 94 88 96 94 93 92 92 90 85 96 96 95 96 97 97 99 98 98 97 99 98 99 96 97 98 100 100 98 84 84 84 83 83
92 91 92 87 93 91 90 87 90 93 87 95 96 86 92 93 92 87 85 93 90 95 97 93 98 95 96 99 98 99 99 99 98 101 97 98 98 101 101 83 83 83 84
92 92 92 93 90 89 88 88 88 86 85 95 85 86 92 93 92 92 92 93 90 94 96 96 91 96 96 96 98 99 99 100 100 99 99 102 99 99 102 98 97 93 83
93 91 90 90 88 91 91 90 82 82 84 85 85 92 92 93 92 91 85 93 93 91 91 93 94 92 96 97 95 97 97 99 99 99 103 104 100 103 102 100 101 99 97
92 90 89 89 88 89 93 85 86 84 89 85 86 92 92 92 91 92 91 90 83 93 91 91 90 93 96 96 92 95 90 94 100 102 102 102 101 104 101 101 101 98 99
92 90 89 89 87 88 87 84 90 92 89 93 92 92 92 93 93 92 91 88 92 87 87 90 92 91 92 94 93 86 88 82 94 99 97 101 98 101 102 101 102 101 99
93 93 90 89 87 88 89 86 80 87 88 82 89 86 93 93 93 92 92 92 90 91 90 89 93 90 90 92 96 97 93 91 84 89 98 99 100 101 100 102 105 102 101
95 94 92 89 88 89 88 82 88 86 78 75 83 88 89 89 91 92 92 91 90 92 91 90 91 89 94 91 94 95 92 96 94 92 81 94 99 102 103 103 103 104 103
96 93 94 88 87 88 87 88 87 84 81 78 86 86 90 92 92 92 92 91 90 88 90 91 90 90 89 90 93 93 94 83 83 86 91 90 91 97 102 102 101 102 104

GFSSE_sfc_temp_111.txt.gz
Temp
75 77 82 83 83 83 82 82 82 83 82 82 82 83 83 83 83 83 83 83 83 83 83 83 83 83 84 84 83 83 83 83 83 83 83 83 83 83 83 83 83 83 82
79 81 82 82 83 83 83 82 82 82 82 82 83 83 83 83 83 83 83 82 83 83 83 84 83 83 84 84 83 83 83 83 83 84 84 84 83 83 83 83 82 82 82
80 81 82 82 83 83 83 83 83 83 83 82 83 83 83 83 83 83 83 83 83 84 84 84 84 84 84 84 83 83 83 83 84 84 83 81 81 83 83 83 83 82 82
81 80 80 81 82 83 83 83 83 83 83 83 83 83 83 83 84 84 84 84 84 84 84 84 84 84 84 83 83 84 84 84 84 85 82 82 83 83 82 83 82 82 82
82 80 80 82 82 83 83 83 83 83 83 83 83 84 83 84 84 84 84 84 83 84 84 84 84 83 83 83 83 83 84 85 84 83 78 76 77 82 83 82 82 82 82
80 79 82 83 83 83 83 83 83 83 83 83 83 83 84 84 84 84 84 84 84 84 84 84 84 83 83 83 83 83 84 85 83 79 76 78 76 82 82 82 82 81 81
77 79 81 82 83 83 83 83 83 83 83 83 83 83 84 84 84 85 85 84 84 84 84 84 84 83 83 83 83 83 84 86 80 77 76 76 77 81 82 82 81 81 81
80 80 81 83 83 83 83 83 83 84 84 83 83 84 84 84 84 84 85 85 85 84 84 84 84 83 83 83 83 83 84 86 83 78 77 75 79 81 82 82 81 81 81
82 80 79 80 82 83 83 84 84 83 84 84 84 84 84 84 84 85 84 85 85 85 84 84 83 83 83 83 83 83 84 85 79 78 80 75 80 82 82 81 81 81 81
82 81 80 79 79 78 79 84 84 84 84 84 84 84 84 85 85 84 83 84 85 85 85 84 83 83 83 84 84 84 84 85 79 78 76 76 80 82 82 81 81 81 80
83 81 78 81 77 77 78 82 83 84 84 84 83 84 82 76 80 82 83 84 85 85 85 84 84 84 83 83 83 84 85 78 79 77 75 79 80 82 82 81 81 81 81
73 79 76 81 80 79 85 78 77 80 77 75 74 75 75 76 74 82 82 84 85 85 85 84 81 80 84 80 79 82 78 81 79 76 75 80 81 82 82 82 81 81 81
79 82 79 80 81 79 80 77 77 77 77 75 74 72 74 75 76 73 76 75 78 81 77 80 76 74 76 79 79 79 78 80 77 77 77 80 81 82 82 82 82 82 82
82 80 80 80 79 78 80 77 76 77 77 76 75 75 73 71 69 70 70 72 72 71 68 73 75 79 79 79 80 82 82 80 76 74 76 80 80 82 83 82 82 82 82
83 82 79 82 80 79 81 77 78 77 79 76 73 73 73 72 71 70 68 72 71 73 75 75 77 80 79 82 84 85 84 80 78 76 73 81 80 81 82 83 83 83 83
81 82 79 79 80 81 78 82 79 77 77 75 75 75 74 74 72 71 69 72 71 72 75 75 79 79 80 82 82 84 84 83 80 78 75 76 81 81 82 83 83 83 83
80 79 78 79 81 80 77 78 77 79 81 72 72 74 74 75 79 73 75 74 76 77 81 81 80 80 75 78 81 82 83 84 82 80 78 75 77 82 82 82 82 82 83
79 77 82 86 81 80 78 80 78 79 78 78 74 73 76 80 79 78 76 76 77 77 74 78 79 79 76 76 78 80 80 82 84 82 80 79 78 82 80 82 82 82 83
79 77 82 79 79 79 79 79 80 79 77 79 79 79 80 82 83 76 75 75 76 76 74 75 77 78 78 78 80 79 78 79 83 88 83 82 80 81 79 80 81 81 83
80 80 78 78 79 78 78 80 78 78 79 80 80 81 81 79 84 79 78 74 71 71 78 79 77 79 81 79 85 85 79 79 80 80 83 87 82 83 82 81 79 80 81
80 81 80 78 78 77 79 74 75 75 77 77 80 82 82 81 82 80 77 75 73 71 73 79 79 78 78 78 77 77 77 80 80 80 82 82 82 84 84 82 80 79 81
79 79 77 77 76 77 79 75 77 76 76 77 78 80 82 82 82 79 76 74 76 73 77 78 78 76 76 77 71 72 71 68 79 82 80 84 82 84 86 87 85 84 82
79 78 77 79 77 76 78 76 76 75 77 75 78 77 82 82 82 80 78 74 74 74 73 76 77 76 73 76 77 76 70 71 70 75 76 80 74 75 75 73 75 75 76
80 81 79 77 77 77 77 76 75 72 71 73 72 76 79 81 82 81 81 79 77 74 75 75 80 77 75 73 76 82 71 70 63 66 76 74 76 71 71 71 70 71 73
83 80 80 78 75 76 75 76 73 71 71 72 72 73 72 78 83 83 81 80 77 76 75 77 77 76 76 74 73 74 71 69 70 64 62 65 68 70 72 70 71 69 71
84 82 80 77 75 75 74 76 74 72 71 71 71 71 70 72 76 81 81 79 77 77 77 77 76 77 76 76 74 72 70 67 66 65 63 66 64 69 70 69 68 69 69

GFSSE_sfc_temp_114.txt.gz
Temp
74 77 81 82 83 83 83 82 83 83 82 83 82 83 83 83 83 83 83 83 83 83 83 83 84 84 84 84 83 83 82 82 83 83 83 83 82 83 83 83 82 82 82
77 76 82 83 83 83 82 82 83 82 82 83 83 83 83 83 83 83 83 83 83 83 84 83 84 83 83 83 84 83 83 83 83 84 84 84 83 83 83 83 82 81 82
78 78 81 82 83 83 83 83 82 82 82 83 83 83 83 83 83 82 83 83 83 84 84 84 84 84 84 84 84 83 83 83 83 83 83 79 80 83 83 83 82 82 82
79 77 79 81 82 83 83 83 83 83 82 83 82 82 83 83 83 84 83 84 84 84 84 84 84 84 84 84 84 83 83 83 84 83 79 80 82 83 83 82 82 82 82
77 76 79 82 82 83 83 83 83 83 83 83 83 83 83 84 84 84 84 84 84 84 84 84 83 84 84 84 83 84 84 84 83 80 76 75 76 82 82 82 82 82 81
76 75 81 83 83 83 83 83 83 83 83 83 83 83 84 84 84 84 84 84 84 84 84 84 83 83 83 83 84 84 84 83 81 76 75 77 75 82 82 82 81 81 80
75 76 79 83 83 83 83 83 83 83 83 83 83 84 84 84 84 84 84 84 84 84 84 84 84 84 83 83 84 84 84 83 75 74 74 74 76 81 82 81 81 81 80
76 77 79 83 83 83 83 83 83 83 83 83 83 84 84 84 84 84 84 84 84 84 84 84 83 83 83 83 83 84 84 83 79 75 75 75 79 81 83 81 81 81 80
78 77 76 78 82 83 83 83 83 83 83 83 83 84 84 84 84 84 84 84 84 84 84 83 83 83 83 83 84 83 85 83 74 74 77 74 80 81 81 81 81 80 80
77 77 74 75 76 76 79 83 83 84 84 84 84 84 84 84 84 84 83 84 84 84 84 83 83 83 83 83 84 84 84 83 75 75 74 74 80 82 81 81 81 80 80
77 76 74 74 74 74 77 81 83 84 84 84 83 84 81 75 78 79 82 84 84 84 84 84 84 83 83 84 84 84 84 76 75 74 73 78 80 82 81 81 81 80 80
73 74 73 75 73 75 82 76 76 78 75 75 75 75 73 73 74 79 81 84 84 84 84 84 83 83 82 78 77 81 77 76 75 73 73 79 81 82 82 81 81 81 81
76 76 75 75 74 74 76 74 74 74 73 72 72 72 74 73 71 70 73 73 73 79 72 77 77 75 76 76 76 76 77 76 74 74 76 79 81 82 82 82 82 82 82
74 77 78 76 75 75 75 74 74 74 73 73 74 74 72 68 68 69 70 71 71 71 70 71 72 75 77 77 76 77 77 76 74 73 74 80 80 82 83 83 82 82 82
78 77 78 77 75 76 76 72 73 74 73 74 72 73 72 70 67 70 69 70 71 70 71 72 73 76 76 77 78 78 79 78 74 74 72 81 80 81 82 83 83 83 83
78 77 77 77 78 79 76 75 74 72 73 72 71 72 73 71 70 70 68 68 68 70 73 74 74 76 77 78 79 80 79 77 76 74 73 74 81 81 82 83 83 83 83
79 77 76 77 78 75 77 76 75 75 74 71 73 73 72 73 73 71 69 69 71 72 74 77 77 78 75 75 78 80 79 79 78 77 76 74 75 81 82 82 82 82 82
78 77 77 83 78 76 76 75 75 75 74 72 74 71 76 77 74 72 71 70 73 73 73 74 75 75 73 73 74 76 77 78 79 79 78 77 77 79 80 81 81 82 83
78 75 76 77 77 76 76 75 75 75 74 74 74 72 76 77 77 75 73 72 72 72 73 74 76 74 74 73 76 74 73 76 79 84 79 79 78 78 78 80 80 81 83
77 76 76 75 75 75 75 76 74 74 78 75 76 75 78 78 81 76 75 73 72 72 71 75 75 77 76 75 81 81 74 75 77 78 79 83 79 79 76 75 74 75 80
77 75 75 74 74 74 74 72 72 72 74 74 76 79 78 79 79 77 75 74 72 72 72 74 76 77 76 73 74 74 74 77 78 77 79 79 75 74 73 73 74 75 76
76 75 74 74 73 75 75 73 74 73 74 75 76 78 78 79 79 77 75 73 74 73 73 75 75 75 74 74 70 70 70 68 71 77 73 75 70 74 73 74 73 75 75
76 75 75 74 74 74 75 74 73 73 73 72 72 74 80 79 80 77 75 75 74 73 72 74 75 74 72 74 73 72 67 66 66 69 70 71 71 70 71 72 74 74 73
77 77 76 74 74 74 75 73 72 70 70 70 71 72 75 79 79 80 77 76 74 73 73 74 77 74 74 71 73 72 69 68 63 65 69 68 71 72 70 70 71 75 74
79 78 77 73 73 74 74 73 71 70 70 71 71 73 73 73 79 79 78 77 75 74 74 75 74 74 74 72 71 70 68 67 66 63 62 65 68 70 71 70 70 70 71
80 79 77 73 72 73 74 73 72 71 70 70 70 70 70 70 72 74 76 76 75 75 75 75 74 75 74 73 72 70 69 67 67 64 63 64 64 68 70 70 69 69 70

GFSSE_sfc_temp_117.txt.gz
Temp
73 77 80 81 81 82 82 82 82 82 82 82 83 83 83 83 83 82 82 82 83 83 83 84 83 83 84 83 83 82 82 83 83 83 82 82 82 82 82 82 82 81 82
77 78 81 82 82 82 82 82 82 82 83 82 83 83 83 83 82 82 82 83 83 83 83 83 83 83 83 83 83 82 82 82 83 84 83 83 83 83 82 82 82 81 82
76 76 80 81 82 82 82 82 82 82 83 83 83 83 82 83 83 83 83 83 83 84 84 83 83 83 83 83 83 83 83 83 83 83 82 78 79 83 83 83 82 82 82
76 75 77 81 82 82 82 82 82 83 83 83 83 82 83 83 83 83 83 83 83 83 83 83 83 84 83 83 83 83 83 83 83 82 77 78 81 83 82 82 82 82 81
75 74 76 82 82 82 82 82 83 83 83 82 83 82 82 83 83 83 83 83 83 83 83 83 83 83 83 83 84 84 83 83 82 79 75 75 76 82 82 82 82 81 81
74 75 80 82 82 82 82 82 83 82 83 83 83 83 83 83 83 84 83 83 83 83 83 83 83 83 83 82 84 84 83 82 80 75 74 76 75 82 82 82 81 80 80
73 75 78 82 83 83 83 83 83 83 83 83 83 83 83 83 84 84 83 83 83 83 83 83 83 83 83 83 84 84 83 82 74 73 73 73 75 81 82 81 81 80 80
74 75 78 82 83 83 83 83 83 83 83 83 83 83 84 84 84 84 84 84 84 84 84 83 83 83 83 83 83 83 83 82 77 74 74 74 79 82 82 81 80 80 80
75 74 75 77 81 83 83 83 83 83 82 83 83 83 83 84 84 84 84 84 84 84 83 83 83 83 83 83 83 84 84 81 72 73 77 73 80 81 81 81 80 80 80
73 74 73 74 76 76 77 83 83 83 83 83 83 83 84 84 84 83 82 84 84 84 84 83 83 83 83 83 83 84 83 82 74 73 73 73 80 81 81 81 80 80 80
74 72 72 73 72 73 75 80 83 83 83 83 83 83 81 74 76 78 82 84 84 84 84 84 83 82 84 83 83 84 83 75 74 73 72 77 80 82 81 81 80 80 80
70 71 72 72 72 74 80 75 74 77 75 75 75 74 72 72 74 78 80 83 83 83 82 82 82 82 82 76 76 79 76 76 74 72 71 78 80 82 82 81 81 81 81
72 73 72 71 72 73 73 73 73 73 72 72 73 72 72 72 70 71 72 72 73 78 73 76 76 74 75 75 75 75 76 74 73 72 75 79 80 82 82 82 82 82 82
72 73 73 73 72 72 73 72 72 72 71 69 70 72 70 68 69 69 69 70 69 70 71 70 72 74 75 76 76 75 76 74 72 72 72 79 80 82 83 83 82 82 82
72 73 74 74 73 73 73 71 71 72 71 72 71 72 70 67 67 69 68 68 69 68 71 72 73 73 74 75 76 76 76 75 73 72 71 80 80 81 82 83 83 83 83
74 74 74 74 74 74 72 72 71 71 71 71 71 71 72 70 68 69 68 69 68 69 72 72 72 73 75 75 77 78 76 75 74 72 72 72 81 81 82 82 83 83 83
75 75 75 75 76 74 72 73 72 71 73 70 72 72 73 72 71 71 69 69 70 71 73 73 73 75 73 74 75 76 76 75 75 75 74 73 74 81 82 82 82 82 82
74 73 74 81 75 73 75 73 72 73 71 69 71 70 74 74 73 71 70 71 71 72 72 72 73 74 72 72 74 74 74 75 76 77 76 76 76 78 77 80 80 81 82
75 73 74 74 74 74 74 73 73 73 72 72 72 71 74 75 75 71 71 71 71 71 72 73 74 72 73 73 75 74 72 73 76 79 77 76 77 76 74 79 79 79 82
74 73 74 73 73 74 73 72 72 72 72 73 73 73 75 75 76 73 72 70 70 71 73 74 73 74 74 73 78 80 74 74 74 75 76 78 75 75 74 75 74 75 79
74 73 73 72 72 72 72 70 70 71 72 72 76 75 76 76 77 75 71 72 72 72 73 74 74 74 73 71 72 72 71 73 73 72 72 72 72 73 73 73 74 74 75
74 74 72 72 71 72 73 71 72 72 72 73 75 75 75 77 77 76 73 72 72 72 73 74 73 73 72 71 70 68 65 68 69 71 71 73 71 73 74 75 74 75 74
74 73 72 72 72 73 73 72 71 72 71 71 71 71 74 76 77 76 75 73 72 71 72 72 73 73 70 71 69 70 66 64 64 67 69 69 70 71 71 72 74 74 72
76 75 72 71 71 73 72 72 71 69 69 70 70 72 73 75 76 76 76 74 73 72 72 73 75 73 72 70 71 71 67 66 62 63 67 67 69 71 71 70 71 73 71
77 76 74 71 71 72 72 71 71 69 69 69 70 71 72 73 75 78 76 74 73 72 73 74 73 73 72 70 69 68 67 65 64 62 62 64 66 68 70 70 70 70 70
78 76 74 71 70 71 72 71 71 70 69 69 69 70 70 70 71 74 76 74 74 73 73 73 73 74 72 72 70 69 67 66 65 63 62 63 63 66 69 70 70 69 69

GFSSE_sfc_temp_120.txt.gz
Temp
73 76 80 81 81 82 81 83 83 82 82 83 83 83 83 83 82 82 82 82 82 83 84 84 84 84 83 83 82 82 82 83 83 82 83 83 82 82 82 82 81 83 82
75 77 81 81 81 81 82 82 82 82 83 83 83 82 83 82 82 82 83 82 83 83 82 83 83 83 83 82 82 82 82 82 83 83 83 84 83 82 82 82 82 82 82
75 76 79 81 82 82 82 82 83 82 82 83 82 83 83 82 82 83 82 82 84 84 83 83 83 83 83 83 83 84 83 83 83 83 82 81 82 82 83 83 82 82 81
75 75 77 80 81 82 82 82 83 83 83 83 82 83 83 83 83 83 84 83 83 84 83 82 83 82 82 82 82 83 83 83 82 81 79 81 83 83 82 82 82 81 81
73 74 77 81 82 82 82 82 83 83 83 82 82 83 83 83 83 83 83 83 83 83 83 83 83 82 83 84 83 83 83 82 81 79 78 78 80 82 83 82 81 81 81
73 75 79 82 82 82 82 82 83 83 83 82 83 83 83 83 84 83 84 83 84 83 83 82 83 83 84 84 84 83 83 81 79 77 77 79 79 82 81 81 81 81 80
72 74 78 82 82 82 82 83 82 82 83 83 83 83 83 84 84 83 83 83 83 84 83 83 84 83 83 84 84 83 82 80 76 76 76 77 79 81 81 81 81 80 80
73 75 77 82 82 83 83 83 82 83 83 83 83 82 83 82 83 83 84 84 84 84 84 83 83 83 83 83 83 83 82 81 78 76 77 78 80 82 81 81 80 80 80
74 74 75 77 80 83 83 83 83 83 83 83 83 82 82 83 84 84 84 84 84 84 84 84 83 83 84 84 83 83 82 80 76 77 79 78 80 81 81 81 80 80 80
73 74 74 75 76 76 77 83 83 83 83 83 83 82 83 84 84 83 81 84 84 84 84 84 84 84 83 84 83 83 83 80 77 77 76 77 79 81 81 81 80 80 80
73 72 72 73 73 73 75 80 82 83 83 83 82 82 77 75 77 79 83 84 84 84 84 84 84 84 83 82 83 84 81 78 78 77 76 77 79 81 81 81 81 81 81
70 71 72 72 73 74 79 75 74 77 75 75 74 74 73 74 76 79 79 81 81 81 82 82 82 81 80 79 79 80 80 78 77 76 76 77 79 81 82 82 81 81 81
70 71 72 72 73 73 72 73 73 73 73 73 74 73 73 73 72 73 73 72 73 77 75 77 77 76 77 77 78 79 79 77 77 77 78 78 80 81 82 82 82 82 82
70 71 72 72 72 73 73 72 73 73 71 70 72 73 72 70 70 70 71 72 72 71 73 73 75 76 77 77 78 78 79 77 76 76 76 78 80 81 82 83 83 82 82
70 72 72 72 72 73 73 72 72 72 71 73 72 73 72 70 69 71 70 71 72 72 74 74 75 76 76 78 79 79 79 77 77 76 76 78 80 81 82 83 83 83 83
72 72 73 73 73 73 72 72 72 72 73 73 73 73 73 71 69 71 71 72 71 72 73 75 75 76 76 77 78 79 79 78 77 77 77 77 79 81 82 82 82 82 83
73 73 72 73 74 72 72 72 72 71 72 72 73 73 74 73 72 73 72 73 73 74 76 76 76 77 76 77 79 79 78 78 79 78 78 78 79 79 81 82 82 82 82
73 73 73 79 75 73 72 71 72 71 72 72 73 72 75 74 74 74 73 74 75 75 75 76 76 76 75 75 77 77 77 78 79 79 79 79 79 82 79 80 80 81 82
73 72 72 74 74 73 73 72 71 72 72 72 72 71 73 76 76 74 74 74 74 75 75 76 76 75 76 76 79 77 76 77 79 82 80 80 80 81 79 79 79 79 81
73 73 73 73 72 72 72 72 72 72 73 73 72 73 75 76 77 75 74 73 74 75 75 77 75 76 76 76 80 77 76 77 78 78 79 81 79 79 79 79 79 79 80
73 72 72 71 71 72 71 70 71 71 72 73 73 76 77 76 77 74 72 75 75 75 75 77 77 76 75 74 76 75 74 75 75 75 77 77 77 77 77 76 78 79 79
72 72 71 71 70 72 72 71 72 72 73 74 75 76 77 77 77 76 74 75 76 76 76 76 76 75 75 73 73 72 70 73 75 76 75 76 75 76 77 78 77 78 78
72 71 71 70 71 72 73 72 72 73 73 73 73 73 76 78 78 77 75 74 75 75 75 76 77 75 74 73 72 73 70 70 70 72 75 75 74 74 75 76 78 77 77
73 73 71 71 71 72 72 72 72 71 70 71 72 73 75 77 78 78 77 76 76 75 76 76 78 76 75 74 74 73 71 71 69 70 74 72 72 73 75 74 75 77 76
75 73 72 71 70 72 72 72 72 71 71 72 72 73 74 75 77 79 77 77 76 75 76 77 77 77 76 73 73 72 71 69 68 68 69 69 71 72 73 75 75 75 75
75 74 73 70 70 71 72 72 71 71 71 71 71 71 71 72 75 77 78 76 75 76 77 77 76 77 76 76 73 72 72 71 70 68 67 69 68 72 74 75 75 75 75

GFSSE_sfc_temp_123.txt.gz
Temp
78 78 80 82 80 81 82 81 82 83 83 83 83 83 83 83 82 82 83 83 83 83 84 84 83 83 83 83 82 83 83 82 83 83 83 83 83 82 82 82 84 89 82
80 79 81 81 82 81 81 83 82 83 83 83 82 83 83 83 83 82 83 83 83 83 83 84 84 83 83 83 82 83 83 82 82 83 84 83 83 83 83 83 84 85 82
84 82 83 81 82 81 81 83 83 83 83 83 83 83 83 83 82 83 83 83 84 83 83 83 83 83 83 83 84 83 83 82 83 83 84 88 87 83 83 83 83 82 82
86 87 85 80 81 81 81 83 83 83 83 83 83 83 83 83 83 83 83 83 83 83 83 83 84 84 83 83 83 83 83 82 82 83 89 90 90 83 82 82 82 82 82
85 87 86 81 81 82 82 83 83 83 83 83 83 83 83 84 83 83 84 84 83 83 83 83 84 84 84 84 83 83 82 81 81 86 88 86 89 85 82 82 83 82 81
85 86 84 82 82 82 82 83 83 83 82 83 83 84 84 83 83 84 84 84 83 83 83 83 83 84 85 84 84 83 82 81 83 87 87 85 88 82 82 82 81 81 80
85 87 88 82 82 82 82 83 82 83 83 83 83 83 83 83 84 84 84 84 84 84 84 84 84 84 84 84 83 82 82 81 86 86 87 87 86 81 82 81 81 81 81
86 87 87 83 83 83 83 83 83 83 83 83 83 83 83 83 84 84 84 84 84 84 84 84 84 84 84 83 83 83 82 82 86 85 86 88 81 81 82 81 81 81 81
87 86 86 88 85 83 83 83 83 83 83 83 83 83 83 84 84 84 84 84 84 84 84 84 84 84 84 84 83 83 82 80 87 87 88 89 80 82 82 81 81 81 81
85 86 85 85 86 87 85 83 83 83 83 83 83 83 83 84 84 83 83 84 85 85 85 84 84 84 84 84 84 83 82 81 89 88 89 87 80 82 82 81 81 81 81
82 83 82 84 83 83 84 85 84 83 83 83 83 81 83 86 87 88 84 84 84 84 85 85 85 84 83 83 83 83 83 91 91 90 91 78 79 81 82 82 81 81 81
80 81 83 84 85 84 83 83 84 85 85 85 84 83 85 85 84 86 83 81 82 81 82 82 82 82 84 92 92 85 93 90 90 90 92 78 79 81 83 82 82 82 82
82 83 83 83 81 83 82 84 86 86 86 85 83 84 84 85 85 88 88 88 88 83 90 88 89 91 87 90 91 93 91 90 93 93 87 79 80 81 83 83 83 83 83
80 81 83 83 82 82 85 85 85 85 86 86 84 83 83 86 84 83 86 86 85 87 86 87 90 88 88 88 91 91 91 92 94 94 90 79 80 81 82 83 83 83 83
81 81 83 82 81 82 81 83 85 84 87 86 85 85 86 85 84 85 83 86 85 86 89 88 88 90 88 90 90 90 91 90 92 94 94 80 80 81 82 83 83 83 83
81 82 83 82 82 82 82 82 83 85 85 86 86 85 83 85 83 85 85 86 86 87 89 89 88 89 89 92 90 90 90 91 89 88 93 92 80 81 82 83 83 83 83
83 83 82 83 84 82 82 83 84 84 86 87 87 84 84 84 84 83 85 87 88 87 86 89 89 89 91 92 89 90 92 90 91 89 92 94 92 81 81 82 82 82 83
84 82 83 86 85 84 83 83 85 85 86 86 87 85 84 84 84 84 86 88 87 88 90 90 90 89 89 91 90 91 91 92 90 91 92 91 92 94 87 81 81 81 82
84 83 82 84 84 83 82 83 83 83 85 86 86 85 83 85 85 86 87 87 85 90 89 91 89 90 89 90 91 90 91 91 91 95 90 90 91 91 93 86 80 79 81
84 83 83 84 83 82 83 82 84 85 86 86 86 86 84 86 86 86 88 86 87 90 89 89 86 87 89 90 93 90 91 92 92 92 92 93 92 90 90 88 90 91 80
84 83 82 81 81 81 81 82 83 83 84 85 86 84 84 85 85 85 87 87 87 88 86 87 89 86 88 87 87 87 87 90 90 91 92 92 91 90 90 90 90 92 92
83 83 81 81 80 81 83 83 85 84 85 86 85 85 85 85 85 86 84 86 86 89 86 86 86 88 87 87 88 88 85 86 90 92 91 91 90 91 92 90 89 87 88
82 82 81 80 80 81 82 82 82 83 83 83 81 81 86 86 86 85 84 85 85 87 89 86 86 85 87 86 83 86 84 84 86 89 88 90 88 90 90 88 89 88 87
83 84 82 81 80 81 81 81 81 83 82 83 81 84 84 85 86 86 85 85 85 87 86 87 88 86 86 86 87 86 83 84 84 85 89 89 88 88 89 89 90 89 87
85 83 83 81 80 81 81 80 80 81 84 84 84 81 81 83 85 87 85 85 84 88 86 85 86 85 88 87 87 86 83 85 82 84 84 87 90 90 90 90 90 91 88
85 84 83 80 79 80 81 81 80 81 80 82 82 83 84 85 87 85 86 85 83 86 84 87 85 85 85 86 87 86 87 86 86 85 84 84 83 88 90 90 89 90 91

GFSSE_sfc_temp_126.txt.gz
Temp
78 79 80 81 81 81 81 80 81 83 82 83 83 83 83 83 82 83 83 83 83 83 83 83 84 83 83 83 84 83 83 83 83 83 83 83 83 83 83 84 85 92 82
79 78 81 82 82 81 81 81 83 83 82 82 82 82 83 83 83 83 83 83 83 83 83 84 83 82 83 83 83 83 82 83 83 84 83 83 83 83 83 84 85 86 82
85 85 85 81 82 81 82 81 83 83 83 83 83 83 83 83 83 83 84 83 83 83 84 83 83 84 84 84 83 83 83 83 83 84 87 93 89 83 83 83 83 82 82
94 93 88 81 82 82 82 81 83 83 83 82 81 83 83 83 83 83 84 83 83 83 84 84 84 84 84 84 84 83 83 83 84 86 96 96 93 83 83 82 82 82 82
95 95 89 82 82 82 83 83 83 83 82 83 83 83 84 83 84 84 84 83 83 84 84 84 84 84 84 84 83 83 82 83 84 90 92 88 94 85 83 83 82 82 81
95 95 85 82 82 83 83 83 83 82 82 83 83 84 83 84 84 84 84 84 84 84 84 84 85 84 84 84 83 82 82 83 87 94 93 90 90 82 82 82 82 81 81
96 96 93 82 82 82 84 83 83 83 83 83 83 83 84 84 84 84 84 84 84 84 84 84 84 84 84 84 83 83 82 84 92 93 93 92 89 82 82 82 81 81 81
96 96 93 84 83 82 83 82 83 83 83 83 83 83 84 84 84 84 84 84 84 84 84 84 84 84 84 83 83 83 83 84 93 92 93 93 82 82 82 82 81 81 81
96 96 95 94 87 83 83 83 82 83 83 83 83 83 84 84 84 84 84 84 84 85 85 84 84 84 84 84 83 83 82 82 94 93 95 94 80 82 82 82 81 82 82
95 95 94 95 94 91 91 83 83 83 83 83 83 84 84 84 85 85 83 85 85 85 85 85 84 84 84 84 84 83 82 83 96 95 94 91 81 83 83 82 82 82 82
92 93 94 93 89 87 87 86 84 83 84 83 84 83 86 94 94 92 85 85 85 85 85 85 85 84 84 84 84 84 84 99 99 98 98 80 80 83 83 83 83 82 82
89 93 93 93 92 91 88 87 87 91 93 92 92 90 93 93 92 92 87 83 83 83 83 83 83 84 85 100 96 86 101 97 99 98 95 81 81 82 83 83 83 83 83
91 92 93 91 90 92 90 94 93 94 93 91 89 92 91 92 93 95 94 94 94 86 97 92 93 98 94 97 99 99 98 98 99 99 87 81 81 82 83 83 83 83 83
89 90 93 92 89 91 93 95 94 94 94 94 92 89 89 93 92 92 95 93 94 96 92 97 98 94 96 96 99 98 99 101 101 101 89 81 81 82 83 83 83 83 83
89 90 92 90 88 88 89 92 93 92 94 94 93 91 94 95 91 94 91 96 95 97 97 96 96 96 95 97 98 98 99 98 98 101 99 83 81 82 83 83 83 83 83
90 90 91 90 88 89 89 88 90 93 93 94 94 92 90 95 91 94 93 95 96 98 98 98 96 98 98 99 96 98 98 98 95 98 100 95 83 82 82 83 83 83 83
91 90 89 90 91 88 88 89 92 93 95 94 94 90 91 92 90 90 94 96 97 95 94 95 95 97 98 100 96 97 98 97 97 96 101 103 98 81 83 83 83 82 82
91 88 89 94 92 90 90 90 93 93 94 94 94 94 92 91 91 90 95 96 95 97 99 98 98 97 98 99 97 99 98 99 96 97 100 98 101 102 89 83 82 81 81
91 88 89 90 90 90 88 91 92 90 93 94 94 94 90 92 92 94 96 95 94 99 97 99 97 97 95 98 98 98 99 100 99 103 98 97 99 99 98 85 83 81 83
91 90 89 90 89 88 89 89 92 93 93 94 94 94 91 94 92 93 96 94 95 99 97 97 94 97 98 99 103 99 101 101 100 101 101 102 102 98 100 95 98 93 81
91 89 88 87 86 86 89 89 89 90 91 92 94 91 91 93 92 91 96 94 94 95 92 94 95 92 95 96 95 96 97 97 98 99 101 101 100 99 98 99 97 98 96
90 89 88 86 86 85 90 90 92 92 93 93 94 92 92 91 91 92 90 94 91 96 91 91 91 96 97 97 94 94 90 93 98 100 100 100 98 100 101 99 96 95 94
90 88 88 87 86 85 88 90 88 88 87 89 90 92 92 91 92 91 91 91 92 92 95 92 92 90 94 95 90 91 90 89 94 98 96 99 96 98 98 97 96 95 94
91 91 89 87 86 87 87 88 87 89 88 90 90 92 92 91 91 92 91 91 90 94 90 94 95 91 89 93 95 97 90 89 89 90 97 99 98 97 96 97 99 97 94
93 92 91 87 86 87 86 85 86 86 91 91 92 88 88 89 91 92 90 90 89 93 91 90 90 88 94 92 94 94 90 94 92 90 89 93 98 98 99 99 98 98 97
94 92 91 86 85 86 85 86 85 86 87 89 88 88 90 91 93 90 91 89 90 91 90 91 90 89 89 90 92 92 93 91 93 91 90 91 91 94 98 98 98 99 99

GFSSE_sfc_temp_129.txt.gz
Temp
79 77 79 81 82 81 82 82 82 82 82 83 82 83 83 83 83 83 83 83 83 83 83 84 84 83 84 84 84 84 84 83 83 83 83 83 83 83 84 85 84 90 83
82 78 81 82 82 82 82 81 82 82 82 82 83 83 83 83 83 83 83 83 83 83 84 83 83 83 83 83 83 83 83 83 84 84 84 84 83 83 83 83 85 85 82
81 81 82 81 82 82 82 83 82 82 83 83 83 83 83 83 83 83 83 83 84 84 83 83 83 83 83 83 83 83 83 83 83 83 85 89 88 84 83 83 83 83 82
89 89 91 81 82 82 82 83 83 83 83 83 83 83 83 83 83 84 83 83 84 84 84 84 84 84 84 84 83 83 83 83 84 85 86 93 92 83 83 83 82 82 82
89 93 87 82 82 83 81 82 83 83 83 83 84 84 84 84 84 83 83 84 84 84 84 85 84 84 84 84 83 83 83 83 85 91 93 90 91 85 82 82 82 82 81
84 95 85 83 83 83 83 82 83 82 83 83 83 83 84 84 84 83 84 84 84 84 85 85 85 84 84 84 83 83 82 83 85 95 93 89 88 83 82 82 82 82 82
93 96 92 83 83 83 83 82 83 83 83 83 83 84 84 85 85 84 84 84 84 84 84 85 84 84 84 83 83 83 83 85 95 94 94 91 87 82 82 82 82 82 82
92 92 93 83 83 83 83 83 83 83 83 83 84 84 84 84 84 85 84 84 85 85 85 85 84 84 83 83 83 83 83 84 95 94 93 91 82 83 82 82 82 82 82
91 96 96 93 86 83 83 83 83 83 83 83 84 84 84 84 84 85 85 85 85 85 85 84 84 84 84 83 83 83 83 85 95 95 97 91 81 83 83 82 82 82 82
95 96 94 95 93 92 89 83 83 84 84 83 84 84 84 85 85 85 84 85 85 85 85 85 84 84 84 84 83 83 83 84 99 97 94 87 82 83 83 83 83 83 82
94 94 91 90 92 89 89 87 84 84 84 83 85 85 85 94 93 91 85 85 86 86 85 85 85 85 85 84 84 84 84 98 101 100 94 80 82 83 84 84 83 83 83
93 90 83 94 91 89 89 87 89 89 89 92 93 92 94 91 93 93 88 85 85 85 85 85 85 85 85 95 93 86 95 99 100 99 92 82 82 83 84 84 83 83 83
87 95 85 88 92 92 89 91 93 91 95 93 91 91 92 92 88 94 92 92 92 87 92 89 90 92 96 99 101 102 100 101 101 99 87 83 82 83 83 83 83 83 83
93 93 93 95 87 86 91 87 93 89 96 95 94 92 91 95 93 93 96 95 95 97 92 93 96 96 97 97 101 101 102 102 102 100 88 83 83 83 83 84 84 84 84
94 94 95 92 89 90 92 96 95 94 97 96 94 93 94 94 92 95 93 95 96 97 98 97 97 98 96 98 100 99 101 100 101 101 96 83 83 83 83 84 84 84 84
94 94 95 91 91 92 91 91 93 93 96 96 96 93 92 96 92 94 94 96 97 99 100 98 96 98 100 100 98 100 100 99 98 100 100 93 84 83 83 84 84 84 84
95 95 92 93 93 90 90 91 94 96 97 96 90 92 93 93 92 89 96 93 98 96 95 96 95 99 101 101 96 98 99 99 98 97 101 103 94 83 84 84 84 83 83
94 92 92 95 94 92 92 93 93 94 95 92 93 95 93 92 93 91 95 94 97 97 98 99 98 98 99 99 98 99 99 99 96 96 98 98 100 101 86 84 83 82 83
93 91 92 92 89 92 91 91 88 92 86 93 95 96 93 94 93 85 88 94 93 91 97 99 98 98 97 99 99 99 100 100 98 103 100 99 101 100 101 85 85 83 85
93 92 92 93 84 91 92 91 85 93 90 97 92 96 93 94 94 89 96 94 83 84 96 95 94 98 98 99 102 100 100 100 101 101 101 103 103 100 102 98 96 90 83
94 91 91 83 89 91 91 88 89 82 88 93 94 92 92 94 94 92 86 94 80 88 92 95 94 92 97 97 96 97 98 99 99 100 102 103 102 101 101 99 98 97 94
93 91 90 87 87 88 89 83 90 81 93 92 90 93 94 93 93 93 91 93 89 86 92 92 92 89 96 98 83 94 91 93 97 102 102 102 101 101 101 100 98 97 96
92 91 90 89 88 88 83 89 89 86 90 93 89 93 93 93 94 92 92 89 92 92 87 92 92 91 76 96 92 89 78 63 65 82 93 100 97 99 99 99 99 97 95
93 93 91 89 87 89 88 82 86 89 87 92 93 95 94 93 93 94 93 92 91 90 89 94 96 91 91 83 96 98 92 90 85 87 83 85 99 99 96 98 100 97 95
95 94 92 89 88 89 87 85 89 83 83 90 92 88 89 91 92 94 93 92 91 93 90 91 91 90 92 92 87 94 92 94 93 89 87 92 93 85 98 98 98 100 97
97 96 94 88 86 87 87 87 85 87 80 85 90 91 92 94 93 92 93 91 91 91 91 92 91 90 90 89 90 92 94 91 87 91 89 90 92 82 98 97 98 99 99